<?xml version="1.0" encoding="UTF-8" standalone="no" ?>
<gpx xmlns="http://www.topografix.com/GPX/1/1" creator="MapSource 6.15.6" version="1.1" xmlns:xsi="http://www.w3.org/2001/XMLSchema-instance" xsi:schemaLocation="http://www.topografix.com/GPX/1/1 http://www.topografix.com/GPX/1/1/gpx.xsd">

  <metadata>
    <link href="http://www.garmin.com">
      <text>Garmin International</text>
    </link>
    <time>2009-10-05T12:19:17Z</time>
    <bounds maxlat="45.6292650" maxlon="7.6210830" minlat="45.6021990" minlon="7.5201400"/>
  </metadata>

  <wpt lat="45.6235167" lon="7.6208834">
    <time>2009-10-05T12:07:53Z</time>
    <name>001 PARTENZA/ARRIVO</name>
    <sym>Bike Trail</sym>
    <extensions>
      <gpxx:WaypointExtension xmlns:gpxx="http://www.garmin.com/xmlschemas/GpxExtensions/v3">
        <gpxx:DisplayMode>SymbolAndName</gpxx:DisplayMode>
      </gpxx:WaypointExtension>
    </extensions>
  </wpt>

  <wpt lat="45.6119066" lon="7.5513643">
    <ele>2195.0393066</ele>
    <name>002 RIF. DONDENA</name>
    <cmt>21-AGO-09 11:16:34</cmt>
    <desc>21-AGO-09 11:16:34</desc>
    <sym>Residence</sym>
    <extensions>
      <gpxx:WaypointExtension xmlns:gpxx="http://www.garmin.com/xmlschemas/GpxExtensions/v3">
        <gpxx:DisplayMode>SymbolAndName</gpxx:DisplayMode>
      </gpxx:WaypointExtension>
    </extensions>
  </wpt>

  <wpt lat="45.6026503" lon="7.5214317">
    <ele>2586.0000000</ele>
    <name>003 LAGO MISEREN</name>
    <cmt>21-AGO-09 12:21:39</cmt>
    <desc>21-AGO-09 12:21:39</desc>
    <sym>Summit</sym>
    <extensions>
      <gpxx:WaypointExtension xmlns:gpxx="http://www.garmin.com/xmlschemas/GpxExtensions/v3">
        <gpxx:DisplayMode>SymbolAndName</gpxx:DisplayMode>
      </gpxx:WaypointExtension>
    </extensions>
  </wpt>

  <trk>
    <name>Lago Miserin</name>
    <extensions>
      <gpxx:TrackExtension xmlns:gpxx="http://www.garmin.com/xmlschemas/GpxExtensions/v3">
        <gpxx:DisplayColor>White</gpxx:DisplayColor>
      </gpxx:TrackExtension>
    </extensions>
    <trkseg>
      <trkpt lat="45.6235230" lon="7.6208850">
        <ele>1416.7000000</ele>
        <time>2009-10-04T08:15:21Z</time>
      </trkpt>
      <trkpt lat="45.6235380" lon="7.6207080">
        <ele>1416.9440000</ele>
        <time>2009-10-04T08:15:27Z</time>
      </trkpt>
      <trkpt lat="45.6235530" lon="7.6205230">
        <ele>1418.8630000</ele>
        <time>2009-10-04T08:15:32Z</time>
      </trkpt>
      <trkpt lat="45.6237970" lon="7.6203810">
        <ele>1420.2770000</ele>
        <time>2009-10-04T08:15:37Z</time>
      </trkpt>
      <trkpt lat="45.6238180" lon="7.6201630">
        <ele>1420.8450000</ele>
        <time>2009-10-04T08:15:42Z</time>
      </trkpt>
      <trkpt lat="45.6237430" lon="7.6199350">
        <ele>1421.9860000</ele>
        <time>2009-10-04T08:15:48Z</time>
      </trkpt>
      <trkpt lat="45.6236890" lon="7.6196730">
        <ele>1423.2180000</ele>
        <time>2009-10-04T08:15:56Z</time>
      </trkpt>
      <trkpt lat="45.6240750" lon="7.6203490">
        <ele>1423.6880000</ele>
        <time>2009-10-04T08:16:00Z</time>
      </trkpt>
      <trkpt lat="45.6238330" lon="7.6196550">
        <ele>1424.6210000</ele>
        <time>2009-10-04T08:16:04Z</time>
      </trkpt>
      <trkpt lat="45.6238810" lon="7.6199160">
        <ele>1425.8460000</ele>
        <time>2009-10-04T08:16:12Z</time>
      </trkpt>
      <trkpt lat="45.6239980" lon="7.6201510">
        <ele>1426.8870000</ele>
        <time>2009-10-04T08:16:20Z</time>
      </trkpt>
      <trkpt lat="45.6240850" lon="7.6203590">
        <ele>1428.3920000</ele>
        <time>2009-10-04T08:16:28Z</time>
      </trkpt>
      <trkpt lat="45.6241510" lon="7.6204240">
        <ele>1428.8290000</ele>
        <time>2009-10-04T08:16:32Z</time>
      </trkpt>
      <trkpt lat="45.6242110" lon="7.6203610">
        <ele>1430.1040000</ele>
        <time>2009-10-04T08:16:38Z</time>
      </trkpt>
      <trkpt lat="45.6242360" lon="7.6202520">
        <ele>1431.1780000</ele>
        <time>2009-10-04T08:16:42Z</time>
      </trkpt>
      <trkpt lat="45.6241710" lon="7.6199830">
        <ele>1432.4830000</ele>
        <time>2009-10-04T08:16:51Z</time>
      </trkpt>
      <trkpt lat="45.6241050" lon="7.6197660">
        <ele>1433.8020000</ele>
        <time>2009-10-04T08:16:59Z</time>
      </trkpt>
      <trkpt lat="45.6240310" lon="7.6195220">
        <ele>1435.6570000</ele>
        <time>2009-10-04T08:17:09Z</time>
      </trkpt>
      <trkpt lat="45.6239690" lon="7.6193170">
        <ele>1437.2420000</ele>
        <time>2009-10-04T08:17:18Z</time>
      </trkpt>
      <trkpt lat="45.6239070" lon="7.6191160">
        <ele>1438.2780000</ele>
        <time>2009-10-04T08:17:26Z</time>
      </trkpt>
      <trkpt lat="45.6238720" lon="7.6189150">
        <ele>1439.6910000</ele>
        <time>2009-10-04T08:17:34Z</time>
      </trkpt>
      <trkpt lat="45.6238760" lon="7.6186620">
        <ele>1441.2900000</ele>
        <time>2009-10-04T08:17:44Z</time>
      </trkpt>
      <trkpt lat="45.6238920" lon="7.6184720">
        <ele>1442.5500000</ele>
        <time>2009-10-04T08:17:52Z</time>
      </trkpt>
      <trkpt lat="45.6239180" lon="7.6181600">
        <ele>1444.3680000</ele>
        <time>2009-10-04T08:18:03Z</time>
      </trkpt>
      <trkpt lat="45.6239370" lon="7.6179340">
        <ele>1445.5700000</ele>
        <time>2009-10-04T08:18:12Z</time>
      </trkpt>
      <trkpt lat="45.6239540" lon="7.6177320">
        <ele>1446.9040000</ele>
        <time>2009-10-04T08:18:20Z</time>
      </trkpt>
      <trkpt lat="45.6239710" lon="7.6175250">
        <ele>1447.9860000</ele>
        <time>2009-10-04T08:18:28Z</time>
      </trkpt>
      <trkpt lat="45.6239890" lon="7.6173140">
        <ele>1449.6220000</ele>
        <time>2009-10-04T08:18:36Z</time>
      </trkpt>
      <trkpt lat="45.6240470" lon="7.6171450">
        <ele>1450.8610000</ele>
        <time>2009-10-04T08:18:44Z</time>
      </trkpt>
      <trkpt lat="45.6241200" lon="7.6169470">
        <ele>1453.1900000</ele>
        <time>2009-10-04T08:18:53Z</time>
      </trkpt>
      <trkpt lat="45.6241910" lon="7.6167550">
        <ele>1454.6780000</ele>
        <time>2009-10-04T08:19:02Z</time>
      </trkpt>
      <trkpt lat="45.6242650" lon="7.6165560">
        <ele>1456.1970000</ele>
        <time>2009-10-04T08:19:12Z</time>
      </trkpt>
      <trkpt lat="45.6242320" lon="7.6163860">
        <ele>1457.7020000</ele>
        <time>2009-10-04T08:19:19Z</time>
      </trkpt>
      <trkpt lat="45.6241200" lon="7.6162730">
        <ele>1458.9350000</ele>
        <time>2009-10-04T08:19:27Z</time>
      </trkpt>
      <trkpt lat="45.6240480" lon="7.6161320">
        <ele>1460.4220000</ele>
        <time>2009-10-04T08:19:35Z</time>
      </trkpt>
      <trkpt lat="45.6240870" lon="7.6159010">
        <ele>1462.0510000</ele>
        <time>2009-10-04T08:19:45Z</time>
      </trkpt>
      <trkpt lat="45.6241200" lon="7.6157780">
        <ele>1463.1100000</ele>
        <time>2009-10-04T08:19:52Z</time>
      </trkpt>
      <trkpt lat="45.6242840" lon="7.6156280">
        <ele>1464.6390000</ele>
        <time>2009-10-04T08:20:00Z</time>
      </trkpt>
      <trkpt lat="45.6243790" lon="7.6156750">
        <ele>1466.3490000</ele>
        <time>2009-10-04T08:20:08Z</time>
      </trkpt>
      <trkpt lat="45.6245050" lon="7.6158010">
        <ele>1468.1150000</ele>
        <time>2009-10-04T08:20:18Z</time>
      </trkpt>
      <trkpt lat="45.6246320" lon="7.6159280">
        <ele>1469.6960000</ele>
        <time>2009-10-04T08:20:28Z</time>
      </trkpt>
      <trkpt lat="45.6247190" lon="7.6161500">
        <ele>1470.9560000</ele>
        <time>2009-10-04T08:20:38Z</time>
      </trkpt>
      <trkpt lat="45.6247100" lon="7.6163890">
        <ele>1472.1660000</ele>
        <time>2009-10-04T08:20:48Z</time>
      </trkpt>
      <trkpt lat="45.6246520" lon="7.6165940">
        <ele>1473.8260000</ele>
        <time>2009-10-04T08:20:57Z</time>
      </trkpt>
      <trkpt lat="45.6246070" lon="7.6167510">
        <ele>1474.7180000</ele>
        <time>2009-10-04T08:21:04Z</time>
      </trkpt>
      <trkpt lat="45.6245450" lon="7.6169680">
        <ele>1475.8770000</ele>
        <time>2009-10-04T08:21:14Z</time>
      </trkpt>
      <trkpt lat="45.6244900" lon="7.6171620">
        <ele>1477.3840000</ele>
        <time>2009-10-04T08:21:23Z</time>
      </trkpt>
      <trkpt lat="45.6244530" lon="7.6173460">
        <ele>1478.8490000</ele>
        <time>2009-10-04T08:21:32Z</time>
      </trkpt>
      <trkpt lat="45.6244330" lon="7.6175460">
        <ele>1480.1510000</ele>
        <time>2009-10-04T08:21:40Z</time>
      </trkpt>
      <trkpt lat="45.6244290" lon="7.6177310">
        <ele>1481.5010000</ele>
        <time>2009-10-04T08:21:48Z</time>
      </trkpt>
      <trkpt lat="45.6244820" lon="7.6179590">
        <ele>1482.8220000</ele>
        <time>2009-10-04T08:21:58Z</time>
      </trkpt>
      <trkpt lat="45.6245410" lon="7.6182060">
        <ele>1484.6490000</ele>
        <time>2009-10-04T08:22:09Z</time>
      </trkpt>
      <trkpt lat="45.6246020" lon="7.6184410">
        <ele>1485.9340000</ele>
        <time>2009-10-04T08:22:20Z</time>
      </trkpt>
      <trkpt lat="45.6246760" lon="7.6185890">
        <ele>1487.2460000</ele>
        <time>2009-10-04T08:22:28Z</time>
      </trkpt>
      <trkpt lat="45.6247420" lon="7.6185890">
        <ele>1487.8900000</ele>
        <time>2009-10-04T08:22:34Z</time>
      </trkpt>
      <trkpt lat="45.6248110" lon="7.6185590">
        <ele>1488.8570000</ele>
        <time>2009-10-04T08:22:40Z</time>
      </trkpt>
      <trkpt lat="45.6248450" lon="7.6183880">
        <ele>1490.1000000</ele>
        <time>2009-10-04T08:22:48Z</time>
      </trkpt>
      <trkpt lat="45.6248480" lon="7.6183750">
        <ele>1491.3190000</ele>
        <time>2009-10-04T08:22:58Z</time>
      </trkpt>
      <trkpt lat="45.6247080" lon="7.6179560">
        <ele>1491.8550000</ele>
        <time>2009-10-04T08:23:06Z</time>
      </trkpt>
      <trkpt lat="45.6246760" lon="7.6176940">
        <ele>1493.3310000</ele>
        <time>2009-10-04T08:23:17Z</time>
      </trkpt>
      <trkpt lat="45.6246920" lon="7.6175220">
        <ele>1493.9580000</ele>
        <time>2009-10-04T08:23:25Z</time>
      </trkpt>
      <trkpt lat="45.6247770" lon="7.6173180">
        <ele>1495.7790000</ele>
        <time>2009-10-04T08:23:35Z</time>
      </trkpt>
      <trkpt lat="45.6248460" lon="7.6171520">
        <ele>1497.0060000</ele>
        <time>2009-10-04T08:23:44Z</time>
      </trkpt>
      <trkpt lat="45.6249140" lon="7.6170080">
        <ele>1498.3760000</ele>
        <time>2009-10-04T08:23:52Z</time>
      </trkpt>
      <trkpt lat="45.6250180" lon="7.6168410">
        <ele>1499.9960000</ele>
        <time>2009-10-04T08:24:02Z</time>
      </trkpt>
      <trkpt lat="45.6251100" lon="7.6166940">
        <ele>1501.2410000</ele>
        <time>2009-10-04T08:24:11Z</time>
      </trkpt>
      <trkpt lat="45.6252220" lon="7.6165150">
        <ele>1503.1930000</ele>
        <time>2009-10-04T08:24:22Z</time>
      </trkpt>
      <trkpt lat="45.6253070" lon="7.6163790">
        <ele>1504.8460000</ele>
        <time>2009-10-04T08:24:31Z</time>
      </trkpt>
      <trkpt lat="45.6253510" lon="7.6162480">
        <ele>1505.9670000</ele>
        <time>2009-10-04T08:24:38Z</time>
      </trkpt>
      <trkpt lat="45.6253930" lon="7.6161030">
        <ele>1507.2760000</ele>
        <time>2009-10-04T08:24:46Z</time>
      </trkpt>
      <trkpt lat="45.6254370" lon="7.6159490">
        <ele>1508.8300000</ele>
        <time>2009-10-04T08:24:54Z</time>
      </trkpt>
      <trkpt lat="45.6254830" lon="7.6157880">
        <ele>1510.0610000</ele>
        <time>2009-10-04T08:25:02Z</time>
      </trkpt>
      <trkpt lat="45.6254740" lon="7.6155970">
        <ele>1511.2780000</ele>
        <time>2009-10-04T08:25:10Z</time>
      </trkpt>
      <trkpt lat="45.6254610" lon="7.6154830">
        <ele>1512.4660000</ele>
        <time>2009-10-04T08:25:16Z</time>
      </trkpt>
      <trkpt lat="45.6253980" lon="7.6152860">
        <ele>1513.9320000</ele>
        <time>2009-10-04T08:25:25Z</time>
      </trkpt>
      <trkpt lat="45.6253540" lon="7.6152130">
        <ele>1515.1000000</ele>
        <time>2009-10-04T08:25:31Z</time>
      </trkpt>
      <trkpt lat="45.6253470" lon="7.6151290">
        <ele>1516.1840000</ele>
        <time>2009-10-04T08:25:38Z</time>
      </trkpt>
      <trkpt lat="45.6254140" lon="7.6150930">
        <ele>1517.2560000</ele>
        <time>2009-10-04T08:25:43Z</time>
      </trkpt>
      <trkpt lat="45.6254280" lon="7.6151330">
        <ele>1517.4190000</ele>
        <time>2009-10-04T08:25:45Z</time>
      </trkpt>
      <trkpt lat="45.6255190" lon="7.6153870">
        <ele>1518.0150000</ele>
        <time>2009-10-04T08:25:56Z</time>
      </trkpt>
      <trkpt lat="45.6255900" lon="7.6155870">
        <ele>1518.4730000</ele>
        <time>2009-10-04T08:26:04Z</time>
      </trkpt>
      <trkpt lat="45.6256130" lon="7.6158080">
        <ele>1519.3370000</ele>
        <time>2009-10-04T08:26:12Z</time>
      </trkpt>
      <trkpt lat="45.6255980" lon="7.6160910">
        <ele>1521.5410000</ele>
        <time>2009-10-04T08:26:24Z</time>
      </trkpt>
      <trkpt lat="45.6255890" lon="7.6162770">
        <ele>1523.0360000</ele>
        <time>2009-10-04T08:26:32Z</time>
      </trkpt>
      <trkpt lat="45.6255800" lon="7.6164960">
        <ele>1524.6000000</ele>
        <time>2009-10-04T08:26:41Z</time>
      </trkpt>
      <trkpt lat="45.6256230" lon="7.6166640">
        <ele>1525.8820000</ele>
        <time>2009-10-04T08:26:49Z</time>
      </trkpt>
      <trkpt lat="45.6257140" lon="7.6169080">
        <ele>1527.7430000</ele>
        <time>2009-10-04T08:27:01Z</time>
      </trkpt>
      <trkpt lat="45.6257810" lon="7.6170470">
        <ele>1528.6820000</ele>
        <time>2009-10-04T08:27:09Z</time>
      </trkpt>
      <trkpt lat="45.6258780" lon="7.6171860">
        <ele>1530.5720000</ele>
        <time>2009-10-04T08:27:18Z</time>
      </trkpt>
      <trkpt lat="45.6259720" lon="7.6173200">
        <ele>1532.2240000</ele>
        <time>2009-10-04T08:27:27Z</time>
      </trkpt>
      <trkpt lat="45.6260500" lon="7.6174310">
        <ele>1533.4240000</ele>
        <time>2009-10-04T08:27:35Z</time>
      </trkpt>
      <trkpt lat="45.6261450" lon="7.6174310">
        <ele>1534.6160000</ele>
        <time>2009-10-04T08:27:42Z</time>
      </trkpt>
      <trkpt lat="45.6261930" lon="7.6173230">
        <ele>1535.7700000</ele>
        <time>2009-10-04T08:27:46Z</time>
      </trkpt>
      <trkpt lat="45.6261510" lon="7.6171620">
        <ele>1536.6620000</ele>
        <time>2009-10-04T08:27:54Z</time>
      </trkpt>
      <trkpt lat="45.6261010" lon="7.6169750">
        <ele>1538.3480000</ele>
        <time>2009-10-04T08:28:03Z</time>
      </trkpt>
      <trkpt lat="45.6260400" lon="7.6167410">
        <ele>1540.1500000</ele>
        <time>2009-10-04T08:28:14Z</time>
      </trkpt>
      <trkpt lat="45.6259960" lon="7.6165580">
        <ele>1541.3370000</ele>
        <time>2009-10-04T08:28:23Z</time>
      </trkpt>
      <trkpt lat="45.6259530" lon="7.6163210">
        <ele>1543.0210000</ele>
        <time>2009-10-04T08:28:34Z</time>
      </trkpt>
      <trkpt lat="45.6259210" lon="7.6160920">
        <ele>1544.5940000</ele>
        <time>2009-10-04T08:28:44Z</time>
      </trkpt>
      <trkpt lat="45.6259210" lon="7.6159200">
        <ele>1546.1090000</ele>
        <time>2009-10-04T08:28:53Z</time>
      </trkpt>
      <trkpt lat="45.6259210" lon="7.6157990">
        <ele>1547.3840000</ele>
        <time>2009-10-04T08:29:00Z</time>
      </trkpt>
      <trkpt lat="45.6259210" lon="7.6156670">
        <ele>1548.4160000</ele>
        <time>2009-10-04T08:29:07Z</time>
      </trkpt>
      <trkpt lat="45.6259210" lon="7.6155290">
        <ele>1549.4590000</ele>
        <time>2009-10-04T08:29:14Z</time>
      </trkpt>
      <trkpt lat="45.6259210" lon="7.6153870">
        <ele>1550.6960000</ele>
        <time>2009-10-04T08:29:22Z</time>
      </trkpt>
      <trkpt lat="45.6259210" lon="7.6152770">
        <ele>1551.8870000</ele>
        <time>2009-10-04T08:29:28Z</time>
      </trkpt>
      <trkpt lat="45.6259450" lon="7.6151990">
        <ele>1552.5930000</ele>
        <time>2009-10-04T08:29:31Z</time>
      </trkpt>
      <trkpt lat="45.6260190" lon="7.6151990">
        <ele>1553.1790000</ele>
        <time>2009-10-04T08:29:37Z</time>
      </trkpt>
      <trkpt lat="45.6260920" lon="7.6153110">
        <ele>1553.6540000</ele>
        <time>2009-10-04T08:29:38Z</time>
      </trkpt>
      <trkpt lat="45.6259210" lon="7.6155470">
        <ele>1554.8470000</ele>
        <time>2009-10-04T08:29:47Z</time>
      </trkpt>
      <trkpt lat="45.6260920" lon="7.6157960">
        <ele>1556.3970000</ele>
        <time>2009-10-04T08:29:57Z</time>
      </trkpt>
      <trkpt lat="45.6261530" lon="7.6158720">
        <ele>1557.4300000</ele>
        <time>2009-10-04T08:30:05Z</time>
      </trkpt>
      <trkpt lat="45.6262680" lon="7.6160070">
        <ele>1558.9900000</ele>
        <time>2009-10-04T08:30:15Z</time>
      </trkpt>
      <trkpt lat="45.6263330" lon="7.6160840">
        <ele>1559.6460000</ele>
        <time>2009-10-04T08:30:21Z</time>
      </trkpt>
      <trkpt lat="45.6264310" lon="7.6162000">
        <ele>1561.5200000</ele>
        <time>2009-10-04T08:30:30Z</time>
      </trkpt>
      <trkpt lat="45.6265360" lon="7.6163240">
        <ele>1563.1910000</ele>
        <time>2009-10-04T08:30:40Z</time>
      </trkpt>
      <trkpt lat="45.6266340" lon="7.6164700">
        <ele>1564.8230000</ele>
        <time>2009-10-04T08:30:50Z</time>
      </trkpt>
      <trkpt lat="45.6267200" lon="7.6166100">
        <ele>1566.3010000</ele>
        <time>2009-10-04T08:31:00Z</time>
      </trkpt>
      <trkpt lat="45.6268010" lon="7.6167420">
        <ele>1567.7600000</ele>
        <time>2009-10-04T08:31:09Z</time>
      </trkpt>
      <trkpt lat="45.6268990" lon="7.6169010">
        <ele>1569.6150000</ele>
        <time>2009-10-04T08:31:20Z</time>
      </trkpt>
      <trkpt lat="45.6269230" lon="7.6169080">
        <ele>1570.1170000</ele>
        <time>2009-10-04T08:31:26Z</time>
      </trkpt>
      <trkpt lat="45.6269530" lon="7.6168930">
        <ele>1570.3440000</ele>
        <time>2009-10-04T08:31:28Z</time>
      </trkpt>
      <trkpt lat="45.6269940" lon="7.6167920">
        <ele>1571.9510000</ele>
        <time>2009-10-04T08:31:35Z</time>
      </trkpt>
      <trkpt lat="45.6269940" lon="7.6167480">
        <ele>1572.3720000</ele>
        <time>2009-10-04T08:31:37Z</time>
      </trkpt>
      <trkpt lat="45.6269090" lon="7.6165310">
        <ele>1574.3310000</ele>
        <time>2009-10-04T08:31:47Z</time>
      </trkpt>
      <trkpt lat="45.6268780" lon="7.6163780">
        <ele>1575.3780000</ele>
        <time>2009-10-04T08:31:55Z</time>
      </trkpt>
      <trkpt lat="45.6268420" lon="7.6161980">
        <ele>1576.8230000</ele>
        <time>2009-10-04T08:32:04Z</time>
      </trkpt>
      <trkpt lat="45.6268050" lon="7.6160160">
        <ele>1578.0520000</ele>
        <time>2009-10-04T08:32:13Z</time>
      </trkpt>
      <trkpt lat="45.6267790" lon="7.6158860">
        <ele>1579.4430000</ele>
        <time>2009-10-04T08:32:21Z</time>
      </trkpt>
      <trkpt lat="45.6267790" lon="7.6158860">
        <ele>1580.7200000</ele>
        <time>2009-10-04T08:32:30Z</time>
      </trkpt>
      <trkpt lat="45.6265390" lon="7.6156720">
        <ele>1581.9420000</ele>
        <time>2009-10-04T08:32:39Z</time>
      </trkpt>
      <trkpt lat="45.6264460" lon="7.6155900">
        <ele>1583.4200000</ele>
        <time>2009-10-04T08:32:48Z</time>
      </trkpt>
      <trkpt lat="45.6264240" lon="7.6155700">
        <ele>1583.8660000</ele>
        <time>2009-10-04T08:32:50Z</time>
      </trkpt>
      <trkpt lat="45.6263930" lon="7.6154200">
        <ele>1585.3820000</ele>
        <time>2009-10-04T08:32:59Z</time>
      </trkpt>
      <trkpt lat="45.6263930" lon="7.6152190">
        <ele>1586.9450000</ele>
        <time>2009-10-04T08:33:09Z</time>
      </trkpt>
      <trkpt lat="45.6263930" lon="7.6150220">
        <ele>1588.1540000</ele>
        <time>2009-10-04T08:33:19Z</time>
      </trkpt>
      <trkpt lat="45.6263930" lon="7.6148630">
        <ele>1589.0900000</ele>
        <time>2009-10-04T08:33:27Z</time>
      </trkpt>
      <trkpt lat="45.6263930" lon="7.6147410">
        <ele>1590.3340000</ele>
        <time>2009-10-04T08:33:34Z</time>
      </trkpt>
      <trkpt lat="45.6264040" lon="7.6145590">
        <ele>1591.7350000</ele>
        <time>2009-10-04T08:33:43Z</time>
      </trkpt>
      <trkpt lat="45.6264540" lon="7.6143850">
        <ele>1593.3580000</ele>
        <time>2009-10-04T08:33:53Z</time>
      </trkpt>
      <trkpt lat="45.6264640" lon="7.6143500">
        <ele>1593.2730000</ele>
        <time>2009-10-04T08:33:55Z</time>
      </trkpt>
      <trkpt lat="45.6265040" lon="7.6141600">
        <ele>1595.4510000</ele>
        <time>2009-10-04T08:34:06Z</time>
      </trkpt>
      <trkpt lat="45.6265360" lon="7.6139840">
        <ele>1597.3880000</ele>
        <time>2009-10-04T08:34:16Z</time>
      </trkpt>
      <trkpt lat="45.6265590" lon="7.6138580">
        <ele>1599.0320000</ele>
        <time>2009-10-04T08:34:24Z</time>
      </trkpt>
      <trkpt lat="45.6266640" lon="7.6137600">
        <ele>1600.3150000</ele>
        <time>2009-10-04T08:34:32Z</time>
      </trkpt>
      <trkpt lat="45.6267950" lon="7.6138170">
        <ele>1601.5320000</ele>
        <time>2009-10-04T08:34:40Z</time>
      </trkpt>
      <trkpt lat="45.6268990" lon="7.6138940">
        <ele>1602.2950000</ele>
        <time>2009-10-04T08:34:49Z</time>
      </trkpt>
      <trkpt lat="45.6270490" lon="7.6140070">
        <ele>1604.1930000</ele>
        <time>2009-10-04T08:35:03Z</time>
      </trkpt>
      <trkpt lat="45.6271570" lon="7.6140880">
        <ele>1605.7300000</ele>
        <time>2009-10-04T08:35:13Z</time>
      </trkpt>
      <trkpt lat="45.6272180" lon="7.6142050">
        <ele>1606.5940000</ele>
        <time>2009-10-04T08:35:19Z</time>
      </trkpt>
      <trkpt lat="45.6272320" lon="7.6143120">
        <ele>1607.2010000</ele>
        <time>2009-10-04T08:35:26Z</time>
      </trkpt>
      <trkpt lat="45.6272490" lon="7.6144780">
        <ele>1608.8250000</ele>
        <time>2009-10-04T08:35:36Z</time>
      </trkpt>
      <trkpt lat="45.6272010" lon="7.6146870">
        <ele>1610.3440000</ele>
        <time>2009-10-04T08:35:49Z</time>
      </trkpt>
      <trkpt lat="45.6271680" lon="7.6148310">
        <ele>1611.3130000</ele>
        <time>2009-10-04T08:35:58Z</time>
      </trkpt>
      <trkpt lat="45.6271270" lon="7.6150080">
        <ele>1612.5720000</ele>
        <time>2009-10-04T08:36:09Z</time>
      </trkpt>
      <trkpt lat="45.6271560" lon="7.6150950">
        <ele>1613.5410000</ele>
        <time>2009-10-04T08:36:16Z</time>
      </trkpt>
      <trkpt lat="45.6271650" lon="7.6151130">
        <ele>1613.9880000</ele>
        <time>2009-10-04T08:36:22Z</time>
      </trkpt>
      <trkpt lat="45.6271890" lon="7.6150440">
        <ele>1614.9900000</ele>
        <time>2009-10-04T08:36:29Z</time>
      </trkpt>
      <trkpt lat="45.6272120" lon="7.6149770">
        <ele>1615.4760000</ele>
        <time>2009-10-04T08:36:34Z</time>
      </trkpt>
      <trkpt lat="45.6272290" lon="7.6149270">
        <ele>1615.3470000</ele>
        <time>2009-10-04T08:36:38Z</time>
      </trkpt>
      <trkpt lat="45.6273070" lon="7.6146990">
        <ele>1616.7380000</ele>
        <time>2009-10-04T08:36:52Z</time>
      </trkpt>
      <trkpt lat="45.6273820" lon="7.6144790">
        <ele>1618.3290000</ele>
        <time>2009-10-04T08:37:05Z</time>
      </trkpt>
      <trkpt lat="45.6274410" lon="7.6143090">
        <ele>1619.3220000</ele>
        <time>2009-10-04T08:37:15Z</time>
      </trkpt>
      <trkpt lat="45.6274870" lon="7.6141730">
        <ele>1620.3160000</ele>
        <time>2009-10-04T08:37:23Z</time>
      </trkpt>
      <trkpt lat="45.6275430" lon="7.6140080">
        <ele>1621.4920000</ele>
        <time>2009-10-04T08:37:33Z</time>
      </trkpt>
      <trkpt lat="45.6276020" lon="7.6138370">
        <ele>1622.4710000</ele>
        <time>2009-10-04T08:37:43Z</time>
      </trkpt>
      <trkpt lat="45.6276600" lon="7.6136680">
        <ele>1623.5160000</ele>
        <time>2009-10-04T08:37:53Z</time>
      </trkpt>
      <trkpt lat="45.6277110" lon="7.6135170">
        <ele>1624.2200000</ele>
        <time>2009-10-04T08:38:02Z</time>
      </trkpt>
      <trkpt lat="45.6277080" lon="7.6133580">
        <ele>1625.1480000</ele>
        <time>2009-10-04T08:38:10Z</time>
      </trkpt>
      <trkpt lat="45.6276850" lon="7.6131760">
        <ele>1625.9690000</ele>
        <time>2009-10-04T08:38:20Z</time>
      </trkpt>
      <trkpt lat="45.6276260" lon="7.6129840">
        <ele>1626.7640000</ele>
        <time>2009-10-04T08:38:31Z</time>
      </trkpt>
      <trkpt lat="45.6275490" lon="7.6127670">
        <ele>1627.5200000</ele>
        <time>2009-10-04T08:38:43Z</time>
      </trkpt>
      <trkpt lat="45.6274840" lon="7.6125830">
        <ele>1628.0240000</ele>
        <time>2009-10-04T08:38:53Z</time>
      </trkpt>
      <trkpt lat="45.6274110" lon="7.6124000">
        <ele>1628.8300000</ele>
        <time>2009-10-04T08:39:03Z</time>
      </trkpt>
      <trkpt lat="45.6272730" lon="7.6122900">
        <ele>1629.8080000</ele>
        <time>2009-10-04T08:39:14Z</time>
      </trkpt>
      <trkpt lat="45.6271430" lon="7.6121860">
        <ele>1631.0240000</ele>
        <time>2009-10-04T08:39:24Z</time>
      </trkpt>
      <trkpt lat="45.6270320" lon="7.6120970">
        <ele>1631.6050000</ele>
        <time>2009-10-04T08:39:33Z</time>
      </trkpt>
      <trkpt lat="45.6269200" lon="7.6120290">
        <ele>1632.4130000</ele>
        <time>2009-10-04T08:39:41Z</time>
      </trkpt>
      <trkpt lat="45.6267500" lon="7.6120630">
        <ele>1632.7400000</ele>
        <time>2009-10-04T08:39:51Z</time>
      </trkpt>
      <trkpt lat="45.6266100" lon="7.6122210">
        <ele>1633.5960000</ele>
        <time>2009-10-04T08:40:01Z</time>
      </trkpt>
      <trkpt lat="45.6265090" lon="7.6123430">
        <ele>1634.2220000</ele>
        <time>2009-10-04T08:40:09Z</time>
      </trkpt>
      <trkpt lat="45.6263880" lon="7.6124920">
        <ele>1634.9720000</ele>
        <time>2009-10-04T08:40:19Z</time>
      </trkpt>
      <trkpt lat="45.6263500" lon="7.6125380">
        <ele>1635.3710000</ele>
        <time>2009-10-04T08:40:27Z</time>
      </trkpt>
      <trkpt lat="45.6261240" lon="7.6127900">
        <ele>1636.2600000</ele>
        <time>2009-10-04T08:40:38Z</time>
      </trkpt>
      <trkpt lat="45.6259640" lon="7.6129680">
        <ele>1636.3770000</ele>
        <time>2009-10-04T08:40:49Z</time>
      </trkpt>
      <trkpt lat="45.6259400" lon="7.6129680">
        <ele>1636.2490000</ele>
        <time>2009-10-04T08:40:51Z</time>
      </trkpt>
      <trkpt lat="45.6257810" lon="7.6129080">
        <ele>1636.3910000</ele>
        <time>2009-10-04T08:41:00Z</time>
      </trkpt>
      <trkpt lat="45.6256490" lon="7.6127090">
        <ele>1636.0670000</ele>
        <time>2009-10-04T08:41:09Z</time>
      </trkpt>
      <trkpt lat="45.6254630" lon="7.6125100">
        <ele>1636.0080000</ele>
        <time>2009-10-04T08:41:19Z</time>
      </trkpt>
      <trkpt lat="45.6253200" lon="7.6123670">
        <ele>1636.0070000</ele>
        <time>2009-10-04T08:41:27Z</time>
      </trkpt>
      <trkpt lat="45.6252780" lon="7.6121580">
        <ele>1636.5480000</ele>
        <time>2009-10-04T08:41:34Z</time>
      </trkpt>
      <trkpt lat="45.6252770" lon="7.6121520">
        <ele>1636.8600000</ele>
        <time>2009-10-04T08:41:43Z</time>
      </trkpt>
      <trkpt lat="45.6251120" lon="7.6113270">
        <ele>1636.9430000</ele>
        <time>2009-10-04T08:41:55Z</time>
      </trkpt>
      <trkpt lat="45.6251050" lon="7.6109160">
        <ele>1637.4950000</ele>
        <time>2009-10-04T08:42:05Z</time>
      </trkpt>
      <trkpt lat="45.6251370" lon="7.6106620">
        <ele>1637.6990000</ele>
        <time>2009-10-04T08:42:12Z</time>
      </trkpt>
      <trkpt lat="45.6252190" lon="7.6103630">
        <ele>1638.2200000</ele>
        <time>2009-10-04T08:42:20Z</time>
      </trkpt>
      <trkpt lat="45.6253330" lon="7.6099430">
        <ele>1638.9780000</ele>
        <time>2009-10-04T08:42:31Z</time>
      </trkpt>
      <trkpt lat="45.6253510" lon="7.6096480">
        <ele>1639.4990000</ele>
        <time>2009-10-04T08:42:39Z</time>
      </trkpt>
      <trkpt lat="45.6253340" lon="7.6094060">
        <ele>1640.3460000</ele>
        <time>2009-10-04T08:42:46Z</time>
      </trkpt>
      <trkpt lat="45.6253490" lon="7.6091400">
        <ele>1641.1010000</ele>
        <time>2009-10-04T08:42:54Z</time>
      </trkpt>
      <trkpt lat="45.6254850" lon="7.6089030">
        <ele>1641.3860000</ele>
        <time>2009-10-04T08:43:02Z</time>
      </trkpt>
      <trkpt lat="45.6256200" lon="7.6086760">
        <ele>1641.6780000</ele>
        <time>2009-10-04T08:43:12Z</time>
      </trkpt>
      <trkpt lat="45.6258780" lon="7.6084190">
        <ele>1642.3520000</ele>
        <time>2009-10-04T08:43:22Z</time>
      </trkpt>
      <trkpt lat="45.6258780" lon="7.6084190">
        <ele>1643.3530000</ele>
        <time>2009-10-04T08:43:29Z</time>
      </trkpt>
      <trkpt lat="45.6261220" lon="7.6081210">
        <ele>1644.2450000</ele>
        <time>2009-10-04T08:43:38Z</time>
      </trkpt>
      <trkpt lat="45.6262290" lon="7.6079900">
        <ele>1645.2770000</ele>
        <time>2009-10-04T08:43:47Z</time>
      </trkpt>
      <trkpt lat="45.6262930" lon="7.6078610">
        <ele>1646.3420000</ele>
        <time>2009-10-04T08:43:54Z</time>
      </trkpt>
      <trkpt lat="45.6263630" lon="7.6076500">
        <ele>1647.8590000</ele>
        <time>2009-10-04T08:44:05Z</time>
      </trkpt>
      <trkpt lat="45.6264270" lon="7.6074570">
        <ele>1649.3010000</ele>
        <time>2009-10-04T08:44:16Z</time>
      </trkpt>
      <trkpt lat="45.6264760" lon="7.6073090">
        <ele>1650.3550000</ele>
        <time>2009-10-04T08:44:25Z</time>
      </trkpt>
      <trkpt lat="45.6265400" lon="7.6071190">
        <ele>1651.8670000</ele>
        <time>2009-10-04T08:44:37Z</time>
      </trkpt>
      <trkpt lat="45.6265810" lon="7.6069960">
        <ele>1653.0900000</ele>
        <time>2009-10-04T08:44:45Z</time>
      </trkpt>
      <trkpt lat="45.6266210" lon="7.6068750">
        <ele>1653.7400000</ele>
        <time>2009-10-04T08:44:53Z</time>
      </trkpt>
      <trkpt lat="45.6266660" lon="7.6067400">
        <ele>1655.2190000</ele>
        <time>2009-10-04T08:45:02Z</time>
      </trkpt>
      <trkpt lat="45.6266900" lon="7.6066700">
        <ele>1655.5500000</ele>
        <time>2009-10-04T08:45:07Z</time>
      </trkpt>
      <trkpt lat="45.6267400" lon="7.6066360">
        <ele>1656.1790000</ele>
        <time>2009-10-04T08:45:11Z</time>
      </trkpt>
      <trkpt lat="45.6268430" lon="7.6066800">
        <ele>1657.0260000</ele>
        <time>2009-10-04T08:45:20Z</time>
      </trkpt>
      <trkpt lat="45.6268650" lon="7.6068500">
        <ele>1657.8180000</ele>
        <time>2009-10-04T08:45:28Z</time>
      </trkpt>
      <trkpt lat="45.6268300" lon="7.6070680">
        <ele>1658.6880000</ele>
        <time>2009-10-04T08:45:39Z</time>
      </trkpt>
      <trkpt lat="45.6267970" lon="7.6072520">
        <ele>1659.7470000</ele>
        <time>2009-10-04T08:45:49Z</time>
      </trkpt>
      <trkpt lat="45.6267600" lon="7.6074610">
        <ele>1660.4770000</ele>
        <time>2009-10-04T08:46:00Z</time>
      </trkpt>
      <trkpt lat="45.6267150" lon="7.6077120">
        <ele>1661.3390000</ele>
        <time>2009-10-04T08:46:13Z</time>
      </trkpt>
      <trkpt lat="45.6266810" lon="7.6079030">
        <ele>1662.3510000</ele>
        <time>2009-10-04T08:46:23Z</time>
      </trkpt>
      <trkpt lat="45.6266410" lon="7.6081230">
        <ele>1663.2150000</ele>
        <time>2009-10-04T08:46:34Z</time>
      </trkpt>
      <trkpt lat="45.6266020" lon="7.6083080">
        <ele>1664.1900000</ele>
        <time>2009-10-04T08:46:44Z</time>
      </trkpt>
      <trkpt lat="45.6265620" lon="7.6085010">
        <ele>1664.9880000</ele>
        <time>2009-10-04T08:46:54Z</time>
      </trkpt>
      <trkpt lat="45.6265270" lon="7.6086680">
        <ele>1665.9810000</ele>
        <time>2009-10-04T08:47:03Z</time>
      </trkpt>
      <trkpt lat="45.6264960" lon="7.6088150">
        <ele>1666.5520000</ele>
        <time>2009-10-04T08:47:11Z</time>
      </trkpt>
      <trkpt lat="45.6264700" lon="7.6089430">
        <ele>1667.4060000</ele>
        <time>2009-10-04T08:47:18Z</time>
      </trkpt>
      <trkpt lat="45.6264000" lon="7.6091690">
        <ele>1668.7790000</ele>
        <time>2009-10-04T08:47:28Z</time>
      </trkpt>
      <trkpt lat="45.6263160" lon="7.6093150">
        <ele>1670.1850000</ele>
        <time>2009-10-04T08:47:38Z</time>
      </trkpt>
      <trkpt lat="45.6262580" lon="7.6094340">
        <ele>1671.9810000</ele>
        <time>2009-10-04T08:47:48Z</time>
      </trkpt>
      <trkpt lat="45.6262160" lon="7.6096370">
        <ele>1673.3480000</ele>
        <time>2009-10-04T08:47:59Z</time>
      </trkpt>
      <trkpt lat="45.6261870" lon="7.6097720">
        <ele>1674.1290000</ele>
        <time>2009-10-04T08:48:06Z</time>
      </trkpt>
      <trkpt lat="45.6261330" lon="7.6100300">
        <ele>1675.9520000</ele>
        <time>2009-10-04T08:48:20Z</time>
      </trkpt>
      <trkpt lat="45.6260970" lon="7.6102360">
        <ele>1677.3190000</ele>
        <time>2009-10-04T08:48:30Z</time>
      </trkpt>
      <trkpt lat="45.6261450" lon="7.6103610">
        <ele>1678.5910000</ele>
        <time>2009-10-04T08:48:39Z</time>
      </trkpt>
      <trkpt lat="45.6262340" lon="7.6104650">
        <ele>1679.0780000</ele>
        <time>2009-10-04T08:48:48Z</time>
      </trkpt>
      <trkpt lat="45.6263500" lon="7.6106010">
        <ele>1681.0930000</ele>
        <time>2009-10-04T08:49:00Z</time>
      </trkpt>
      <trkpt lat="45.6264150" lon="7.6106460">
        <ele>1682.3740000</ele>
        <time>2009-10-04T08:49:07Z</time>
      </trkpt>
      <trkpt lat="45.6265100" lon="7.6106270">
        <ele>1683.4710000</ele>
        <time>2009-10-04T08:49:16Z</time>
      </trkpt>
      <trkpt lat="45.6265780" lon="7.6106130">
        <ele>1684.4300000</ele>
        <time>2009-10-04T08:49:22Z</time>
      </trkpt>
      <trkpt lat="45.6266530" lon="7.6105510">
        <ele>1685.5270000</ele>
        <time>2009-10-04T08:49:30Z</time>
      </trkpt>
      <trkpt lat="45.6266930" lon="7.6105000">
        <ele>1685.7080000</ele>
        <time>2009-10-04T08:49:35Z</time>
      </trkpt>
      <trkpt lat="45.6267750" lon="7.6103970">
        <ele>1687.2770000</ele>
        <time>2009-10-04T08:49:45Z</time>
      </trkpt>
      <trkpt lat="45.6268440" lon="7.6103120">
        <ele>1688.2110000</ele>
        <time>2009-10-04T08:49:53Z</time>
      </trkpt>
      <trkpt lat="45.6269440" lon="7.6101870">
        <ele>1689.3840000</ele>
        <time>2009-10-04T08:50:04Z</time>
      </trkpt>
      <trkpt lat="45.6270280" lon="7.6100820">
        <ele>1690.8500000</ele>
        <time>2009-10-04T08:50:13Z</time>
      </trkpt>
      <trkpt lat="45.6270930" lon="7.6100000">
        <ele>1691.6690000</ele>
        <time>2009-10-04T08:50:20Z</time>
      </trkpt>
      <trkpt lat="45.6271730" lon="7.6099000">
        <ele>1692.6110000</ele>
        <time>2009-10-04T08:50:29Z</time>
      </trkpt>
      <trkpt lat="45.6272460" lon="7.6098080">
        <ele>1693.9410000</ele>
        <time>2009-10-04T08:50:38Z</time>
      </trkpt>
      <trkpt lat="45.6272970" lon="7.6097200">
        <ele>1694.5670000</ele>
        <time>2009-10-04T08:50:45Z</time>
      </trkpt>
      <trkpt lat="45.6273100" lon="7.6096010">
        <ele>1695.4310000</ele>
        <time>2009-10-04T08:50:54Z</time>
      </trkpt>
      <trkpt lat="45.6273250" lon="7.6094530">
        <ele>1696.6970000</ele>
        <time>2009-10-04T08:51:04Z</time>
      </trkpt>
      <trkpt lat="45.6273450" lon="7.6092640">
        <ele>1697.9450000</ele>
        <time>2009-10-04T08:51:16Z</time>
      </trkpt>
      <trkpt lat="45.6273470" lon="7.6092480">
        <ele>1698.1050000</ele>
        <time>2009-10-04T08:51:17Z</time>
      </trkpt>
      <trkpt lat="45.6273650" lon="7.6090760">
        <ele>1699.7830000</ele>
        <time>2009-10-04T08:51:28Z</time>
      </trkpt>
      <trkpt lat="45.6273840" lon="7.6089180">
        <ele>1700.6990000</ele>
        <time>2009-10-04T08:51:38Z</time>
      </trkpt>
      <trkpt lat="45.6274240" lon="7.6087600">
        <ele>1701.9630000</ele>
        <time>2009-10-04T08:51:48Z</time>
      </trkpt>
      <trkpt lat="45.6274710" lon="7.6085780">
        <ele>1703.0060000</ele>
        <time>2009-10-04T08:51:59Z</time>
      </trkpt>
      <trkpt lat="45.6275170" lon="7.6083970">
        <ele>1704.1680000</ele>
        <time>2009-10-04T08:52:10Z</time>
      </trkpt>
      <trkpt lat="45.6275630" lon="7.6082210">
        <ele>1705.3040000</ele>
        <time>2009-10-04T08:52:21Z</time>
      </trkpt>
      <trkpt lat="45.6276040" lon="7.6080580">
        <ele>1706.3590000</ele>
        <time>2009-10-04T08:52:31Z</time>
      </trkpt>
      <trkpt lat="45.6276670" lon="7.6078140">
        <ele>1708.1960000</ele>
        <time>2009-10-04T08:52:46Z</time>
      </trkpt>
      <trkpt lat="45.6276840" lon="7.6077460">
        <ele>1708.7820000</ele>
        <time>2009-10-04T08:52:53Z</time>
      </trkpt>
      <trkpt lat="45.6276910" lon="7.6077210">
        <ele>1708.9590000</ele>
        <time>2009-10-04T08:52:59Z</time>
      </trkpt>
      <trkpt lat="45.6276910" lon="7.6077210">
        <ele>1711.2880000</ele>
        <time>2009-10-04T08:56:50Z</time>
      </trkpt>
      <trkpt lat="45.6276960" lon="7.6077020">
        <ele>1711.5640000</ele>
        <time>2009-10-04T08:56:58Z</time>
      </trkpt>
      <trkpt lat="45.6277180" lon="7.6076140">
        <ele>1711.7490000</ele>
        <time>2009-10-04T08:57:02Z</time>
      </trkpt>
      <trkpt lat="45.6277600" lon="7.6074500">
        <ele>1712.9920000</ele>
        <time>2009-10-04T08:57:11Z</time>
      </trkpt>
      <trkpt lat="45.6278050" lon="7.6072770">
        <ele>1714.3190000</ele>
        <time>2009-10-04T08:57:21Z</time>
      </trkpt>
      <trkpt lat="45.6278160" lon="7.6070840">
        <ele>1715.5580000</ele>
        <time>2009-10-04T08:57:31Z</time>
      </trkpt>
      <trkpt lat="45.6278250" lon="7.6068780">
        <ele>1716.7820000</ele>
        <time>2009-10-04T08:57:42Z</time>
      </trkpt>
      <trkpt lat="45.6278330" lon="7.6066950">
        <ele>1718.2230000</ele>
        <time>2009-10-04T08:57:52Z</time>
      </trkpt>
      <trkpt lat="45.6278400" lon="7.6065280">
        <ele>1719.3490000</ele>
        <time>2009-10-04T08:58:01Z</time>
      </trkpt>
      <trkpt lat="45.6278470" lon="7.6063580">
        <ele>1720.3940000</ele>
        <time>2009-10-04T08:58:11Z</time>
      </trkpt>
      <trkpt lat="45.6278520" lon="7.6062300">
        <ele>1721.7230000</ele>
        <time>2009-10-04T08:58:20Z</time>
      </trkpt>
      <trkpt lat="45.6278720" lon="7.6062170">
        <ele>1722.1660000</ele>
        <time>2009-10-04T08:58:22Z</time>
      </trkpt>
      <trkpt lat="45.6279250" lon="7.6061810">
        <ele>1722.6720000</ele>
        <time>2009-10-04T08:58:27Z</time>
      </trkpt>
      <trkpt lat="45.6282810" lon="7.6064870">
        <ele>1723.5590000</ele>
        <time>2009-10-04T08:58:33Z</time>
      </trkpt>
      <trkpt lat="45.6280050" lon="7.6064990">
        <ele>1724.6570000</ele>
        <time>2009-10-04T08:58:42Z</time>
      </trkpt>
      <trkpt lat="45.6279840" lon="7.6067530">
        <ele>1725.7940000</ele>
        <time>2009-10-04T08:58:54Z</time>
      </trkpt>
      <trkpt lat="45.6280020" lon="7.6069770">
        <ele>1726.9940000</ele>
        <time>2009-10-04T08:59:05Z</time>
      </trkpt>
      <trkpt lat="45.6280260" lon="7.6071910">
        <ele>1728.2160000</ele>
        <time>2009-10-04T08:59:16Z</time>
      </trkpt>
      <trkpt lat="45.6280430" lon="7.6073460">
        <ele>1729.5410000</ele>
        <time>2009-10-04T08:59:24Z</time>
      </trkpt>
      <trkpt lat="45.6280650" lon="7.6075470">
        <ele>1730.4490000</ele>
        <time>2009-10-04T08:59:34Z</time>
      </trkpt>
      <trkpt lat="45.6280490" lon="7.6077940">
        <ele>1731.7840000</ele>
        <time>2009-10-04T08:59:45Z</time>
      </trkpt>
      <trkpt lat="45.6280320" lon="7.6080160">
        <ele>1733.2830000</ele>
        <time>2009-10-04T08:59:56Z</time>
      </trkpt>
      <trkpt lat="45.6280370" lon="7.6081890">
        <ele>1734.2320000</ele>
        <time>2009-10-04T09:00:06Z</time>
      </trkpt>
      <trkpt lat="45.6280670" lon="7.6083470">
        <ele>1735.3390000</ele>
        <time>2009-10-04T09:00:14Z</time>
      </trkpt>
      <trkpt lat="45.6281100" lon="7.6085710">
        <ele>1736.7320000</ele>
        <time>2009-10-04T09:00:25Z</time>
      </trkpt>
      <trkpt lat="45.6281450" lon="7.6087530">
        <ele>1737.4770000</ele>
        <time>2009-10-04T09:00:34Z</time>
      </trkpt>
      <trkpt lat="45.6281780" lon="7.6089310">
        <ele>1738.6060000</ele>
        <time>2009-10-04T09:00:43Z</time>
      </trkpt>
      <trkpt lat="45.6282110" lon="7.6090350">
        <ele>1739.1070000</ele>
        <time>2009-10-04T09:00:50Z</time>
      </trkpt>
      <trkpt lat="45.6283090" lon="7.6090620">
        <ele>1739.9570000</ele>
        <time>2009-10-04T09:00:57Z</time>
      </trkpt>
      <trkpt lat="45.6283480" lon="7.6089290">
        <ele>1740.5380000</ele>
        <time>2009-10-04T09:01:03Z</time>
      </trkpt>
      <trkpt lat="45.6283240" lon="7.6087580">
        <ele>1741.9950000</ele>
        <time>2009-10-04T09:01:11Z</time>
      </trkpt>
      <trkpt lat="45.6282930" lon="7.6085450">
        <ele>1743.6050000</ele>
        <time>2009-10-04T09:01:21Z</time>
      </trkpt>
      <trkpt lat="45.6282880" lon="7.6083880">
        <ele>1744.5980000</ele>
        <time>2009-10-04T09:01:29Z</time>
      </trkpt>
      <trkpt lat="45.6283040" lon="7.6082220">
        <ele>1746.1740000</ele>
        <time>2009-10-04T09:01:38Z</time>
      </trkpt>
      <trkpt lat="45.6283250" lon="7.6079980">
        <ele>1747.8710000</ele>
        <time>2009-10-04T09:01:50Z</time>
      </trkpt>
      <trkpt lat="45.6283390" lon="7.6078550">
        <ele>1748.7880000</ele>
        <time>2009-10-04T09:01:58Z</time>
      </trkpt>
      <trkpt lat="45.6283560" lon="7.6076770">
        <ele>1749.8760000</ele>
        <time>2009-10-04T09:02:08Z</time>
      </trkpt>
      <trkpt lat="45.6283670" lon="7.6075600">
        <ele>1751.5500000</ele>
        <time>2009-10-04T09:02:19Z</time>
      </trkpt>
      <trkpt lat="45.6283670" lon="7.6075600">
        <ele>1753.4280000</ele>
        <time>2009-10-04T09:02:31Z</time>
      </trkpt>
      <trkpt lat="45.6283670" lon="7.6071430">
        <ele>1753.9010000</ele>
        <time>2009-10-04T09:02:37Z</time>
      </trkpt>
      <trkpt lat="45.6283490" lon="7.6070440">
        <ele>1754.6430000</ele>
        <time>2009-10-04T09:02:43Z</time>
      </trkpt>
      <trkpt lat="45.6283190" lon="7.6068730">
        <ele>1755.9230000</ele>
        <time>2009-10-04T09:02:53Z</time>
      </trkpt>
      <trkpt lat="45.6282960" lon="7.6067420">
        <ele>1757.3520000</ele>
        <time>2009-10-04T09:03:01Z</time>
      </trkpt>
      <trkpt lat="45.6282810" lon="7.6066390">
        <ele>1758.6600000</ele>
        <time>2009-10-04T09:03:08Z</time>
      </trkpt>
      <trkpt lat="45.6282880" lon="7.6064810">
        <ele>1759.0880000</ele>
        <time>2009-10-04T09:03:17Z</time>
      </trkpt>
      <trkpt lat="45.6284050" lon="7.6063640">
        <ele>1760.1980000</ele>
        <time>2009-10-04T09:03:28Z</time>
      </trkpt>
      <trkpt lat="45.6284880" lon="7.6062800">
        <ele>1760.8110000</ele>
        <time>2009-10-04T09:03:36Z</time>
      </trkpt>
      <trkpt lat="45.6285790" lon="7.6061890">
        <ele>1762.4290000</ele>
        <time>2009-10-04T09:03:45Z</time>
      </trkpt>
      <trkpt lat="45.6286610" lon="7.6061080">
        <ele>1763.6680000</ele>
        <time>2009-10-04T09:03:53Z</time>
      </trkpt>
      <trkpt lat="45.6287220" lon="7.6060140">
        <ele>1764.8300000</ele>
        <time>2009-10-04T09:04:01Z</time>
      </trkpt>
      <trkpt lat="45.6288050" lon="7.6058810">
        <ele>1765.8160000</ele>
        <time>2009-10-04T09:04:11Z</time>
      </trkpt>
      <trkpt lat="45.6288820" lon="7.6057580">
        <ele>1767.3750000</ele>
        <time>2009-10-04T09:04:23Z</time>
      </trkpt>
      <trkpt lat="45.6288820" lon="7.6057580">
        <ele>1768.7370000</ele>
        <time>2009-10-04T09:04:35Z</time>
      </trkpt>
      <trkpt lat="45.6290570" lon="7.6053940">
        <ele>1769.7380000</ele>
        <time>2009-10-04T09:04:46Z</time>
      </trkpt>
      <trkpt lat="45.6291190" lon="7.6052910">
        <ele>1771.1100000</ele>
        <time>2009-10-04T09:04:54Z</time>
      </trkpt>
      <trkpt lat="45.6291750" lon="7.6051970">
        <ele>1771.9730000</ele>
        <time>2009-10-04T09:05:01Z</time>
      </trkpt>
      <trkpt lat="45.6292350" lon="7.6050200">
        <ele>1773.4240000</ele>
        <time>2009-10-04T09:05:14Z</time>
      </trkpt>
      <trkpt lat="45.6292500" lon="7.6048650">
        <ele>1775.2530000</ele>
        <time>2009-10-04T09:05:23Z</time>
      </trkpt>
      <trkpt lat="45.6292650" lon="7.6047200">
        <ele>1776.0950000</ele>
        <time>2009-10-04T09:05:31Z</time>
      </trkpt>
      <trkpt lat="45.6292490" lon="7.6045510">
        <ele>1777.4430000</ele>
        <time>2009-10-04T09:05:43Z</time>
      </trkpt>
      <trkpt lat="45.6292320" lon="7.6044280">
        <ele>1778.7740000</ele>
        <time>2009-10-04T09:05:51Z</time>
      </trkpt>
      <trkpt lat="45.6291780" lon="7.6042420">
        <ele>1780.2370000</ele>
        <time>2009-10-04T09:06:02Z</time>
      </trkpt>
      <trkpt lat="45.6291190" lon="7.6040650">
        <ele>1781.5760000</ele>
        <time>2009-10-04T09:06:12Z</time>
      </trkpt>
      <trkpt lat="45.6291020" lon="7.6039190">
        <ele>1782.9590000</ele>
        <time>2009-10-04T09:06:21Z</time>
      </trkpt>
      <trkpt lat="45.6291130" lon="7.6037410">
        <ele>1784.3490000</ele>
        <time>2009-10-04T09:06:31Z</time>
      </trkpt>
      <trkpt lat="45.6291200" lon="7.6036170">
        <ele>1785.4840000</ele>
        <time>2009-10-04T09:06:38Z</time>
      </trkpt>
      <trkpt lat="45.6291260" lon="7.6035270">
        <ele>1786.3270000</ele>
        <time>2009-10-04T09:06:43Z</time>
      </trkpt>
      <trkpt lat="45.6291380" lon="7.6033360">
        <ele>1787.5170000</ele>
        <time>2009-10-04T09:06:54Z</time>
      </trkpt>
      <trkpt lat="45.6291340" lon="7.6031620">
        <ele>1789.3490000</ele>
        <time>2009-10-04T09:07:04Z</time>
      </trkpt>
      <trkpt lat="45.6291280" lon="7.6030090">
        <ele>1790.9860000</ele>
        <time>2009-10-04T09:07:13Z</time>
      </trkpt>
      <trkpt lat="45.6291270" lon="7.6029760">
        <ele>1791.1410000</ele>
        <time>2009-10-04T09:07:15Z</time>
      </trkpt>
      <trkpt lat="45.6291210" lon="7.6028230">
        <ele>1792.5540000</ele>
        <time>2009-10-04T09:07:24Z</time>
      </trkpt>
      <trkpt lat="45.6291160" lon="7.6026730">
        <ele>1794.1270000</ele>
        <time>2009-10-04T09:07:33Z</time>
      </trkpt>
      <trkpt lat="45.6291110" lon="7.6025570">
        <ele>1794.9500000</ele>
        <time>2009-10-04T09:07:40Z</time>
      </trkpt>
      <trkpt lat="45.6291060" lon="7.6024150">
        <ele>1796.2000000</ele>
        <time>2009-10-04T09:07:49Z</time>
      </trkpt>
      <trkpt lat="45.6291010" lon="7.6022660">
        <ele>1797.0570000</ele>
        <time>2009-10-04T09:07:58Z</time>
      </trkpt>
      <trkpt lat="45.6290920" lon="7.6021180">
        <ele>1797.9070000</ele>
        <time>2009-10-04T09:08:07Z</time>
      </trkpt>
      <trkpt lat="45.6290660" lon="7.6019420">
        <ele>1799.1510000</ele>
        <time>2009-10-04T09:08:17Z</time>
      </trkpt>
      <trkpt lat="45.6290500" lon="7.6018270">
        <ele>1800.2110000</ele>
        <time>2009-10-04T09:08:24Z</time>
      </trkpt>
      <trkpt lat="45.6290280" lon="7.6016700">
        <ele>1801.3570000</ele>
        <time>2009-10-04T09:08:34Z</time>
      </trkpt>
      <trkpt lat="45.6290120" lon="7.6015610">
        <ele>1802.0380000</ele>
        <time>2009-10-04T09:08:41Z</time>
      </trkpt>
      <trkpt lat="45.6289920" lon="7.6013770">
        <ele>1803.6490000</ele>
        <time>2009-10-04T09:08:52Z</time>
      </trkpt>
      <trkpt lat="45.6289790" lon="7.6012570">
        <ele>1804.8550000</ele>
        <time>2009-10-04T09:09:00Z</time>
      </trkpt>
      <trkpt lat="45.6289750" lon="7.6012150">
        <ele>1805.1060000</ele>
        <time>2009-10-04T09:09:03Z</time>
      </trkpt>
      <trkpt lat="45.6289580" lon="7.6010580">
        <ele>1806.6200000</ele>
        <time>2009-10-04T09:09:13Z</time>
      </trkpt>
      <trkpt lat="45.6289420" lon="7.6009140">
        <ele>1807.5170000</ele>
        <time>2009-10-04T09:09:22Z</time>
      </trkpt>
      <trkpt lat="45.6289240" lon="7.6007420">
        <ele>1809.7020000</ele>
        <time>2009-10-04T09:09:33Z</time>
      </trkpt>
      <trkpt lat="45.6289080" lon="7.6005910">
        <ele>1810.9280000</ele>
        <time>2009-10-04T09:09:43Z</time>
      </trkpt>
      <trkpt lat="45.6288920" lon="7.6004490">
        <ele>1811.6250000</ele>
        <time>2009-10-04T09:09:52Z</time>
      </trkpt>
      <trkpt lat="45.6288750" lon="7.6003240">
        <ele>1812.9710000</ele>
        <time>2009-10-04T09:10:00Z</time>
      </trkpt>
      <trkpt lat="45.6288360" lon="7.6001810">
        <ele>1813.8410000</ele>
        <time>2009-10-04T09:10:09Z</time>
      </trkpt>
      <trkpt lat="45.6287970" lon="7.6000370">
        <ele>1815.1950000</ele>
        <time>2009-10-04T09:10:18Z</time>
      </trkpt>
      <trkpt lat="45.6287630" lon="7.5999130">
        <ele>1816.1930000</ele>
        <time>2009-10-04T09:10:26Z</time>
      </trkpt>
      <trkpt lat="45.6287530" lon="7.5998780">
        <ele>1817.8190000</ele>
        <time>2009-10-04T09:10:36Z</time>
      </trkpt>
      <trkpt lat="45.6287530" lon="7.5998780">
        <ele>1819.0250000</ele>
        <time>2009-10-04T09:10:47Z</time>
      </trkpt>
      <trkpt lat="45.6287530" lon="7.5998780">
        <ele>1820.6180000</ele>
        <time>2009-10-04T09:10:58Z</time>
      </trkpt>
      <trkpt lat="45.6287530" lon="7.5998780">
        <ele>1821.8480000</ele>
        <time>2009-10-04T09:11:08Z</time>
      </trkpt>
      <trkpt lat="45.6287530" lon="7.5998780">
        <ele>1823.1490000</ele>
        <time>2009-10-04T09:11:17Z</time>
      </trkpt>
      <trkpt lat="45.6287530" lon="7.5998780">
        <ele>1823.4480000</ele>
        <time>2009-10-04T09:11:24Z</time>
      </trkpt>
      <trkpt lat="45.6287530" lon="7.5998780">
        <ele>1823.7500000</ele>
        <time>2009-10-04T09:11:27Z</time>
      </trkpt>
      <trkpt lat="45.6287530" lon="7.5998780">
        <ele>1823.9320000</ele>
        <time>2009-10-04T09:11:31Z</time>
      </trkpt>
      <trkpt lat="45.6287530" lon="7.5998780">
        <ele>1824.9600000</ele>
        <time>2009-10-04T09:11:40Z</time>
      </trkpt>
      <trkpt lat="45.6287530" lon="7.5998780">
        <ele>1826.1750000</ele>
        <time>2009-10-04T09:11:49Z</time>
      </trkpt>
      <trkpt lat="45.6281320" lon="7.5986090">
        <ele>1827.4080000</ele>
        <time>2009-10-04T09:11:58Z</time>
      </trkpt>
      <trkpt lat="45.6280840" lon="7.5984780">
        <ele>1828.2810000</ele>
        <time>2009-10-04T09:12:06Z</time>
      </trkpt>
      <trkpt lat="45.6280730" lon="7.5984220">
        <ele>1828.7270000</ele>
        <time>2009-10-04T09:12:09Z</time>
      </trkpt>
      <trkpt lat="45.6280400" lon="7.5982970">
        <ele>1829.7000000</ele>
        <time>2009-10-04T09:12:17Z</time>
      </trkpt>
      <trkpt lat="45.6280380" lon="7.5982830">
        <ele>1829.5160000</ele>
        <time>2009-10-04T09:12:18Z</time>
      </trkpt>
      <trkpt lat="45.6280360" lon="7.5982580">
        <ele>1830.1220000</ele>
        <time>2009-10-04T09:12:20Z</time>
      </trkpt>
      <trkpt lat="45.6280120" lon="7.5982070">
        <ele>1830.6000000</ele>
        <time>2009-10-04T09:12:24Z</time>
      </trkpt>
      <trkpt lat="45.6279970" lon="7.5981460">
        <ele>1831.1780000</ele>
        <time>2009-10-04T09:12:28Z</time>
      </trkpt>
      <trkpt lat="45.6279520" lon="7.5980260">
        <ele>1832.4880000</ele>
        <time>2009-10-04T09:12:38Z</time>
      </trkpt>
      <trkpt lat="45.6278410" lon="7.5978820">
        <ele>1833.6290000</ele>
        <time>2009-10-04T09:12:50Z</time>
      </trkpt>
      <trkpt lat="45.6277470" lon="7.5977860">
        <ele>1834.4600000</ele>
        <time>2009-10-04T09:13:00Z</time>
      </trkpt>
      <trkpt lat="45.6277100" lon="7.5977440">
        <ele>1834.8510000</ele>
        <time>2009-10-04T09:13:04Z</time>
      </trkpt>
      <trkpt lat="45.6275420" lon="7.5975680">
        <ele>1836.4520000</ele>
        <time>2009-10-04T09:13:14Z</time>
      </trkpt>
      <trkpt lat="45.6273870" lon="7.5974670">
        <ele>1837.0150000</ele>
        <time>2009-10-04T09:13:22Z</time>
      </trkpt>
      <trkpt lat="45.6272290" lon="7.5973200">
        <ele>1837.0450000</ele>
        <time>2009-10-04T09:13:31Z</time>
      </trkpt>
      <trkpt lat="45.6271450" lon="7.5970840">
        <ele>1837.5320000</ele>
        <time>2009-10-04T09:13:40Z</time>
      </trkpt>
      <trkpt lat="45.6270950" lon="7.5968760">
        <ele>1838.1450000</ele>
        <time>2009-10-04T09:13:48Z</time>
      </trkpt>
      <trkpt lat="45.6270630" lon="7.5966630">
        <ele>1839.0460000</ele>
        <time>2009-10-04T09:13:56Z</time>
      </trkpt>
      <trkpt lat="45.6270900" lon="7.5963820">
        <ele>1839.5540000</ele>
        <time>2009-10-04T09:14:06Z</time>
      </trkpt>
      <trkpt lat="45.6270890" lon="7.5962500">
        <ele>1840.2780000</ele>
        <time>2009-10-04T09:14:11Z</time>
      </trkpt>
      <trkpt lat="45.6270740" lon="7.5961360">
        <ele>1841.2020000</ele>
        <time>2009-10-04T09:14:16Z</time>
      </trkpt>
      <trkpt lat="45.6270140" lon="7.5960060">
        <ele>1842.3590000</ele>
        <time>2009-10-04T09:14:24Z</time>
      </trkpt>
      <trkpt lat="45.6269550" lon="7.5958860">
        <ele>1843.2010000</ele>
        <time>2009-10-04T09:14:31Z</time>
      </trkpt>
      <trkpt lat="45.6268390" lon="7.5957120">
        <ele>1843.4980000</ele>
        <time>2009-10-04T09:14:38Z</time>
      </trkpt>
      <trkpt lat="45.6266990" lon="7.5955830">
        <ele>1844.6730000</ele>
        <time>2009-10-04T09:14:46Z</time>
      </trkpt>
      <trkpt lat="45.6265800" lon="7.5954840">
        <ele>1845.6450000</ele>
        <time>2009-10-04T09:14:53Z</time>
      </trkpt>
      <trkpt lat="45.6264390" lon="7.5953350">
        <ele>1847.3290000</ele>
        <time>2009-10-04T09:15:03Z</time>
      </trkpt>
      <trkpt lat="45.6263340" lon="7.5951540">
        <ele>1848.6670000</ele>
        <time>2009-10-04T09:15:13Z</time>
      </trkpt>
      <trkpt lat="45.6262290" lon="7.5949850">
        <ele>1850.1000000</ele>
        <time>2009-10-04T09:15:23Z</time>
      </trkpt>
      <trkpt lat="45.6261670" lon="7.5948640">
        <ele>1851.2940000</ele>
        <time>2009-10-04T09:15:30Z</time>
      </trkpt>
      <trkpt lat="45.6260780" lon="7.5947220">
        <ele>1852.4220000</ele>
        <time>2009-10-04T09:15:39Z</time>
      </trkpt>
      <trkpt lat="45.6259990" lon="7.5945740">
        <ele>1853.9630000</ele>
        <time>2009-10-04T09:15:48Z</time>
      </trkpt>
      <trkpt lat="45.6258910" lon="7.5943940">
        <ele>1855.6150000</ele>
        <time>2009-10-04T09:16:00Z</time>
      </trkpt>
      <trkpt lat="45.6258430" lon="7.5942420">
        <ele>1856.4260000</ele>
        <time>2009-10-04T09:16:09Z</time>
      </trkpt>
      <trkpt lat="45.6258030" lon="7.5941090">
        <ele>1856.7460000</ele>
        <time>2009-10-04T09:16:16Z</time>
      </trkpt>
      <trkpt lat="45.6257540" lon="7.5939990">
        <ele>1857.2420000</ele>
        <time>2009-10-04T09:16:23Z</time>
      </trkpt>
      <trkpt lat="45.6256500" lon="7.5939180">
        <ele>1857.8690000</ele>
        <time>2009-10-04T09:16:30Z</time>
      </trkpt>
      <trkpt lat="45.6255570" lon="7.5937900">
        <ele>1858.6670000</ele>
        <time>2009-10-04T09:16:39Z</time>
      </trkpt>
      <trkpt lat="45.6254710" lon="7.5936630">
        <ele>1859.5300000</ele>
        <time>2009-10-04T09:16:48Z</time>
      </trkpt>
      <trkpt lat="45.6254010" lon="7.5935870">
        <ele>1860.4340000</ele>
        <time>2009-10-04T09:16:54Z</time>
      </trkpt>
      <trkpt lat="45.6252870" lon="7.5935350">
        <ele>1861.5900000</ele>
        <time>2009-10-04T09:17:02Z</time>
      </trkpt>
      <trkpt lat="45.6251900" lon="7.5935170">
        <ele>1862.5290000</ele>
        <time>2009-10-04T09:17:08Z</time>
      </trkpt>
      <trkpt lat="45.6250840" lon="7.5934570">
        <ele>1863.4530000</ele>
        <time>2009-10-04T09:17:15Z</time>
      </trkpt>
      <trkpt lat="45.6250060" lon="7.5933630">
        <ele>1864.2890000</ele>
        <time>2009-10-04T09:17:22Z</time>
      </trkpt>
      <trkpt lat="45.6249620" lon="7.5932880">
        <ele>1864.9450000</ele>
        <time>2009-10-04T09:17:28Z</time>
      </trkpt>
      <trkpt lat="45.6249550" lon="7.5932610">
        <ele>1865.3530000</ele>
        <time>2009-10-04T09:17:30Z</time>
      </trkpt>
      <trkpt lat="45.6249030" lon="7.5931520">
        <ele>1866.3780000</ele>
        <time>2009-10-04T09:17:38Z</time>
      </trkpt>
      <trkpt lat="45.6248940" lon="7.5931390">
        <ele>1866.3070000</ele>
        <time>2009-10-04T09:17:39Z</time>
      </trkpt>
      <trkpt lat="45.6248320" lon="7.5930450">
        <ele>1867.4790000</ele>
        <time>2009-10-04T09:17:46Z</time>
      </trkpt>
      <trkpt lat="45.6247640" lon="7.5929800">
        <ele>1868.2850000</ele>
        <time>2009-10-04T09:17:53Z</time>
      </trkpt>
      <trkpt lat="45.6247090" lon="7.5929030">
        <ele>1869.1520000</ele>
        <time>2009-10-04T09:17:59Z</time>
      </trkpt>
      <trkpt lat="45.6246320" lon="7.5927800">
        <ele>1870.4010000</ele>
        <time>2009-10-04T09:18:09Z</time>
      </trkpt>
      <trkpt lat="45.6246160" lon="7.5927510">
        <ele>1870.3490000</ele>
        <time>2009-10-04T09:18:11Z</time>
      </trkpt>
      <trkpt lat="45.6245610" lon="7.5926260">
        <ele>1871.6600000</ele>
        <time>2009-10-04T09:18:20Z</time>
      </trkpt>
      <trkpt lat="45.6245230" lon="7.5925100">
        <ele>1872.6180000</ele>
        <time>2009-10-04T09:18:28Z</time>
      </trkpt>
      <trkpt lat="45.6244890" lon="7.5923910">
        <ele>1873.6620000</ele>
        <time>2009-10-04T09:18:36Z</time>
      </trkpt>
      <trkpt lat="45.6244690" lon="7.5922650">
        <ele>1874.1710000</ele>
        <time>2009-10-04T09:18:44Z</time>
      </trkpt>
      <trkpt lat="45.6244360" lon="7.5921360">
        <ele>1875.0860000</ele>
        <time>2009-10-04T09:18:51Z</time>
      </trkpt>
      <trkpt lat="45.6243520" lon="7.5920290">
        <ele>1876.1620000</ele>
        <time>2009-10-04T09:18:58Z</time>
      </trkpt>
      <trkpt lat="45.6242560" lon="7.5919660">
        <ele>1877.3790000</ele>
        <time>2009-10-04T09:19:05Z</time>
      </trkpt>
      <trkpt lat="45.6241380" lon="7.5919620">
        <ele>1878.4110000</ele>
        <time>2009-10-04T09:19:14Z</time>
      </trkpt>
      <trkpt lat="45.6240410" lon="7.5920130">
        <ele>1879.7750000</ele>
        <time>2009-10-04T09:19:24Z</time>
      </trkpt>
      <trkpt lat="45.6239760" lon="7.5920470">
        <ele>1880.9400000</ele>
        <time>2009-10-04T09:19:31Z</time>
      </trkpt>
      <trkpt lat="45.6239070" lon="7.5920820">
        <ele>1882.4280000</ele>
        <time>2009-10-04T09:19:40Z</time>
      </trkpt>
      <trkpt lat="45.6238480" lon="7.5920530">
        <ele>1883.4380000</ele>
        <time>2009-10-04T09:19:47Z</time>
      </trkpt>
      <trkpt lat="45.6237870" lon="7.5919760">
        <ele>1884.3830000</ele>
        <time>2009-10-04T09:19:55Z</time>
      </trkpt>
      <trkpt lat="45.6237310" lon="7.5918880">
        <ele>1884.8970000</ele>
        <time>2009-10-04T09:20:03Z</time>
      </trkpt>
      <trkpt lat="45.6236450" lon="7.5917820">
        <ele>1886.1240000</ele>
        <time>2009-10-04T09:20:13Z</time>
      </trkpt>
      <trkpt lat="45.6235450" lon="7.5916720">
        <ele>1886.6500000</ele>
        <time>2009-10-04T09:20:22Z</time>
      </trkpt>
      <trkpt lat="45.6234560" lon="7.5916120">
        <ele>1887.1870000</ele>
        <time>2009-10-04T09:20:30Z</time>
      </trkpt>
      <trkpt lat="45.6233590" lon="7.5915010">
        <ele>1888.4650000</ele>
        <time>2009-10-04T09:20:39Z</time>
      </trkpt>
      <trkpt lat="45.6232950" lon="7.5914060">
        <ele>1889.2460000</ele>
        <time>2009-10-04T09:20:46Z</time>
      </trkpt>
      <trkpt lat="45.6232340" lon="7.5912920">
        <ele>1890.3800000</ele>
        <time>2009-10-04T09:20:54Z</time>
      </trkpt>
      <trkpt lat="45.6231840" lon="7.5911640">
        <ele>1891.3000000</ele>
        <time>2009-10-04T09:21:02Z</time>
      </trkpt>
      <trkpt lat="45.6231170" lon="7.5910690">
        <ele>1891.9350000</ele>
        <time>2009-10-04T09:21:10Z</time>
      </trkpt>
      <trkpt lat="45.6230490" lon="7.5909950">
        <ele>1893.2510000</ele>
        <time>2009-10-04T09:21:18Z</time>
      </trkpt>
      <trkpt lat="45.6229680" lon="7.5909330">
        <ele>1894.1550000</ele>
        <time>2009-10-04T09:21:26Z</time>
      </trkpt>
      <trkpt lat="45.6229070" lon="7.5908670">
        <ele>1894.9480000</ele>
        <time>2009-10-04T09:21:34Z</time>
      </trkpt>
      <trkpt lat="45.6228260" lon="7.5908100">
        <ele>1896.0720000</ele>
        <time>2009-10-04T09:21:42Z</time>
      </trkpt>
      <trkpt lat="45.6227750" lon="7.5907600">
        <ele>1896.8740000</ele>
        <time>2009-10-04T09:21:48Z</time>
      </trkpt>
      <trkpt lat="45.6227060" lon="7.5907160">
        <ele>1897.2340000</ele>
        <time>2009-10-04T09:21:54Z</time>
      </trkpt>
      <trkpt lat="45.6226360" lon="7.5906640">
        <ele>1897.9160000</ele>
        <time>2009-10-04T09:22:00Z</time>
      </trkpt>
      <trkpt lat="45.6225590" lon="7.5906300">
        <ele>1899.0620000</ele>
        <time>2009-10-04T09:22:06Z</time>
      </trkpt>
      <trkpt lat="45.6224450" lon="7.5905760">
        <ele>1899.6410000</ele>
        <time>2009-10-04T09:22:14Z</time>
      </trkpt>
      <trkpt lat="45.6223330" lon="7.5905220">
        <ele>1900.3430000</ele>
        <time>2009-10-04T09:22:23Z</time>
      </trkpt>
      <trkpt lat="45.6222970" lon="7.5905020">
        <ele>1900.4700000</ele>
        <time>2009-10-04T09:22:26Z</time>
      </trkpt>
      <trkpt lat="45.6221880" lon="7.5904660">
        <ele>1901.1150000</ele>
        <time>2009-10-04T09:22:35Z</time>
      </trkpt>
      <trkpt lat="45.6220840" lon="7.5904510">
        <ele>1902.0480000</ele>
        <time>2009-10-04T09:22:42Z</time>
      </trkpt>
      <trkpt lat="45.6219820" lon="7.5904290">
        <ele>1902.5930000</ele>
        <time>2009-10-04T09:22:50Z</time>
      </trkpt>
      <trkpt lat="45.6218960" lon="7.5903750">
        <ele>1903.3270000</ele>
        <time>2009-10-04T09:22:56Z</time>
      </trkpt>
      <trkpt lat="45.6218210" lon="7.5902670">
        <ele>1904.1400000</ele>
        <time>2009-10-04T09:23:04Z</time>
      </trkpt>
      <trkpt lat="45.6217020" lon="7.5901400">
        <ele>1904.6590000</ele>
        <time>2009-10-04T09:23:12Z</time>
      </trkpt>
      <trkpt lat="45.6215890" lon="7.5900350">
        <ele>1905.5280000</ele>
        <time>2009-10-04T09:23:20Z</time>
      </trkpt>
      <trkpt lat="45.6215100" lon="7.5899740">
        <ele>1905.9200000</ele>
        <time>2009-10-04T09:23:26Z</time>
      </trkpt>
      <trkpt lat="45.6213800" lon="7.5898920">
        <ele>1906.8780000</ele>
        <time>2009-10-04T09:23:34Z</time>
      </trkpt>
      <trkpt lat="45.6212550" lon="7.5898360">
        <ele>1907.3880000</ele>
        <time>2009-10-04T09:23:41Z</time>
      </trkpt>
      <trkpt lat="45.6210720" lon="7.5897030">
        <ele>1907.7610000</ele>
        <time>2009-10-04T09:23:51Z</time>
      </trkpt>
      <trkpt lat="45.6209480" lon="7.5895400">
        <ele>1907.6430000</ele>
        <time>2009-10-04T09:23:58Z</time>
      </trkpt>
      <trkpt lat="45.6208060" lon="7.5892800">
        <ele>1907.2250000</ele>
        <time>2009-10-04T09:24:07Z</time>
      </trkpt>
      <trkpt lat="45.6206690" lon="7.5890050">
        <ele>1906.9030000</ele>
        <time>2009-10-04T09:24:14Z</time>
      </trkpt>
      <trkpt lat="45.6205260" lon="7.5887420">
        <ele>1906.7270000</ele>
        <time>2009-10-04T09:24:21Z</time>
      </trkpt>
      <trkpt lat="45.6203310" lon="7.5884000">
        <ele>1906.3020000</ele>
        <time>2009-10-04T09:24:30Z</time>
      </trkpt>
      <trkpt lat="45.6201360" lon="7.5880050">
        <ele>1905.5350000</ele>
        <time>2009-10-04T09:24:39Z</time>
      </trkpt>
      <trkpt lat="45.6200780" lon="7.5877140">
        <ele>1905.7810000</ele>
        <time>2009-10-04T09:24:45Z</time>
      </trkpt>
      <trkpt lat="45.6200450" lon="7.5873800">
        <ele>1905.9920000</ele>
        <time>2009-10-04T09:24:53Z</time>
      </trkpt>
      <trkpt lat="45.6200090" lon="7.5870010">
        <ele>1906.2230000</ele>
        <time>2009-10-04T09:25:02Z</time>
      </trkpt>
      <trkpt lat="45.6200100" lon="7.5867560">
        <ele>1907.3190000</ele>
        <time>2009-10-04T09:25:09Z</time>
      </trkpt>
      <trkpt lat="45.6200150" lon="7.5865910">
        <ele>1907.5340000</ele>
        <time>2009-10-04T09:25:15Z</time>
      </trkpt>
      <trkpt lat="45.6200290" lon="7.5863920">
        <ele>1908.0920000</ele>
        <time>2009-10-04T09:25:23Z</time>
      </trkpt>
      <trkpt lat="45.6200220" lon="7.5862460">
        <ele>1908.9640000</ele>
        <time>2009-10-04T09:25:29Z</time>
      </trkpt>
      <trkpt lat="45.6200000" lon="7.5860430">
        <ele>1910.6830000</ele>
        <time>2009-10-04T09:25:38Z</time>
      </trkpt>
      <trkpt lat="45.6200140" lon="7.5858940">
        <ele>1911.0310000</ele>
        <time>2009-10-04T09:25:45Z</time>
      </trkpt>
      <trkpt lat="45.6200580" lon="7.5857770">
        <ele>1912.3120000</ele>
        <time>2009-10-04T09:25:52Z</time>
      </trkpt>
      <trkpt lat="45.6200830" lon="7.5857280">
        <ele>1912.2930000</ele>
        <time>2009-10-04T09:25:55Z</time>
      </trkpt>
      <trkpt lat="45.6201240" lon="7.5855780">
        <ele>1912.9560000</ele>
        <time>2009-10-04T09:26:03Z</time>
      </trkpt>
      <trkpt lat="45.6201260" lon="7.5855570">
        <ele>1913.1270000</ele>
        <time>2009-10-04T09:26:04Z</time>
      </trkpt>
      <trkpt lat="45.6201340" lon="7.5853300">
        <ele>1914.3770000</ele>
        <time>2009-10-04T09:26:15Z</time>
      </trkpt>
      <trkpt lat="45.6201390" lon="7.5852660">
        <ele>1914.7060000</ele>
        <time>2009-10-04T09:26:18Z</time>
      </trkpt>
      <trkpt lat="45.6200900" lon="7.5850840">
        <ele>1915.9400000</ele>
        <time>2009-10-04T09:26:27Z</time>
      </trkpt>
      <trkpt lat="45.6200330" lon="7.5849040">
        <ele>1917.0690000</ele>
        <time>2009-10-04T09:26:36Z</time>
      </trkpt>
      <trkpt lat="45.6200020" lon="7.5847390">
        <ele>1918.6750000</ele>
        <time>2009-10-04T09:26:44Z</time>
      </trkpt>
      <trkpt lat="45.6200180" lon="7.5845510">
        <ele>1919.3550000</ele>
        <time>2009-10-04T09:26:53Z</time>
      </trkpt>
      <trkpt lat="45.6200450" lon="7.5844740">
        <ele>1919.6530000</ele>
        <time>2009-10-04T09:26:57Z</time>
      </trkpt>
      <trkpt lat="45.6201020" lon="7.5843170">
        <ele>1920.1370000</ele>
        <time>2009-10-04T09:27:05Z</time>
      </trkpt>
      <trkpt lat="45.6201010" lon="7.5842940">
        <ele>1920.1360000</ele>
        <time>2009-10-04T09:27:06Z</time>
      </trkpt>
      <trkpt lat="45.6201060" lon="7.5842140">
        <ele>1920.6700000</ele>
        <time>2009-10-04T09:27:10Z</time>
      </trkpt>
      <trkpt lat="45.6201470" lon="7.5839700">
        <ele>1920.9730000</ele>
        <time>2009-10-04T09:27:19Z</time>
      </trkpt>
      <trkpt lat="45.6201490" lon="7.5837730">
        <ele>1921.5950000</ele>
        <time>2009-10-04T09:27:26Z</time>
      </trkpt>
      <trkpt lat="45.6201330" lon="7.5835610">
        <ele>1922.1420000</ele>
        <time>2009-10-04T09:27:34Z</time>
      </trkpt>
      <trkpt lat="45.6201510" lon="7.5833550">
        <ele>1922.6210000</ele>
        <time>2009-10-04T09:27:42Z</time>
      </trkpt>
      <trkpt lat="45.6202050" lon="7.5831270">
        <ele>1923.3070000</ele>
        <time>2009-10-04T09:27:51Z</time>
      </trkpt>
      <trkpt lat="45.6202110" lon="7.5829420">
        <ele>1924.0730000</ele>
        <time>2009-10-04T09:27:58Z</time>
      </trkpt>
      <trkpt lat="45.6202080" lon="7.5827290">
        <ele>1925.2710000</ele>
        <time>2009-10-04T09:28:06Z</time>
      </trkpt>
      <trkpt lat="45.6202100" lon="7.5825590">
        <ele>1926.4430000</ele>
        <time>2009-10-04T09:28:13Z</time>
      </trkpt>
      <trkpt lat="45.6201940" lon="7.5823040">
        <ele>1927.3080000</ele>
        <time>2009-10-04T09:28:23Z</time>
      </trkpt>
      <trkpt lat="45.6201110" lon="7.5820990">
        <ele>1927.7460000</ele>
        <time>2009-10-04T09:28:32Z</time>
      </trkpt>
      <trkpt lat="45.6200170" lon="7.5819240">
        <ele>1927.7900000</ele>
        <time>2009-10-04T09:28:40Z</time>
      </trkpt>
      <trkpt lat="45.6199160" lon="7.5817230">
        <ele>1928.1580000</ele>
        <time>2009-10-04T09:28:49Z</time>
      </trkpt>
      <trkpt lat="45.6197540" lon="7.5815570">
        <ele>1928.6180000</ele>
        <time>2009-10-04T09:28:58Z</time>
      </trkpt>
      <trkpt lat="45.6195860" lon="7.5813920">
        <ele>1929.8300000</ele>
        <time>2009-10-04T09:29:08Z</time>
      </trkpt>
      <trkpt lat="45.6194510" lon="7.5812160">
        <ele>1930.7370000</ele>
        <time>2009-10-04T09:29:18Z</time>
      </trkpt>
      <trkpt lat="45.6193280" lon="7.5810050">
        <ele>1931.7250000</ele>
        <time>2009-10-04T09:29:28Z</time>
      </trkpt>
      <trkpt lat="45.6192340" lon="7.5807960">
        <ele>1932.8670000</ele>
        <time>2009-10-04T09:29:37Z</time>
      </trkpt>
      <trkpt lat="45.6191550" lon="7.5805680">
        <ele>1933.6820000</ele>
        <time>2009-10-04T09:29:47Z</time>
      </trkpt>
      <trkpt lat="45.6190540" lon="7.5804290">
        <ele>1934.6100000</ele>
        <time>2009-10-04T09:29:55Z</time>
      </trkpt>
      <trkpt lat="45.6189390" lon="7.5802650">
        <ele>1936.1610000</ele>
        <time>2009-10-04T09:30:05Z</time>
      </trkpt>
      <trkpt lat="45.6189170" lon="7.5801990">
        <ele>1936.5990000</ele>
        <time>2009-10-04T09:30:11Z</time>
      </trkpt>
      <trkpt lat="45.6189010" lon="7.5801010">
        <ele>1937.8700000</ele>
        <time>2009-10-04T09:30:20Z</time>
      </trkpt>
      <trkpt lat="45.6188780" lon="7.5799670">
        <ele>1938.5110000</ele>
        <time>2009-10-04T09:30:31Z</time>
      </trkpt>
      <trkpt lat="45.6188700" lon="7.5799530">
        <ele>1938.5960000</ele>
        <time>2009-10-04T09:30:39Z</time>
      </trkpt>
      <trkpt lat="45.6188890" lon="7.5799090">
        <ele>1939.1850000</ele>
        <time>2009-10-04T09:32:15Z</time>
      </trkpt>
      <trkpt lat="45.6188490" lon="7.5798330">
        <ele>1939.7830000</ele>
        <time>2009-10-04T09:32:57Z</time>
      </trkpt>
      <trkpt lat="45.6188480" lon="7.5797420">
        <ele>1941.0100000</ele>
        <time>2009-10-04T09:33:06Z</time>
      </trkpt>
      <trkpt lat="45.6188410" lon="7.5796650">
        <ele>1941.2180000</ele>
        <time>2009-10-04T09:33:22Z</time>
      </trkpt>
      <trkpt lat="45.6188220" lon="7.5795690">
        <ele>1942.3570000</ele>
        <time>2009-10-04T09:33:30Z</time>
      </trkpt>
      <trkpt lat="45.6188630" lon="7.5794470">
        <ele>1943.2240000</ele>
        <time>2009-10-04T09:33:58Z</time>
      </trkpt>
      <trkpt lat="45.6187940" lon="7.5793780">
        <ele>1944.1850000</ele>
        <time>2009-10-04T09:34:06Z</time>
      </trkpt>
      <trkpt lat="45.6187310" lon="7.5793170">
        <ele>1945.5400000</ele>
        <time>2009-10-04T09:34:14Z</time>
      </trkpt>
      <trkpt lat="45.6186770" lon="7.5792100">
        <ele>1946.6080000</ele>
        <time>2009-10-04T09:34:24Z</time>
      </trkpt>
      <trkpt lat="45.6186550" lon="7.5791160">
        <ele>1947.3770000</ele>
        <time>2009-10-04T09:34:31Z</time>
      </trkpt>
      <trkpt lat="45.6186680" lon="7.5790050">
        <ele>1947.5640000</ele>
        <time>2009-10-04T09:34:38Z</time>
      </trkpt>
      <trkpt lat="45.6186200" lon="7.5788630">
        <ele>1948.2250000</ele>
        <time>2009-10-04T09:34:45Z</time>
      </trkpt>
      <trkpt lat="45.6185060" lon="7.5787270">
        <ele>1949.4260000</ele>
        <time>2009-10-04T09:34:54Z</time>
      </trkpt>
      <trkpt lat="45.6184000" lon="7.5785330">
        <ele>1949.4870000</ele>
        <time>2009-10-04T09:35:04Z</time>
      </trkpt>
      <trkpt lat="45.6183470" lon="7.5784280">
        <ele>1950.3860000</ele>
        <time>2009-10-04T09:35:10Z</time>
      </trkpt>
      <trkpt lat="45.6182720" lon="7.5783210">
        <ele>1951.8970000</ele>
        <time>2009-10-04T09:35:18Z</time>
      </trkpt>
      <trkpt lat="45.6182140" lon="7.5782170">
        <ele>1952.5890000</ele>
        <time>2009-10-04T09:35:26Z</time>
      </trkpt>
      <trkpt lat="45.6181620" lon="7.5781100">
        <ele>1953.9370000</ele>
        <time>2009-10-04T09:35:34Z</time>
      </trkpt>
      <trkpt lat="45.6180850" lon="7.5779690">
        <ele>1955.2450000</ele>
        <time>2009-10-04T09:35:45Z</time>
      </trkpt>
      <trkpt lat="45.6179830" lon="7.5778340">
        <ele>1956.6290000</ele>
        <time>2009-10-04T09:35:56Z</time>
      </trkpt>
      <trkpt lat="45.6179070" lon="7.5777230">
        <ele>1957.6370000</ele>
        <time>2009-10-04T09:36:05Z</time>
      </trkpt>
      <trkpt lat="45.6178450" lon="7.5775880">
        <ele>1958.7430000</ele>
        <time>2009-10-04T09:36:15Z</time>
      </trkpt>
      <trkpt lat="45.6178210" lon="7.5775100">
        <ele>1959.1610000</ele>
        <time>2009-10-04T09:36:20Z</time>
      </trkpt>
      <trkpt lat="45.6177950" lon="7.5773580">
        <ele>1959.7280000</ele>
        <time>2009-10-04T09:36:29Z</time>
      </trkpt>
      <trkpt lat="45.6178080" lon="7.5771850">
        <ele>1960.6290000</ele>
        <time>2009-10-04T09:36:38Z</time>
      </trkpt>
      <trkpt lat="45.6178250" lon="7.5771090">
        <ele>1960.9510000</ele>
        <time>2009-10-04T09:36:42Z</time>
      </trkpt>
      <trkpt lat="45.6178370" lon="7.5770230">
        <ele>1961.2750000</ele>
        <time>2009-10-04T09:36:47Z</time>
      </trkpt>
      <trkpt lat="45.6178480" lon="7.5769850">
        <ele>1961.3360000</ele>
        <time>2009-10-04T09:36:49Z</time>
      </trkpt>
      <trkpt lat="45.6178370" lon="7.5768050">
        <ele>1962.1450000</ele>
        <time>2009-10-04T09:36:59Z</time>
      </trkpt>
      <trkpt lat="45.6177880" lon="7.5766580">
        <ele>1962.1620000</ele>
        <time>2009-10-04T09:37:07Z</time>
      </trkpt>
      <trkpt lat="45.6177280" lon="7.5765010">
        <ele>1963.2730000</ele>
        <time>2009-10-04T09:37:16Z</time>
      </trkpt>
      <trkpt lat="45.6176810" lon="7.5763340">
        <ele>1964.7180000</ele>
        <time>2009-10-04T09:37:26Z</time>
      </trkpt>
      <trkpt lat="45.6176430" lon="7.5761810">
        <ele>1966.3840000</ele>
        <time>2009-10-04T09:37:36Z</time>
      </trkpt>
      <trkpt lat="45.6175920" lon="7.5760700">
        <ele>1967.9270000</ele>
        <time>2009-10-04T09:37:44Z</time>
      </trkpt>
      <trkpt lat="45.6175450" lon="7.5759430">
        <ele>1969.1100000</ele>
        <time>2009-10-04T09:37:53Z</time>
      </trkpt>
      <trkpt lat="45.6174710" lon="7.5757930">
        <ele>1971.3000000</ele>
        <time>2009-10-04T09:38:04Z</time>
      </trkpt>
      <trkpt lat="45.6174190" lon="7.5756460">
        <ele>1973.2640000</ele>
        <time>2009-10-04T09:38:14Z</time>
      </trkpt>
      <trkpt lat="45.6173950" lon="7.5755040">
        <ele>1974.4960000</ele>
        <time>2009-10-04T09:38:23Z</time>
      </trkpt>
      <trkpt lat="45.6173490" lon="7.5753660">
        <ele>1975.9620000</ele>
        <time>2009-10-04T09:38:32Z</time>
      </trkpt>
      <trkpt lat="45.6172940" lon="7.5752330">
        <ele>1977.6370000</ele>
        <time>2009-10-04T09:38:42Z</time>
      </trkpt>
      <trkpt lat="45.6172340" lon="7.5751090">
        <ele>1979.4100000</ele>
        <time>2009-10-04T09:38:51Z</time>
      </trkpt>
      <trkpt lat="45.6172140" lon="7.5749910">
        <ele>1980.4400000</ele>
        <time>2009-10-04T09:38:59Z</time>
      </trkpt>
      <trkpt lat="45.6171830" lon="7.5748620">
        <ele>1981.9910000</ele>
        <time>2009-10-04T09:39:08Z</time>
      </trkpt>
      <trkpt lat="45.6171690" lon="7.5747770">
        <ele>1983.1020000</ele>
        <time>2009-10-04T09:39:14Z</time>
      </trkpt>
      <trkpt lat="45.6171480" lon="7.5746260">
        <ele>1984.3650000</ele>
        <time>2009-10-04T09:39:24Z</time>
      </trkpt>
      <trkpt lat="45.6171230" lon="7.5744690">
        <ele>1986.5000000</ele>
        <time>2009-10-04T09:39:34Z</time>
      </trkpt>
      <trkpt lat="45.6171030" lon="7.5743820">
        <ele>1987.6070000</ele>
        <time>2009-10-04T09:39:40Z</time>
      </trkpt>
      <trkpt lat="45.6170600" lon="7.5742440">
        <ele>1988.7670000</ele>
        <time>2009-10-04T09:39:50Z</time>
      </trkpt>
      <trkpt lat="45.6170500" lon="7.5741060">
        <ele>1990.3650000</ele>
        <time>2009-10-04T09:40:00Z</time>
      </trkpt>
      <trkpt lat="45.6170430" lon="7.5739690">
        <ele>1991.3940000</ele>
        <time>2009-10-04T09:40:10Z</time>
      </trkpt>
      <trkpt lat="45.6170230" lon="7.5738360">
        <ele>1992.5170000</ele>
        <time>2009-10-04T09:40:19Z</time>
      </trkpt>
      <trkpt lat="45.6170090" lon="7.5736740">
        <ele>1993.7770000</ele>
        <time>2009-10-04T09:40:29Z</time>
      </trkpt>
      <trkpt lat="45.6170070" lon="7.5736570">
        <ele>1993.8910000</ele>
        <time>2009-10-04T09:40:30Z</time>
      </trkpt>
      <trkpt lat="45.6170320" lon="7.5734780">
        <ele>1995.0610000</ele>
        <time>2009-10-04T09:40:41Z</time>
      </trkpt>
      <trkpt lat="45.6170270" lon="7.5733520">
        <ele>1995.8790000</ele>
        <time>2009-10-04T09:40:49Z</time>
      </trkpt>
      <trkpt lat="45.6170280" lon="7.5732030">
        <ele>1996.9950000</ele>
        <time>2009-10-04T09:40:58Z</time>
      </trkpt>
      <trkpt lat="45.6170410" lon="7.5730400">
        <ele>1998.1900000</ele>
        <time>2009-10-04T09:41:08Z</time>
      </trkpt>
      <trkpt lat="45.6170540" lon="7.5728730">
        <ele>1999.7890000</ele>
        <time>2009-10-04T09:41:18Z</time>
      </trkpt>
      <trkpt lat="45.6170570" lon="7.5727360">
        <ele>2000.5370000</ele>
        <time>2009-10-04T09:41:26Z</time>
      </trkpt>
      <trkpt lat="45.6170660" lon="7.5725450">
        <ele>2001.5600000</ele>
        <time>2009-10-04T09:41:37Z</time>
      </trkpt>
      <trkpt lat="45.6170710" lon="7.5723870">
        <ele>2002.5870000</ele>
        <time>2009-10-04T09:41:46Z</time>
      </trkpt>
      <trkpt lat="45.6170590" lon="7.5722690">
        <ele>2003.6770000</ele>
        <time>2009-10-04T09:41:53Z</time>
      </trkpt>
      <trkpt lat="45.6170260" lon="7.5721020">
        <ele>2004.5200000</ele>
        <time>2009-10-04T09:42:03Z</time>
      </trkpt>
      <trkpt lat="45.6170000" lon="7.5719300">
        <ele>2005.8020000</ele>
        <time>2009-10-04T09:42:13Z</time>
      </trkpt>
      <trkpt lat="45.6169790" lon="7.5717990">
        <ele>2006.2350000</ele>
        <time>2009-10-04T09:42:21Z</time>
      </trkpt>
      <trkpt lat="45.6169810" lon="7.5716800">
        <ele>2006.5950000</ele>
        <time>2009-10-04T09:42:28Z</time>
      </trkpt>
      <trkpt lat="45.6170060" lon="7.5715380">
        <ele>2008.2100000</ele>
        <time>2009-10-04T09:42:37Z</time>
      </trkpt>
      <trkpt lat="45.6170320" lon="7.5714150">
        <ele>2009.2230000</ele>
        <time>2009-10-04T09:42:45Z</time>
      </trkpt>
      <trkpt lat="45.6170690" lon="7.5713280">
        <ele>2009.6720000</ele>
        <time>2009-10-04T09:42:51Z</time>
      </trkpt>
      <trkpt lat="45.6171000" lon="7.5711400">
        <ele>2010.7620000</ele>
        <time>2009-10-04T09:43:02Z</time>
      </trkpt>
      <trkpt lat="45.6171210" lon="7.5709760">
        <ele>2011.8220000</ele>
        <time>2009-10-04T09:43:12Z</time>
      </trkpt>
      <trkpt lat="45.6171450" lon="7.5708630">
        <ele>2012.8890000</ele>
        <time>2009-10-04T09:43:19Z</time>
      </trkpt>
      <trkpt lat="45.6171520" lon="7.5707140">
        <ele>2013.7570000</ele>
        <time>2009-10-04T09:43:28Z</time>
      </trkpt>
      <trkpt lat="45.6171650" lon="7.5705690">
        <ele>2015.2620000</ele>
        <time>2009-10-04T09:43:37Z</time>
      </trkpt>
      <trkpt lat="45.6171910" lon="7.5704090">
        <ele>2015.6880000</ele>
        <time>2009-10-04T09:43:47Z</time>
      </trkpt>
      <trkpt lat="45.6172260" lon="7.5702760">
        <ele>2015.7020000</ele>
        <time>2009-10-04T09:43:56Z</time>
      </trkpt>
      <trkpt lat="45.6172360" lon="7.5702290">
        <ele>2017.7870000</ele>
        <time>2009-10-04T09:43:59Z</time>
      </trkpt>
      <trkpt lat="45.6172660" lon="7.5700840">
        <ele>2019.2510000</ele>
        <time>2009-10-04T09:44:08Z</time>
      </trkpt>
      <trkpt lat="45.6172980" lon="7.5699840">
        <ele>2020.3100000</ele>
        <time>2009-10-04T09:44:15Z</time>
      </trkpt>
      <trkpt lat="45.6173010" lon="7.5699190">
        <ele>2021.2160000</ele>
        <time>2009-10-04T09:44:22Z</time>
      </trkpt>
      <trkpt lat="45.6173220" lon="7.5698330">
        <ele>2021.6340000</ele>
        <time>2009-10-04T09:44:30Z</time>
      </trkpt>
      <trkpt lat="45.6173490" lon="7.5697090">
        <ele>2022.9810000</ele>
        <time>2009-10-04T09:44:40Z</time>
      </trkpt>
      <trkpt lat="45.6173730" lon="7.5695990">
        <ele>2023.5320000</ele>
        <time>2009-10-04T09:44:49Z</time>
      </trkpt>
      <trkpt lat="45.6174020" lon="7.5694480">
        <ele>2024.9470000</ele>
        <time>2009-10-04T09:45:01Z</time>
      </trkpt>
      <trkpt lat="45.6174250" lon="7.5693230">
        <ele>2025.4890000</ele>
        <time>2009-10-04T09:45:10Z</time>
      </trkpt>
      <trkpt lat="45.6174360" lon="7.5692070">
        <ele>2026.3580000</ele>
        <time>2009-10-04T09:45:19Z</time>
      </trkpt>
      <trkpt lat="45.6174410" lon="7.5690900">
        <ele>2027.6580000</ele>
        <time>2009-10-04T09:45:28Z</time>
      </trkpt>
      <trkpt lat="45.6174450" lon="7.5689630">
        <ele>2028.9750000</ele>
        <time>2009-10-04T09:45:38Z</time>
      </trkpt>
      <trkpt lat="45.6174460" lon="7.5687950">
        <ele>2030.3150000</ele>
        <time>2009-10-04T09:45:50Z</time>
      </trkpt>
      <trkpt lat="45.6174600" lon="7.5686460">
        <ele>2031.7860000</ele>
        <time>2009-10-04T09:46:01Z</time>
      </trkpt>
      <trkpt lat="45.6174720" lon="7.5684890">
        <ele>2033.0010000</ele>
        <time>2009-10-04T09:46:12Z</time>
      </trkpt>
      <trkpt lat="45.6174610" lon="7.5683030">
        <ele>2034.1840000</ele>
        <time>2009-10-04T09:46:25Z</time>
      </trkpt>
      <trkpt lat="45.6174490" lon="7.5681620">
        <ele>2035.0430000</ele>
        <time>2009-10-04T09:46:35Z</time>
      </trkpt>
      <trkpt lat="45.6174580" lon="7.5680030">
        <ele>2035.6510000</ele>
        <time>2009-10-04T09:46:46Z</time>
      </trkpt>
      <trkpt lat="45.6175000" lon="7.5678570">
        <ele>2036.1630000</ele>
        <time>2009-10-04T09:46:56Z</time>
      </trkpt>
      <trkpt lat="45.6175470" lon="7.5677110">
        <ele>2036.7170000</ele>
        <time>2009-10-04T09:47:07Z</time>
      </trkpt>
      <trkpt lat="45.6175790" lon="7.5675770">
        <ele>2037.5570000</ele>
        <time>2009-10-04T09:47:17Z</time>
      </trkpt>
      <trkpt lat="45.6176010" lon="7.5674610">
        <ele>2038.4210000</ele>
        <time>2009-10-04T09:47:26Z</time>
      </trkpt>
      <trkpt lat="45.6176290" lon="7.5672940">
        <ele>2039.8730000</ele>
        <time>2009-10-04T09:47:39Z</time>
      </trkpt>
      <trkpt lat="45.6176430" lon="7.5671540">
        <ele>2040.9190000</ele>
        <time>2009-10-04T09:47:49Z</time>
      </trkpt>
      <trkpt lat="45.6176390" lon="7.5669820">
        <ele>2041.4560000</ele>
        <time>2009-10-04T09:48:01Z</time>
      </trkpt>
      <trkpt lat="45.6176250" lon="7.5668300">
        <ele>2042.6830000</ele>
        <time>2009-10-04T09:48:12Z</time>
      </trkpt>
      <trkpt lat="45.6175860" lon="7.5666440">
        <ele>2044.2070000</ele>
        <time>2009-10-04T09:48:25Z</time>
      </trkpt>
      <trkpt lat="45.6175400" lon="7.5664990">
        <ele>2045.0800000</ele>
        <time>2009-10-04T09:48:36Z</time>
      </trkpt>
      <trkpt lat="45.6174890" lon="7.5663780">
        <ele>2046.0630000</ele>
        <time>2009-10-04T09:48:46Z</time>
      </trkpt>
      <trkpt lat="45.6174640" lon="7.5662830">
        <ele>2046.7710000</ele>
        <time>2009-10-04T09:48:55Z</time>
      </trkpt>
      <trkpt lat="45.6174390" lon="7.5661460">
        <ele>2047.9610000</ele>
        <time>2009-10-04T09:49:06Z</time>
      </trkpt>
      <trkpt lat="45.6174290" lon="7.5660140">
        <ele>2048.6040000</ele>
        <time>2009-10-04T09:49:16Z</time>
      </trkpt>
      <trkpt lat="45.6174410" lon="7.5658560">
        <ele>2049.4880000</ele>
        <time>2009-10-04T09:49:28Z</time>
      </trkpt>
      <trkpt lat="45.6174750" lon="7.5657280">
        <ele>2050.5470000</ele>
        <time>2009-10-04T09:49:39Z</time>
      </trkpt>
      <trkpt lat="45.6175220" lon="7.5656090">
        <ele>2051.3870000</ele>
        <time>2009-10-04T09:49:49Z</time>
      </trkpt>
      <trkpt lat="45.6175690" lon="7.5654780">
        <ele>2052.7130000</ele>
        <time>2009-10-04T09:50:00Z</time>
      </trkpt>
      <trkpt lat="45.6176090" lon="7.5653560">
        <ele>2053.8120000</ele>
        <time>2009-10-04T09:50:10Z</time>
      </trkpt>
      <trkpt lat="45.6176480" lon="7.5652320">
        <ele>2054.6470000</ele>
        <time>2009-10-04T09:50:20Z</time>
      </trkpt>
      <trkpt lat="45.6176780" lon="7.5650990">
        <ele>2055.7340000</ele>
        <time>2009-10-04T09:50:31Z</time>
      </trkpt>
      <trkpt lat="45.6176970" lon="7.5649570">
        <ele>2056.6260000</ele>
        <time>2009-10-04T09:50:42Z</time>
      </trkpt>
      <trkpt lat="45.6177170" lon="7.5648190">
        <ele>2057.2750000</ele>
        <time>2009-10-04T09:50:53Z</time>
      </trkpt>
      <trkpt lat="45.6177410" lon="7.5646670">
        <ele>2058.3960000</ele>
        <time>2009-10-04T09:51:05Z</time>
      </trkpt>
      <trkpt lat="45.6177770" lon="7.5644990">
        <ele>2059.6060000</ele>
        <time>2009-10-04T09:51:18Z</time>
      </trkpt>
      <trkpt lat="45.6178130" lon="7.5643500">
        <ele>2061.0900000</ele>
        <time>2009-10-04T09:51:30Z</time>
      </trkpt>
      <trkpt lat="45.6178390" lon="7.5642200">
        <ele>2061.5600000</ele>
        <time>2009-10-04T09:51:40Z</time>
      </trkpt>
      <trkpt lat="45.6178600" lon="7.5640500">
        <ele>2062.9630000</ele>
        <time>2009-10-04T09:51:53Z</time>
      </trkpt>
      <trkpt lat="45.6178710" lon="7.5639130">
        <ele>2064.2090000</ele>
        <time>2009-10-04T09:52:04Z</time>
      </trkpt>
      <trkpt lat="45.6178680" lon="7.5637900">
        <ele>2065.1890000</ele>
        <time>2009-10-04T09:52:13Z</time>
      </trkpt>
      <trkpt lat="45.6178860" lon="7.5636610">
        <ele>2066.4850000</ele>
        <time>2009-10-04T09:52:23Z</time>
      </trkpt>
      <trkpt lat="45.6179210" lon="7.5635320">
        <ele>2066.9710000</ele>
        <time>2009-10-04T09:52:33Z</time>
      </trkpt>
      <trkpt lat="45.6179530" lon="7.5633540">
        <ele>2067.9830000</ele>
        <time>2009-10-04T09:52:46Z</time>
      </trkpt>
      <trkpt lat="45.6179580" lon="7.5631960">
        <ele>2068.7210000</ele>
        <time>2009-10-04T09:52:57Z</time>
      </trkpt>
      <trkpt lat="45.6179630" lon="7.5630400">
        <ele>2069.1410000</ele>
        <time>2009-10-04T09:53:08Z</time>
      </trkpt>
      <trkpt lat="45.6179520" lon="7.5628760">
        <ele>2069.8130000</ele>
        <time>2009-10-04T09:53:19Z</time>
      </trkpt>
      <trkpt lat="45.6179410" lon="7.5627030">
        <ele>2070.3410000</ele>
        <time>2009-10-04T09:53:31Z</time>
      </trkpt>
      <trkpt lat="45.6179230" lon="7.5625330">
        <ele>2071.3040000</ele>
        <time>2009-10-04T09:53:43Z</time>
      </trkpt>
      <trkpt lat="45.6179250" lon="7.5623670">
        <ele>2072.8730000</ele>
        <time>2009-10-04T09:53:55Z</time>
      </trkpt>
      <trkpt lat="45.6179300" lon="7.5622280">
        <ele>2074.0690000</ele>
        <time>2009-10-04T09:54:06Z</time>
      </trkpt>
      <trkpt lat="45.6179100" lon="7.5620610">
        <ele>2074.4810000</ele>
        <time>2009-10-04T09:54:18Z</time>
      </trkpt>
      <trkpt lat="45.6178400" lon="7.5619520">
        <ele>2074.9110000</ele>
        <time>2009-10-04T09:54:28Z</time>
      </trkpt>
      <trkpt lat="45.6177550" lon="7.5618990">
        <ele>2075.4730000</ele>
        <time>2009-10-04T09:54:37Z</time>
      </trkpt>
      <trkpt lat="45.6176400" lon="7.5618660">
        <ele>2076.1810000</ele>
        <time>2009-10-04T09:54:48Z</time>
      </trkpt>
      <trkpt lat="45.6175390" lon="7.5617940">
        <ele>2077.2240000</ele>
        <time>2009-10-04T09:54:59Z</time>
      </trkpt>
      <trkpt lat="45.6174780" lon="7.5616930">
        <ele>2078.2880000</ele>
        <time>2009-10-04T09:55:09Z</time>
      </trkpt>
      <trkpt lat="45.6174410" lon="7.5615430">
        <ele>2078.7780000</ele>
        <time>2009-10-04T09:55:20Z</time>
      </trkpt>
      <trkpt lat="45.6174230" lon="7.5613720">
        <ele>2079.7110000</ele>
        <time>2009-10-04T09:55:32Z</time>
      </trkpt>
      <trkpt lat="45.6174180" lon="7.5612280">
        <ele>2079.9710000</ele>
        <time>2009-10-04T09:55:42Z</time>
      </trkpt>
      <trkpt lat="45.6174140" lon="7.5610810">
        <ele>2080.3600000</ele>
        <time>2009-10-04T09:55:52Z</time>
      </trkpt>
      <trkpt lat="45.6173660" lon="7.5609300">
        <ele>2081.8100000</ele>
        <time>2009-10-04T09:56:04Z</time>
      </trkpt>
      <trkpt lat="45.6173040" lon="7.5608480">
        <ele>2083.0940000</ele>
        <time>2009-10-04T09:56:13Z</time>
      </trkpt>
      <trkpt lat="45.6172150" lon="7.5607410">
        <ele>2085.0280000</ele>
        <time>2009-10-04T09:56:26Z</time>
      </trkpt>
      <trkpt lat="45.6171450" lon="7.5606580">
        <ele>2086.1870000</ele>
        <time>2009-10-04T09:56:36Z</time>
      </trkpt>
      <trkpt lat="45.6170750" lon="7.5605590">
        <ele>2087.5520000</ele>
        <time>2009-10-04T09:56:47Z</time>
      </trkpt>
      <trkpt lat="45.6170270" lon="7.5604550">
        <ele>2089.0460000</ele>
        <time>2009-10-04T09:56:57Z</time>
      </trkpt>
      <trkpt lat="45.6170040" lon="7.5603420">
        <ele>2090.5780000</ele>
        <time>2009-10-04T09:57:07Z</time>
      </trkpt>
      <trkpt lat="45.6169970" lon="7.5601910">
        <ele>2091.6720000</ele>
        <time>2009-10-04T09:57:19Z</time>
      </trkpt>
      <trkpt lat="45.6169990" lon="7.5600800">
        <ele>2092.5200000</ele>
        <time>2009-10-04T09:57:28Z</time>
      </trkpt>
      <trkpt lat="45.6170120" lon="7.5599320">
        <ele>2093.0610000</ele>
        <time>2009-10-04T09:57:39Z</time>
      </trkpt>
      <trkpt lat="45.6170260" lon="7.5597940">
        <ele>2093.7030000</ele>
        <time>2009-10-04T09:57:49Z</time>
      </trkpt>
      <trkpt lat="45.6170600" lon="7.5596290">
        <ele>2094.3500000</ele>
        <time>2009-10-04T09:58:01Z</time>
      </trkpt>
      <trkpt lat="45.6170910" lon="7.5594910">
        <ele>2095.0290000</ele>
        <time>2009-10-04T09:58:11Z</time>
      </trkpt>
      <trkpt lat="45.6171220" lon="7.5593550">
        <ele>2095.8180000</ele>
        <time>2009-10-04T09:58:21Z</time>
      </trkpt>
      <trkpt lat="45.6171380" lon="7.5591980">
        <ele>2096.8440000</ele>
        <time>2009-10-04T09:58:33Z</time>
      </trkpt>
      <trkpt lat="45.6171240" lon="7.5590640">
        <ele>2097.3860000</ele>
        <time>2009-10-04T09:58:43Z</time>
      </trkpt>
      <trkpt lat="45.6171080" lon="7.5589530">
        <ele>2098.0900000</ele>
        <time>2009-10-04T09:58:51Z</time>
      </trkpt>
      <trkpt lat="45.6170990" lon="7.5588240">
        <ele>2097.8710000</ele>
        <time>2009-10-04T09:58:58Z</time>
      </trkpt>
      <trkpt lat="45.6171050" lon="7.5586400">
        <ele>2098.3730000</ele>
        <time>2009-10-04T09:59:08Z</time>
      </trkpt>
      <trkpt lat="45.6171390" lon="7.5584180">
        <ele>2098.6920000</ele>
        <time>2009-10-04T09:59:20Z</time>
      </trkpt>
      <trkpt lat="45.6171550" lon="7.5582450">
        <ele>2098.9580000</ele>
        <time>2009-10-04T09:59:30Z</time>
      </trkpt>
      <trkpt lat="45.6171710" lon="7.5580570">
        <ele>2099.5640000</ele>
        <time>2009-10-04T09:59:41Z</time>
      </trkpt>
      <trkpt lat="45.6171970" lon="7.5579010">
        <ele>2101.9590000</ele>
        <time>2009-10-04T09:59:51Z</time>
      </trkpt>
      <trkpt lat="45.6172080" lon="7.5577630">
        <ele>2103.9530000</ele>
        <time>2009-10-04T10:00:00Z</time>
      </trkpt>
      <trkpt lat="45.6172070" lon="7.5576140">
        <ele>2105.7150000</ele>
        <time>2009-10-04T10:00:10Z</time>
      </trkpt>
      <trkpt lat="45.6172060" lon="7.5574510">
        <ele>2106.8290000</ele>
        <time>2009-10-04T10:00:20Z</time>
      </trkpt>
      <trkpt lat="45.6171510" lon="7.5572690">
        <ele>2106.6880000</ele>
        <time>2009-10-04T10:00:29Z</time>
      </trkpt>
      <trkpt lat="45.6170860" lon="7.5571460">
        <ele>2106.5280000</ele>
        <time>2009-10-04T10:00:36Z</time>
      </trkpt>
      <trkpt lat="45.6170330" lon="7.5569680">
        <ele>2106.4510000</ele>
        <time>2009-10-04T10:00:43Z</time>
      </trkpt>
      <trkpt lat="45.6169580" lon="7.5567320">
        <ele>2106.4970000</ele>
        <time>2009-10-04T10:00:53Z</time>
      </trkpt>
      <trkpt lat="45.6168630" lon="7.5565210">
        <ele>2106.4450000</ele>
        <time>2009-10-04T10:01:01Z</time>
      </trkpt>
      <trkpt lat="45.6167150" lon="7.5563190">
        <ele>2107.1150000</ele>
        <time>2009-10-04T10:01:10Z</time>
      </trkpt>
      <trkpt lat="45.6166160" lon="7.5561520">
        <ele>2109.2500000</ele>
        <time>2009-10-04T10:01:17Z</time>
      </trkpt>
      <trkpt lat="45.6165620" lon="7.5559990">
        <ele>2109.8180000</ele>
        <time>2009-10-04T10:01:24Z</time>
      </trkpt>
      <trkpt lat="45.6165260" lon="7.5558290">
        <ele>2109.4770000</ele>
        <time>2009-10-04T10:01:31Z</time>
      </trkpt>
      <trkpt lat="45.6165280" lon="7.5556620">
        <ele>2109.5190000</ele>
        <time>2009-10-04T10:01:36Z</time>
      </trkpt>
      <trkpt lat="45.6165250" lon="7.5556030">
        <ele>2109.8960000</ele>
        <time>2009-10-04T10:01:41Z</time>
      </trkpt>
      <trkpt lat="45.6165130" lon="7.5556030">
        <ele>2109.5950000</ele>
        <time>2009-10-04T10:02:23Z</time>
      </trkpt>
      <trkpt lat="45.6164500" lon="7.5554940">
        <ele>2107.6610000</ele>
        <time>2009-10-04T10:02:28Z</time>
      </trkpt>
      <trkpt lat="45.6164280" lon="7.5554020">
        <ele>2107.5840000</ele>
        <time>2009-10-04T10:02:33Z</time>
      </trkpt>
      <trkpt lat="45.6164390" lon="7.5554120">
        <ele>2107.3900000</ele>
        <time>2009-10-04T10:03:04Z</time>
      </trkpt>
      <trkpt lat="45.6164680" lon="7.5553390">
        <ele>2106.3200000</ele>
        <time>2009-10-04T10:03:08Z</time>
      </trkpt>
      <trkpt lat="45.6165820" lon="7.5551830">
        <ele>2104.4780000</ele>
        <time>2009-10-04T10:03:16Z</time>
      </trkpt>
      <trkpt lat="45.6166490" lon="7.5550630">
        <ele>2103.2180000</ele>
        <time>2009-10-04T10:03:21Z</time>
      </trkpt>
      <trkpt lat="45.6167020" lon="7.5548550">
        <ele>2101.6220000</ele>
        <time>2009-10-04T10:03:26Z</time>
      </trkpt>
      <trkpt lat="45.6167120" lon="7.5547990">
        <ele>2101.4260000</ele>
        <time>2009-10-04T10:03:27Z</time>
      </trkpt>
      <trkpt lat="45.6167240" lon="7.5545170">
        <ele>2099.4940000</ele>
        <time>2009-10-04T10:03:31Z</time>
      </trkpt>
      <trkpt lat="45.6166590" lon="7.5542770">
        <ele>2099.3510000</ele>
        <time>2009-10-04T10:03:35Z</time>
      </trkpt>
      <trkpt lat="45.6165440" lon="7.5541730">
        <ele>2100.1660000</ele>
        <time>2009-10-04T10:03:39Z</time>
      </trkpt>
      <trkpt lat="45.6165140" lon="7.5541310">
        <ele>2100.3320000</ele>
        <time>2009-10-04T10:03:41Z</time>
      </trkpt>
      <trkpt lat="45.6164350" lon="7.5539560">
        <ele>2101.8380000</ele>
        <time>2009-10-04T10:03:49Z</time>
      </trkpt>
      <trkpt lat="45.6163950" lon="7.5538700">
        <ele>2103.1510000</ele>
        <time>2009-10-04T10:03:54Z</time>
      </trkpt>
      <trkpt lat="45.6163260" lon="7.5538340">
        <ele>2104.3280000</ele>
        <time>2009-10-04T10:03:59Z</time>
      </trkpt>
      <trkpt lat="45.6162210" lon="7.5539550">
        <ele>2106.7270000</ele>
        <time>2009-10-04T10:04:09Z</time>
      </trkpt>
      <trkpt lat="45.6162100" lon="7.5539680">
        <ele>2106.8530000</ele>
        <time>2009-10-04T10:04:10Z</time>
      </trkpt>
      <trkpt lat="45.6161480" lon="7.5539140">
        <ele>2107.3990000</ele>
        <time>2009-10-04T10:04:16Z</time>
      </trkpt>
      <trkpt lat="45.6161490" lon="7.5538600">
        <ele>2107.8490000</ele>
        <time>2009-10-04T10:04:19Z</time>
      </trkpt>
      <trkpt lat="45.6161360" lon="7.5537380">
        <ele>2109.3530000</ele>
        <time>2009-10-04T10:04:28Z</time>
      </trkpt>
      <trkpt lat="45.6161050" lon="7.5537070">
        <ele>2109.9340000</ele>
        <time>2009-10-04T10:04:31Z</time>
      </trkpt>
      <trkpt lat="45.6160220" lon="7.5536240">
        <ele>2111.2520000</ele>
        <time>2009-10-04T10:04:40Z</time>
      </trkpt>
      <trkpt lat="45.6159380" lon="7.5535530">
        <ele>2111.6400000</ele>
        <time>2009-10-04T10:04:48Z</time>
      </trkpt>
      <trkpt lat="45.6158370" lon="7.5534280">
        <ele>2112.8910000</ele>
        <time>2009-10-04T10:04:59Z</time>
      </trkpt>
      <trkpt lat="45.6157740" lon="7.5533460">
        <ele>2114.1380000</ele>
        <time>2009-10-04T10:05:06Z</time>
      </trkpt>
      <trkpt lat="45.6156300" lon="7.5532240">
        <ele>2113.0840000</ele>
        <time>2009-10-04T10:05:15Z</time>
      </trkpt>
      <trkpt lat="45.6155100" lon="7.5530620">
        <ele>2110.7700000</ele>
        <time>2009-10-04T10:05:21Z</time>
      </trkpt>
      <trkpt lat="45.6154740" lon="7.5530420">
        <ele>2110.8200000</ele>
        <time>2009-10-04T10:05:22Z</time>
      </trkpt>
      <trkpt lat="45.6153390" lon="7.5530530">
        <ele>2107.9270000</ele>
        <time>2009-10-04T10:05:25Z</time>
      </trkpt>
      <trkpt lat="45.6152220" lon="7.5530820">
        <ele>2106.5870000</ele>
        <time>2009-10-04T10:05:27Z</time>
      </trkpt>
      <trkpt lat="45.6151320" lon="7.5531710">
        <ele>2107.7860000</ele>
        <time>2009-10-04T10:05:29Z</time>
      </trkpt>
      <trkpt lat="45.6150370" lon="7.5533460">
        <ele>2108.1300000</ele>
        <time>2009-10-04T10:05:34Z</time>
      </trkpt>
      <trkpt lat="45.6149340" lon="7.5534070">
        <ele>2108.3750000</ele>
        <time>2009-10-04T10:05:41Z</time>
      </trkpt>
      <trkpt lat="45.6148280" lon="7.5535030">
        <ele>2110.0640000</ele>
        <time>2009-10-04T10:05:49Z</time>
      </trkpt>
      <trkpt lat="45.6147920" lon="7.5536120">
        <ele>2110.5600000</ele>
        <time>2009-10-04T10:05:55Z</time>
      </trkpt>
      <trkpt lat="45.6147620" lon="7.5537580">
        <ele>2111.1870000</ele>
        <time>2009-10-04T10:06:02Z</time>
      </trkpt>
      <trkpt lat="45.6147290" lon="7.5539110">
        <ele>2112.7900000</ele>
        <time>2009-10-04T10:06:10Z</time>
      </trkpt>
      <trkpt lat="45.6147200" lon="7.5540650">
        <ele>2114.2640000</ele>
        <time>2009-10-04T10:06:19Z</time>
      </trkpt>
      <trkpt lat="45.6147220" lon="7.5540820">
        <ele>2114.5070000</ele>
        <time>2009-10-04T10:06:20Z</time>
      </trkpt>
      <trkpt lat="45.6147390" lon="7.5541820">
        <ele>2116.0410000</ele>
        <time>2009-10-04T10:06:26Z</time>
      </trkpt>
      <trkpt lat="45.6147180" lon="7.5543190">
        <ele>2117.4470000</ele>
        <time>2009-10-04T10:06:34Z</time>
      </trkpt>
      <trkpt lat="45.6146820" lon="7.5544700">
        <ele>2119.0090000</ele>
        <time>2009-10-04T10:06:44Z</time>
      </trkpt>
      <trkpt lat="45.6146600" lon="7.5546120">
        <ele>2120.6100000</ele>
        <time>2009-10-04T10:06:54Z</time>
      </trkpt>
      <trkpt lat="45.6146570" lon="7.5547380">
        <ele>2122.3040000</ele>
        <time>2009-10-04T10:07:03Z</time>
      </trkpt>
      <trkpt lat="45.6146700" lon="7.5547880">
        <ele>2122.7740000</ele>
        <time>2009-10-04T10:07:09Z</time>
      </trkpt>
      <trkpt lat="45.6146860" lon="7.5548950">
        <ele>2124.0660000</ele>
        <time>2009-10-04T10:07:19Z</time>
      </trkpt>
      <trkpt lat="45.6146880" lon="7.5550120">
        <ele>2125.1520000</ele>
        <time>2009-10-04T10:07:29Z</time>
      </trkpt>
      <trkpt lat="45.6146860" lon="7.5551380">
        <ele>2126.2370000</ele>
        <time>2009-10-04T10:07:40Z</time>
      </trkpt>
      <trkpt lat="45.6146910" lon="7.5552450">
        <ele>2127.5940000</ele>
        <time>2009-10-04T10:07:49Z</time>
      </trkpt>
      <trkpt lat="45.6147090" lon="7.5554070">
        <ele>2128.5300000</ele>
        <time>2009-10-04T10:08:02Z</time>
      </trkpt>
      <trkpt lat="45.6147120" lon="7.5555460">
        <ele>2129.4840000</ele>
        <time>2009-10-04T10:08:13Z</time>
      </trkpt>
      <trkpt lat="45.6146970" lon="7.5557040">
        <ele>2130.7230000</ele>
        <time>2009-10-04T10:08:25Z</time>
      </trkpt>
      <trkpt lat="45.6146920" lon="7.5557970">
        <ele>2131.7710000</ele>
        <time>2009-10-04T10:08:33Z</time>
      </trkpt>
      <trkpt lat="45.6146720" lon="7.5558840">
        <ele>2132.4570000</ele>
        <time>2009-10-04T10:08:41Z</time>
      </trkpt>
      <trkpt lat="45.6146590" lon="7.5558960">
        <ele>2133.2480000</ele>
        <time>2009-10-04T10:08:43Z</time>
      </trkpt>
      <trkpt lat="45.6145750" lon="7.5558620">
        <ele>2134.7450000</ele>
        <time>2009-10-04T10:08:53Z</time>
      </trkpt>
      <trkpt lat="45.6145510" lon="7.5557980">
        <ele>2135.1830000</ele>
        <time>2009-10-04T10:08:58Z</time>
      </trkpt>
      <trkpt lat="45.6144730" lon="7.5557070">
        <ele>2136.0890000</ele>
        <time>2009-10-04T10:09:08Z</time>
      </trkpt>
      <trkpt lat="45.6143840" lon="7.5557230">
        <ele>2136.1600000</ele>
        <time>2009-10-04T10:09:17Z</time>
      </trkpt>
      <trkpt lat="45.6143420" lon="7.5558330">
        <ele>2137.4090000</ele>
        <time>2009-10-04T10:09:26Z</time>
      </trkpt>
      <trkpt lat="45.6143240" lon="7.5559520">
        <ele>2138.8010000</ele>
        <time>2009-10-04T10:09:35Z</time>
      </trkpt>
      <trkpt lat="45.6142850" lon="7.5560690">
        <ele>2140.2470000</ele>
        <time>2009-10-04T10:09:45Z</time>
      </trkpt>
      <trkpt lat="45.6141900" lon="7.5561280">
        <ele>2141.3440000</ele>
        <time>2009-10-04T10:09:56Z</time>
      </trkpt>
      <trkpt lat="45.6141010" lon="7.5560890">
        <ele>2141.4870000</ele>
        <time>2009-10-04T10:10:05Z</time>
      </trkpt>
      <trkpt lat="45.6140020" lon="7.5560200">
        <ele>2141.6000000</ele>
        <time>2009-10-04T10:10:16Z</time>
      </trkpt>
      <trkpt lat="45.6139430" lon="7.5559160">
        <ele>2141.5990000</ele>
        <time>2009-10-04T10:10:26Z</time>
      </trkpt>
      <trkpt lat="45.6139040" lon="7.5558190">
        <ele>2141.5680000</ele>
        <time>2009-10-04T10:10:34Z</time>
      </trkpt>
      <trkpt lat="45.6138850" lon="7.5557780">
        <ele>2141.6730000</ele>
        <time>2009-10-04T10:10:42Z</time>
      </trkpt>
      <trkpt lat="45.6138710" lon="7.5557910">
        <ele>2141.9210000</ele>
        <time>2009-10-04T10:11:09Z</time>
      </trkpt>
      <trkpt lat="45.6138540" lon="7.5557420">
        <ele>2142.6350000</ele>
        <time>2009-10-04T10:11:15Z</time>
      </trkpt>
      <trkpt lat="45.6137820" lon="7.5555750">
        <ele>2143.0250000</ele>
        <time>2009-10-04T10:11:24Z</time>
      </trkpt>
      <trkpt lat="45.6137230" lon="7.5554130">
        <ele>2143.9510000</ele>
        <time>2009-10-04T10:11:32Z</time>
      </trkpt>
      <trkpt lat="45.6136560" lon="7.5552860">
        <ele>2144.9530000</ele>
        <time>2009-10-04T10:11:39Z</time>
      </trkpt>
      <trkpt lat="45.6136470" lon="7.5552800">
        <ele>2144.6460000</ele>
        <time>2009-10-04T10:11:43Z</time>
      </trkpt>
      <trkpt lat="45.6136400" lon="7.5552580">
        <ele>2144.6970000</ele>
        <time>2009-10-04T10:11:53Z</time>
      </trkpt>
      <trkpt lat="45.6135840" lon="7.5551390">
        <ele>2145.9980000</ele>
        <time>2009-10-04T10:11:59Z</time>
      </trkpt>
      <trkpt lat="45.6134290" lon="7.5549450">
        <ele>2148.4030000</ele>
        <time>2009-10-04T10:12:11Z</time>
      </trkpt>
      <trkpt lat="45.6133570" lon="7.5547950">
        <ele>2150.3960000</ele>
        <time>2009-10-04T10:12:19Z</time>
      </trkpt>
      <trkpt lat="45.6132840" lon="7.5546570">
        <ele>2152.6800000</ele>
        <time>2009-10-04T10:12:28Z</time>
      </trkpt>
      <trkpt lat="45.6132310" lon="7.5545520">
        <ele>2154.6510000</ele>
        <time>2009-10-04T10:12:35Z</time>
      </trkpt>
      <trkpt lat="45.6132220" lon="7.5545380">
        <ele>2154.8000000</ele>
        <time>2009-10-04T10:12:36Z</time>
      </trkpt>
      <trkpt lat="45.6131630" lon="7.5544300">
        <ele>2156.5560000</ele>
        <time>2009-10-04T10:12:44Z</time>
      </trkpt>
      <trkpt lat="45.6130700" lon="7.5542880">
        <ele>2158.7710000</ele>
        <time>2009-10-04T10:12:55Z</time>
      </trkpt>
      <trkpt lat="45.6129660" lon="7.5541190">
        <ele>2161.7000000</ele>
        <time>2009-10-04T10:13:08Z</time>
      </trkpt>
      <trkpt lat="45.6128900" lon="7.5539850">
        <ele>2163.8290000</ele>
        <time>2009-10-04T10:13:18Z</time>
      </trkpt>
      <trkpt lat="45.6128100" lon="7.5538980">
        <ele>2165.5190000</ele>
        <time>2009-10-04T10:13:26Z</time>
      </trkpt>
      <trkpt lat="45.6127450" lon="7.5537970">
        <ele>2167.2800000</ele>
        <time>2009-10-04T10:13:34Z</time>
      </trkpt>
      <trkpt lat="45.6126700" lon="7.5536500">
        <ele>2168.9650000</ele>
        <time>2009-10-04T10:13:44Z</time>
      </trkpt>
      <trkpt lat="45.6126210" lon="7.5534880">
        <ele>2170.4950000</ele>
        <time>2009-10-04T10:13:53Z</time>
      </trkpt>
      <trkpt lat="45.6125930" lon="7.5533880">
        <ele>2171.5980000</ele>
        <time>2009-10-04T10:13:59Z</time>
      </trkpt>
      <trkpt lat="45.6125250" lon="7.5532780">
        <ele>2173.5590000</ele>
        <time>2009-10-04T10:14:07Z</time>
      </trkpt>
      <trkpt lat="45.6124830" lon="7.5531550">
        <ele>2174.3220000</ele>
        <time>2009-10-04T10:14:14Z</time>
      </trkpt>
      <trkpt lat="45.6124280" lon="7.5528910">
        <ele>2175.5660000</ele>
        <time>2009-10-04T10:14:26Z</time>
      </trkpt>
      <trkpt lat="45.6123630" lon="7.5525680">
        <ele>2177.9260000</ele>
        <time>2009-10-04T10:14:39Z</time>
      </trkpt>
      <trkpt lat="45.6123460" lon="7.5522930">
        <ele>2179.3950000</ele>
        <time>2009-10-04T10:14:50Z</time>
      </trkpt>
      <trkpt lat="45.6123360" lon="7.5520960">
        <ele>2181.6820000</ele>
        <time>2009-10-04T10:14:59Z</time>
      </trkpt>
      <trkpt lat="45.6122010" lon="7.5517570">
        <ele>2195.5840000</ele>
        <time>2009-10-04T11:26:49Z</time>
      </trkpt>
      <trkpt lat="45.6122410" lon="7.5517250">
        <ele>2195.9820000</ele>
        <time>2009-10-04T11:27:07Z</time>
      </trkpt>
      <trkpt lat="45.6122680" lon="7.5516570">
        <ele>2195.7300000</ele>
        <time>2009-10-04T11:27:14Z</time>
      </trkpt>
      <trkpt lat="45.6122710" lon="7.5516590">
        <ele>2195.5430000</ele>
        <time>2009-10-04T11:27:21Z</time>
      </trkpt>
      <trkpt lat="45.6122640" lon="7.5515960">
        <ele>2196.7090000</ele>
        <time>2009-10-04T11:27:28Z</time>
      </trkpt>
      <trkpt lat="45.6122570" lon="7.5515940">
        <ele>2196.1010000</ele>
        <time>2009-10-04T11:27:35Z</time>
      </trkpt>
      <trkpt lat="45.6121990" lon="7.5514800">
        <ele>2196.0130000</ele>
        <time>2009-10-04T11:27:42Z</time>
      </trkpt>
      <trkpt lat="45.6121760" lon="7.5514400">
        <ele>2196.1860000</ele>
        <time>2009-10-04T11:27:44Z</time>
      </trkpt>
      <trkpt lat="45.6121230" lon="7.5512840">
        <ele>2196.0180000</ele>
        <time>2009-10-04T11:27:50Z</time>
      </trkpt>
      <trkpt lat="45.6121280" lon="7.5512320">
        <ele>2195.6710000</ele>
        <time>2009-10-04T11:27:56Z</time>
      </trkpt>
      <trkpt lat="45.6121100" lon="7.5512240">
        <ele>2195.4480000</ele>
        <time>2009-10-04T11:29:14Z</time>
      </trkpt>
      <trkpt lat="45.6121030" lon="7.5511250">
        <ele>2197.0670000</ele>
        <time>2009-10-04T11:29:20Z</time>
      </trkpt>
      <trkpt lat="45.6121450" lon="7.5511410">
        <ele>2197.8310000</ele>
        <time>2009-10-04T11:29:23Z</time>
      </trkpt>
      <trkpt lat="45.6122570" lon="7.5512730">
        <ele>2200.2420000</ele>
        <time>2009-10-04T11:29:32Z</time>
      </trkpt>
      <trkpt lat="45.6123780" lon="7.5513300">
        <ele>2200.5540000</ele>
        <time>2009-10-04T11:29:39Z</time>
      </trkpt>
      <trkpt lat="45.6124790" lon="7.5513470">
        <ele>2201.2700000</ele>
        <time>2009-10-04T11:29:45Z</time>
      </trkpt>
      <trkpt lat="45.6126400" lon="7.5512690">
        <ele>2203.1640000</ele>
        <time>2009-10-04T11:29:55Z</time>
      </trkpt>
      <trkpt lat="45.6127390" lon="7.5511250">
        <ele>2203.6110000</ele>
        <time>2009-10-04T11:30:03Z</time>
      </trkpt>
      <trkpt lat="45.6128240" lon="7.5508680">
        <ele>2205.0160000</ele>
        <time>2009-10-04T11:30:13Z</time>
      </trkpt>
      <trkpt lat="45.6129050" lon="7.5506660">
        <ele>2206.6070000</ele>
        <time>2009-10-04T11:30:21Z</time>
      </trkpt>
      <trkpt lat="45.6129560" lon="7.5504420">
        <ele>2209.0160000</ele>
        <time>2009-10-04T11:30:30Z</time>
      </trkpt>
      <trkpt lat="45.6129560" lon="7.5502690">
        <ele>2209.7300000</ele>
        <time>2009-10-04T11:30:37Z</time>
      </trkpt>
      <trkpt lat="45.6129480" lon="7.5500240">
        <ele>2210.7410000</ele>
        <time>2009-10-04T11:30:46Z</time>
      </trkpt>
      <trkpt lat="45.6129940" lon="7.5497650">
        <ele>2210.9780000</ele>
        <time>2009-10-04T11:30:55Z</time>
      </trkpt>
      <trkpt lat="45.6130280" lon="7.5495020">
        <ele>2212.1170000</ele>
        <time>2009-10-04T11:31:04Z</time>
      </trkpt>
      <trkpt lat="45.6130460" lon="7.5492530">
        <ele>2213.9600000</ele>
        <time>2009-10-04T11:31:14Z</time>
      </trkpt>
      <trkpt lat="45.6130580" lon="7.5491990">
        <ele>2214.2760000</ele>
        <time>2009-10-04T11:31:19Z</time>
      </trkpt>
      <trkpt lat="45.6130680" lon="7.5491550">
        <ele>2214.2370000</ele>
        <time>2009-10-04T11:31:24Z</time>
      </trkpt>
      <trkpt lat="45.6130670" lon="7.5491600">
        <ele>2214.2530000</ele>
        <time>2009-10-04T11:31:29Z</time>
      </trkpt>
      <trkpt lat="45.6130570" lon="7.5491740">
        <ele>2212.8380000</ele>
        <time>2009-10-04T11:31:34Z</time>
      </trkpt>
      <trkpt lat="45.6130660" lon="7.5491850">
        <ele>2210.8750000</ele>
        <time>2009-10-04T11:31:50Z</time>
      </trkpt>
      <trkpt lat="45.6130710" lon="7.5491860">
        <ele>2213.5470000</ele>
        <time>2009-10-04T11:31:52Z</time>
      </trkpt>
      <trkpt lat="45.6130760" lon="7.5491900">
        <ele>2212.3580000</ele>
        <time>2009-10-04T11:32:05Z</time>
      </trkpt>
      <trkpt lat="45.6130700" lon="7.5491760">
        <ele>2214.0570000</ele>
        <time>2009-10-04T11:32:12Z</time>
      </trkpt>
      <trkpt lat="45.6130690" lon="7.5491560">
        <ele>2214.2540000</ele>
        <time>2009-10-04T11:33:10Z</time>
      </trkpt>
      <trkpt lat="45.6130640" lon="7.5491470">
        <ele>2214.1170000</ele>
        <time>2009-10-04T11:33:16Z</time>
      </trkpt>
      <trkpt lat="45.6131080" lon="7.5491210">
        <ele>2214.1240000</ele>
        <time>2009-10-04T11:33:52Z</time>
      </trkpt>
      <trkpt lat="45.6131440" lon="7.5490610">
        <ele>2214.5500000</ele>
        <time>2009-10-04T11:33:58Z</time>
      </trkpt>
      <trkpt lat="45.6131780" lon="7.5488300">
        <ele>2215.7810000</ele>
        <time>2009-10-04T11:34:08Z</time>
      </trkpt>
      <trkpt lat="45.6132230" lon="7.5486260">
        <ele>2217.3020000</ele>
        <time>2009-10-04T11:34:17Z</time>
      </trkpt>
      <trkpt lat="45.6132900" lon="7.5484450">
        <ele>2219.4240000</ele>
        <time>2009-10-04T11:34:27Z</time>
      </trkpt>
      <trkpt lat="45.6133460" lon="7.5482240">
        <ele>2219.9240000</ele>
        <time>2009-10-04T11:34:36Z</time>
      </trkpt>
      <trkpt lat="45.6134220" lon="7.5480090">
        <ele>2219.8810000</ele>
        <time>2009-10-04T11:34:44Z</time>
      </trkpt>
      <trkpt lat="45.6135120" lon="7.5477840">
        <ele>2220.5420000</ele>
        <time>2009-10-04T11:34:53Z</time>
      </trkpt>
      <trkpt lat="45.6135730" lon="7.5475610">
        <ele>2220.8750000</ele>
        <time>2009-10-04T11:35:00Z</time>
      </trkpt>
      <trkpt lat="45.6136230" lon="7.5472960">
        <ele>2221.1750000</ele>
        <time>2009-10-04T11:35:08Z</time>
      </trkpt>
      <trkpt lat="45.6136970" lon="7.5470540">
        <ele>2221.4610000</ele>
        <time>2009-10-04T11:35:15Z</time>
      </trkpt>
      <trkpt lat="45.6137680" lon="7.5468150">
        <ele>2222.6600000</ele>
        <time>2009-10-04T11:35:23Z</time>
      </trkpt>
      <trkpt lat="45.6138310" lon="7.5465510">
        <ele>2223.6950000</ele>
        <time>2009-10-04T11:35:33Z</time>
      </trkpt>
      <trkpt lat="45.6138770" lon="7.5462730">
        <ele>2224.6700000</ele>
        <time>2009-10-04T11:35:43Z</time>
      </trkpt>
      <trkpt lat="45.6138910" lon="7.5460500">
        <ele>2225.5720000</ele>
        <time>2009-10-04T11:35:50Z</time>
      </trkpt>
      <trkpt lat="45.6139020" lon="7.5457900">
        <ele>2227.4940000</ele>
        <time>2009-10-04T11:36:01Z</time>
      </trkpt>
      <trkpt lat="45.6138900" lon="7.5456090">
        <ele>2229.3270000</ele>
        <time>2009-10-04T11:36:09Z</time>
      </trkpt>
      <trkpt lat="45.6138940" lon="7.5454430">
        <ele>2231.9790000</ele>
        <time>2009-10-04T11:36:17Z</time>
      </trkpt>
      <trkpt lat="45.6139120" lon="7.5453150">
        <ele>2234.2400000</ele>
        <time>2009-10-04T11:36:24Z</time>
      </trkpt>
      <trkpt lat="45.6139560" lon="7.5451890">
        <ele>2236.0780000</ele>
        <time>2009-10-04T11:36:32Z</time>
      </trkpt>
      <trkpt lat="45.6139710" lon="7.5450300">
        <ele>2237.1150000</ele>
        <time>2009-10-04T11:36:41Z</time>
      </trkpt>
      <trkpt lat="45.6140360" lon="7.5449250">
        <ele>2238.9230000</ele>
        <time>2009-10-04T11:36:49Z</time>
      </trkpt>
      <trkpt lat="45.6141080" lon="7.5448340">
        <ele>2242.6020000</ele>
        <time>2009-10-04T11:36:57Z</time>
      </trkpt>
      <trkpt lat="45.6141510" lon="7.5447520">
        <ele>2242.8080000</ele>
        <time>2009-10-04T11:37:03Z</time>
      </trkpt>
      <trkpt lat="45.6142320" lon="7.5446400">
        <ele>2243.4890000</ele>
        <time>2009-10-04T11:37:11Z</time>
      </trkpt>
      <trkpt lat="45.6143250" lon="7.5445300">
        <ele>2244.8050000</ele>
        <time>2009-10-04T11:37:20Z</time>
      </trkpt>
      <trkpt lat="45.6144350" lon="7.5444140">
        <ele>2246.1930000</ele>
        <time>2009-10-04T11:37:30Z</time>
      </trkpt>
      <trkpt lat="45.6145260" lon="7.5443430">
        <ele>2248.7910000</ele>
        <time>2009-10-04T11:37:38Z</time>
      </trkpt>
      <trkpt lat="45.6146060" lon="7.5442790">
        <ele>2250.3440000</ele>
        <time>2009-10-04T11:37:46Z</time>
      </trkpt>
      <trkpt lat="45.6146670" lon="7.5442110">
        <ele>2252.5510000</ele>
        <time>2009-10-04T11:37:53Z</time>
      </trkpt>
      <trkpt lat="45.6147630" lon="7.5441160">
        <ele>2254.3030000</ele>
        <time>2009-10-04T11:38:03Z</time>
      </trkpt>
      <trkpt lat="45.6148210" lon="7.5440170">
        <ele>2255.5170000</ele>
        <time>2009-10-04T11:38:11Z</time>
      </trkpt>
      <trkpt lat="45.6148700" lon="7.5438840">
        <ele>2256.7860000</ele>
        <time>2009-10-04T11:38:20Z</time>
      </trkpt>
      <trkpt lat="45.6148740" lon="7.5437520">
        <ele>2258.4350000</ele>
        <time>2009-10-04T11:38:28Z</time>
      </trkpt>
      <trkpt lat="45.6148740" lon="7.5437070">
        <ele>2259.1270000</ele>
        <time>2009-10-04T11:38:31Z</time>
      </trkpt>
      <trkpt lat="45.6148520" lon="7.5436280">
        <ele>2260.0830000</ele>
        <time>2009-10-04T11:38:39Z</time>
      </trkpt>
      <trkpt lat="45.6148390" lon="7.5435110">
        <ele>2261.3170000</ele>
        <time>2009-10-04T11:38:49Z</time>
      </trkpt>
      <trkpt lat="45.6148220" lon="7.5434210">
        <ele>2262.7320000</ele>
        <time>2009-10-04T11:38:57Z</time>
      </trkpt>
      <trkpt lat="45.6148200" lon="7.5433960">
        <ele>2263.7010000</ele>
        <time>2009-10-04T11:38:59Z</time>
      </trkpt>
      <trkpt lat="45.6148080" lon="7.5432890">
        <ele>2264.9910000</ele>
        <time>2009-10-04T11:39:08Z</time>
      </trkpt>
      <trkpt lat="45.6148000" lon="7.5431920">
        <ele>2266.6570000</ele>
        <time>2009-10-04T11:39:16Z</time>
      </trkpt>
      <trkpt lat="45.6147970" lon="7.5431460">
        <ele>2267.5110000</ele>
        <time>2009-10-04T11:39:22Z</time>
      </trkpt>
      <trkpt lat="45.6147980" lon="7.5431420">
        <ele>2267.3920000</ele>
        <time>2009-10-04T11:39:23Z</time>
      </trkpt>
      <trkpt lat="45.6148070" lon="7.5430580">
        <ele>2267.5420000</ele>
        <time>2009-10-04T11:39:28Z</time>
      </trkpt>
      <trkpt lat="45.6148090" lon="7.5428850">
        <ele>2269.2070000</ele>
        <time>2009-10-04T11:39:37Z</time>
      </trkpt>
      <trkpt lat="45.6148110" lon="7.5427360">
        <ele>2270.3150000</ele>
        <time>2009-10-04T11:39:45Z</time>
      </trkpt>
      <trkpt lat="45.6148030" lon="7.5425440">
        <ele>2270.9720000</ele>
        <time>2009-10-04T11:39:53Z</time>
      </trkpt>
      <trkpt lat="45.6147910" lon="7.5423650">
        <ele>2272.4440000</ele>
        <time>2009-10-04T11:40:01Z</time>
      </trkpt>
      <trkpt lat="45.6147660" lon="7.5421850">
        <ele>2272.9620000</ele>
        <time>2009-10-04T11:40:09Z</time>
      </trkpt>
      <trkpt lat="45.6147210" lon="7.5419770">
        <ele>2273.5700000</ele>
        <time>2009-10-04T11:40:18Z</time>
      </trkpt>
      <trkpt lat="45.6146780" lon="7.5417780">
        <ele>2274.4740000</ele>
        <time>2009-10-04T11:40:26Z</time>
      </trkpt>
      <trkpt lat="45.6146470" lon="7.5416250">
        <ele>2275.8160000</ele>
        <time>2009-10-04T11:40:33Z</time>
      </trkpt>
      <trkpt lat="45.6146140" lon="7.5414150">
        <ele>2277.2340000</ele>
        <time>2009-10-04T11:40:43Z</time>
      </trkpt>
      <trkpt lat="45.6145760" lon="7.5412420">
        <ele>2278.1500000</ele>
        <time>2009-10-04T11:40:50Z</time>
      </trkpt>
      <trkpt lat="45.6145240" lon="7.5410640">
        <ele>2279.7610000</ele>
        <time>2009-10-04T11:40:59Z</time>
      </trkpt>
      <trkpt lat="45.6145020" lon="7.5409190">
        <ele>2280.6330000</ele>
        <time>2009-10-04T11:41:06Z</time>
      </trkpt>
      <trkpt lat="45.6144690" lon="7.5407740">
        <ele>2281.9700000</ele>
        <time>2009-10-04T11:41:14Z</time>
      </trkpt>
      <trkpt lat="45.6144310" lon="7.5406130">
        <ele>2282.9220000</ele>
        <time>2009-10-04T11:41:22Z</time>
      </trkpt>
      <trkpt lat="45.6143850" lon="7.5404320">
        <ele>2283.6280000</ele>
        <time>2009-10-04T11:41:31Z</time>
      </trkpt>
      <trkpt lat="45.6143340" lon="7.5402430">
        <ele>2284.7030000</ele>
        <time>2009-10-04T11:41:40Z</time>
      </trkpt>
      <trkpt lat="45.6142980" lon="7.5399980">
        <ele>2285.3690000</ele>
        <time>2009-10-04T11:41:49Z</time>
      </trkpt>
      <trkpt lat="45.6142700" lon="7.5398340">
        <ele>2286.6260000</ele>
        <time>2009-10-04T11:41:57Z</time>
      </trkpt>
      <trkpt lat="45.6142380" lon="7.5396590">
        <ele>2288.2590000</ele>
        <time>2009-10-04T11:42:06Z</time>
      </trkpt>
      <trkpt lat="45.6142080" lon="7.5394480">
        <ele>2289.4600000</ele>
        <time>2009-10-04T11:42:16Z</time>
      </trkpt>
      <trkpt lat="45.6141560" lon="7.5392820">
        <ele>2290.5660000</ele>
        <time>2009-10-04T11:42:24Z</time>
      </trkpt>
      <trkpt lat="45.6141440" lon="7.5391950">
        <ele>2291.8040000</ele>
        <time>2009-10-04T11:42:29Z</time>
      </trkpt>
      <trkpt lat="45.6141410" lon="7.5391810">
        <ele>2291.9470000</ele>
        <time>2009-10-04T11:42:30Z</time>
      </trkpt>
      <trkpt lat="45.6141580" lon="7.5391000">
        <ele>2293.1260000</ele>
        <time>2009-10-04T11:42:35Z</time>
      </trkpt>
      <trkpt lat="45.6142090" lon="7.5389530">
        <ele>2296.0240000</ele>
        <time>2009-10-04T11:42:45Z</time>
      </trkpt>
      <trkpt lat="45.6142070" lon="7.5389010">
        <ele>2296.7950000</ele>
        <time>2009-10-04T11:42:51Z</time>
      </trkpt>
      <trkpt lat="45.6142060" lon="7.5388900">
        <ele>2296.4570000</ele>
        <time>2009-10-04T11:42:52Z</time>
      </trkpt>
      <trkpt lat="45.6142010" lon="7.5387890">
        <ele>2298.3210000</ele>
        <time>2009-10-04T11:43:00Z</time>
      </trkpt>
      <trkpt lat="45.6142000" lon="7.5387030">
        <ele>2299.3060000</ele>
        <time>2009-10-04T11:43:07Z</time>
      </trkpt>
      <trkpt lat="45.6141920" lon="7.5386040">
        <ele>2301.0760000</ele>
        <time>2009-10-04T11:43:15Z</time>
      </trkpt>
      <trkpt lat="45.6141760" lon="7.5385060">
        <ele>2302.3940000</ele>
        <time>2009-10-04T11:43:23Z</time>
      </trkpt>
      <trkpt lat="45.6141530" lon="7.5384100">
        <ele>2303.5530000</ele>
        <time>2009-10-04T11:43:31Z</time>
      </trkpt>
      <trkpt lat="45.6141220" lon="7.5383460">
        <ele>2304.4090000</ele>
        <time>2009-10-04T11:43:38Z</time>
      </trkpt>
      <trkpt lat="45.6141060" lon="7.5383140">
        <ele>2305.0030000</ele>
        <time>2009-10-04T11:43:44Z</time>
      </trkpt>
      <trkpt lat="45.6141050" lon="7.5383060">
        <ele>2304.9400000</ele>
        <time>2009-10-04T11:43:45Z</time>
      </trkpt>
      <trkpt lat="45.6140700" lon="7.5381670">
        <ele>2306.1800000</ele>
        <time>2009-10-04T11:43:54Z</time>
      </trkpt>
      <trkpt lat="45.6140510" lon="7.5379750">
        <ele>2307.8290000</ele>
        <time>2009-10-04T11:44:04Z</time>
      </trkpt>
      <trkpt lat="45.6140310" lon="7.5377910">
        <ele>2308.4650000</ele>
        <time>2009-10-04T11:44:13Z</time>
      </trkpt>
      <trkpt lat="45.6140180" lon="7.5376500">
        <ele>2310.3280000</ele>
        <time>2009-10-04T11:44:20Z</time>
      </trkpt>
      <trkpt lat="45.6140130" lon="7.5374960">
        <ele>2311.0200000</ele>
        <time>2009-10-04T11:44:28Z</time>
      </trkpt>
      <trkpt lat="45.6139860" lon="7.5373350">
        <ele>2312.2030000</ele>
        <time>2009-10-04T11:44:36Z</time>
      </trkpt>
      <trkpt lat="45.6139130" lon="7.5371220">
        <ele>2313.4900000</ele>
        <time>2009-10-04T11:44:47Z</time>
      </trkpt>
      <trkpt lat="45.6138750" lon="7.5369990">
        <ele>2314.4680000</ele>
        <time>2009-10-04T11:44:55Z</time>
      </trkpt>
      <trkpt lat="45.6138260" lon="7.5368700">
        <ele>2316.0050000</ele>
        <time>2009-10-04T11:45:03Z</time>
      </trkpt>
      <trkpt lat="45.6137580" lon="7.5367070">
        <ele>2318.4710000</ele>
        <time>2009-10-04T11:45:14Z</time>
      </trkpt>
      <trkpt lat="45.6137580" lon="7.5365940">
        <ele>2320.1560000</ele>
        <time>2009-10-04T11:45:21Z</time>
      </trkpt>
      <trkpt lat="45.6138150" lon="7.5365390">
        <ele>2321.8580000</ele>
        <time>2009-10-04T11:45:27Z</time>
      </trkpt>
      <trkpt lat="45.6138700" lon="7.5364630">
        <ele>2322.5750000</ele>
        <time>2009-10-04T11:45:33Z</time>
      </trkpt>
      <trkpt lat="45.6139040" lon="7.5363510">
        <ele>2322.4120000</ele>
        <time>2009-10-04T11:45:40Z</time>
      </trkpt>
      <trkpt lat="45.6139010" lon="7.5361820">
        <ele>2323.5070000</ele>
        <time>2009-10-04T11:45:48Z</time>
      </trkpt>
      <trkpt lat="45.6138530" lon="7.5360040">
        <ele>2324.5710000</ele>
        <time>2009-10-04T11:45:57Z</time>
      </trkpt>
      <trkpt lat="45.6138100" lon="7.5358230">
        <ele>2326.1960000</ele>
        <time>2009-10-04T11:46:06Z</time>
      </trkpt>
      <trkpt lat="45.6137480" lon="7.5357190">
        <ele>2327.2510000</ele>
        <time>2009-10-04T11:46:13Z</time>
      </trkpt>
      <trkpt lat="45.6136300" lon="7.5356300">
        <ele>2328.2820000</ele>
        <time>2009-10-04T11:46:22Z</time>
      </trkpt>
      <trkpt lat="45.6135240" lon="7.5355340">
        <ele>2329.5580000</ele>
        <time>2009-10-04T11:46:30Z</time>
      </trkpt>
      <trkpt lat="45.6134110" lon="7.5354290">
        <ele>2331.2770000</ele>
        <time>2009-10-04T11:46:38Z</time>
      </trkpt>
      <trkpt lat="45.6132850" lon="7.5353160">
        <ele>2332.4690000</ele>
        <time>2009-10-04T11:46:47Z</time>
      </trkpt>
      <trkpt lat="45.6132130" lon="7.5351150">
        <ele>2333.4730000</ele>
        <time>2009-10-04T11:46:56Z</time>
      </trkpt>
      <trkpt lat="45.6131530" lon="7.5349490">
        <ele>2333.9220000</ele>
        <time>2009-10-04T11:47:03Z</time>
      </trkpt>
      <trkpt lat="45.6130540" lon="7.5346800">
        <ele>2334.8790000</ele>
        <time>2009-10-04T11:47:14Z</time>
      </trkpt>
      <trkpt lat="45.6129590" lon="7.5345400">
        <ele>2335.1180000</ele>
        <time>2009-10-04T11:47:21Z</time>
      </trkpt>
      <trkpt lat="45.6129390" lon="7.5345190">
        <ele>2335.6610000</ele>
        <time>2009-10-04T11:47:25Z</time>
      </trkpt>
      <trkpt lat="45.6129340" lon="7.5345140">
        <ele>2335.8390000</ele>
        <time>2009-10-04T11:47:33Z</time>
      </trkpt>
      <trkpt lat="45.6128730" lon="7.5343540">
        <ele>2334.3440000</ele>
        <time>2009-10-04T11:47:39Z</time>
      </trkpt>
      <trkpt lat="45.6127770" lon="7.5341070">
        <ele>2334.5760000</ele>
        <time>2009-10-04T11:47:46Z</time>
      </trkpt>
      <trkpt lat="45.6127180" lon="7.5338690">
        <ele>2335.5580000</ele>
        <time>2009-10-04T11:47:54Z</time>
      </trkpt>
      <trkpt lat="45.6126430" lon="7.5337050">
        <ele>2337.3320000</ele>
        <time>2009-10-04T11:48:01Z</time>
      </trkpt>
      <trkpt lat="45.6126120" lon="7.5335340">
        <ele>2338.5530000</ele>
        <time>2009-10-04T11:48:08Z</time>
      </trkpt>
      <trkpt lat="45.6126270" lon="7.5333400">
        <ele>2339.0430000</ele>
        <time>2009-10-04T11:48:15Z</time>
      </trkpt>
      <trkpt lat="45.6126330" lon="7.5330580">
        <ele>2338.4890000</ele>
        <time>2009-10-04T11:48:22Z</time>
      </trkpt>
      <trkpt lat="45.6125780" lon="7.5327850">
        <ele>2338.2760000</ele>
        <time>2009-10-04T11:48:29Z</time>
      </trkpt>
      <trkpt lat="45.6124910" lon="7.5325770">
        <ele>2339.6240000</ele>
        <time>2009-10-04T11:48:37Z</time>
      </trkpt>
      <trkpt lat="45.6123710" lon="7.5323540">
        <ele>2342.1970000</ele>
        <time>2009-10-04T11:48:48Z</time>
      </trkpt>
      <trkpt lat="45.6122830" lon="7.5321900">
        <ele>2342.5320000</ele>
        <time>2009-10-04T11:48:56Z</time>
      </trkpt>
      <trkpt lat="45.6122350" lon="7.5320020">
        <ele>2343.4200000</ele>
        <time>2009-10-04T11:49:04Z</time>
      </trkpt>
      <trkpt lat="45.6122190" lon="7.5318230">
        <ele>2345.7100000</ele>
        <time>2009-10-04T11:49:13Z</time>
      </trkpt>
      <trkpt lat="45.6121800" lon="7.5316760">
        <ele>2347.8550000</ele>
        <time>2009-10-04T11:49:21Z</time>
      </trkpt>
      <trkpt lat="45.6121390" lon="7.5316060">
        <ele>2349.3850000</ele>
        <time>2009-10-04T11:49:26Z</time>
      </trkpt>
      <trkpt lat="45.6121090" lon="7.5315770">
        <ele>2350.3990000</ele>
        <time>2009-10-04T11:49:32Z</time>
      </trkpt>
      <trkpt lat="45.6120760" lon="7.5315270">
        <ele>2351.5010000</ele>
        <time>2009-10-04T11:49:39Z</time>
      </trkpt>
      <trkpt lat="45.6120340" lon="7.5314600">
        <ele>2352.8630000</ele>
        <time>2009-10-04T11:49:48Z</time>
      </trkpt>
      <trkpt lat="45.6119980" lon="7.5314000">
        <ele>2354.7760000</ele>
        <time>2009-10-04T11:49:56Z</time>
      </trkpt>
      <trkpt lat="45.6119540" lon="7.5313730">
        <ele>2355.4080000</ele>
        <time>2009-10-04T11:50:04Z</time>
      </trkpt>
      <trkpt lat="45.6119420" lon="7.5313810">
        <ele>2355.7680000</ele>
        <time>2009-10-04T11:50:10Z</time>
      </trkpt>
      <trkpt lat="45.6118500" lon="7.5312970">
        <ele>2356.4490000</ele>
        <time>2009-10-04T11:50:21Z</time>
      </trkpt>
      <trkpt lat="45.6117950" lon="7.5312230">
        <ele>2357.1270000</ele>
        <time>2009-10-04T11:50:29Z</time>
      </trkpt>
      <trkpt lat="45.6117320" lon="7.5311420">
        <ele>2359.3030000</ele>
        <time>2009-10-04T11:50:38Z</time>
      </trkpt>
      <trkpt lat="45.6116830" lon="7.5310560">
        <ele>2360.4090000</ele>
        <time>2009-10-04T11:50:46Z</time>
      </trkpt>
      <trkpt lat="45.6116030" lon="7.5309500">
        <ele>2361.7240000</ele>
        <time>2009-10-04T11:50:57Z</time>
      </trkpt>
      <trkpt lat="45.6115250" lon="7.5308960">
        <ele>2363.1010000</ele>
        <time>2009-10-04T11:51:07Z</time>
      </trkpt>
      <trkpt lat="45.6114660" lon="7.5308420">
        <ele>2364.6100000</ele>
        <time>2009-10-04T11:51:16Z</time>
      </trkpt>
      <trkpt lat="45.6114250" lon="7.5307540">
        <ele>2366.1080000</ele>
        <time>2009-10-04T11:51:25Z</time>
      </trkpt>
      <trkpt lat="45.6113920" lon="7.5306630">
        <ele>2367.9240000</ele>
        <time>2009-10-04T11:51:34Z</time>
      </trkpt>
      <trkpt lat="45.6113530" lon="7.5305870">
        <ele>2368.7210000</ele>
        <time>2009-10-04T11:51:42Z</time>
      </trkpt>
      <trkpt lat="45.6113200" lon="7.5305040">
        <ele>2370.0760000</ele>
        <time>2009-10-04T11:51:50Z</time>
      </trkpt>
      <trkpt lat="45.6112820" lon="7.5304070">
        <ele>2371.5100000</ele>
        <time>2009-10-04T11:52:00Z</time>
      </trkpt>
      <trkpt lat="45.6112690" lon="7.5303900">
        <ele>2371.9510000</ele>
        <time>2009-10-04T11:52:02Z</time>
      </trkpt>
      <trkpt lat="45.6112100" lon="7.5303860">
        <ele>2373.5060000</ele>
        <time>2009-10-04T11:52:10Z</time>
      </trkpt>
      <trkpt lat="45.6112080" lon="7.5303830">
        <ele>2373.2640000</ele>
        <time>2009-10-04T11:52:13Z</time>
      </trkpt>
      <trkpt lat="45.6111500" lon="7.5305150">
        <ele>2374.1610000</ele>
        <time>2009-10-04T11:52:22Z</time>
      </trkpt>
      <trkpt lat="45.6110800" lon="7.5306120">
        <ele>2374.6350000</ele>
        <time>2009-10-04T11:52:29Z</time>
      </trkpt>
      <trkpt lat="45.6109370" lon="7.5306600">
        <ele>2373.9850000</ele>
        <time>2009-10-04T11:52:35Z</time>
      </trkpt>
      <trkpt lat="45.6108080" lon="7.5306130">
        <ele>2374.2700000</ele>
        <time>2009-10-04T11:52:41Z</time>
      </trkpt>
      <trkpt lat="45.6106730" lon="7.5304380">
        <ele>2374.9100000</ele>
        <time>2009-10-04T11:52:50Z</time>
      </trkpt>
      <trkpt lat="45.6105710" lon="7.5302640">
        <ele>2376.4680000</ele>
        <time>2009-10-04T11:52:59Z</time>
      </trkpt>
      <trkpt lat="45.6104500" lon="7.5300500">
        <ele>2377.7000000</ele>
        <time>2009-10-04T11:53:10Z</time>
      </trkpt>
      <trkpt lat="45.6103740" lon="7.5299280">
        <ele>2378.7560000</ele>
        <time>2009-10-04T11:53:17Z</time>
      </trkpt>
      <trkpt lat="45.6102750" lon="7.5297390">
        <ele>2378.9560000</ele>
        <time>2009-10-04T11:53:26Z</time>
      </trkpt>
      <trkpt lat="45.6101880" lon="7.5296020">
        <ele>2379.8020000</ele>
        <time>2009-10-04T11:53:34Z</time>
      </trkpt>
      <trkpt lat="45.6101300" lon="7.5295000">
        <ele>2381.4090000</ele>
        <time>2009-10-04T11:53:41Z</time>
      </trkpt>
      <trkpt lat="45.6101160" lon="7.5294510">
        <ele>2382.2860000</ele>
        <time>2009-10-04T11:53:44Z</time>
      </trkpt>
      <trkpt lat="45.6100700" lon="7.5293360">
        <ele>2383.3710000</ele>
        <time>2009-10-04T11:53:53Z</time>
      </trkpt>
      <trkpt lat="45.6100260" lon="7.5292180">
        <ele>2384.6830000</ele>
        <time>2009-10-04T11:54:01Z</time>
      </trkpt>
      <trkpt lat="45.6099800" lon="7.5291010">
        <ele>2385.7630000</ele>
        <time>2009-10-04T11:54:09Z</time>
      </trkpt>
      <trkpt lat="45.6099250" lon="7.5289820">
        <ele>2387.4810000</ele>
        <time>2009-10-04T11:54:18Z</time>
      </trkpt>
      <trkpt lat="45.6098660" lon="7.5288890">
        <ele>2388.4320000</ele>
        <time>2009-10-04T11:54:26Z</time>
      </trkpt>
      <trkpt lat="45.6098190" lon="7.5287770">
        <ele>2389.6150000</ele>
        <time>2009-10-04T11:54:34Z</time>
      </trkpt>
      <trkpt lat="45.6097610" lon="7.5286500">
        <ele>2391.1230000</ele>
        <time>2009-10-04T11:54:43Z</time>
      </trkpt>
      <trkpt lat="45.6097080" lon="7.5285270">
        <ele>2392.3380000</ele>
        <time>2009-10-04T11:54:52Z</time>
      </trkpt>
      <trkpt lat="45.6097010" lon="7.5285130">
        <ele>2392.8130000</ele>
        <time>2009-10-04T11:54:53Z</time>
      </trkpt>
      <trkpt lat="45.6096400" lon="7.5283590">
        <ele>2393.9540000</ele>
        <time>2009-10-04T11:55:03Z</time>
      </trkpt>
      <trkpt lat="45.6095850" lon="7.5282740">
        <ele>2395.3030000</ele>
        <time>2009-10-04T11:55:10Z</time>
      </trkpt>
      <trkpt lat="45.6095780" lon="7.5282610">
        <ele>2395.5110000</ele>
        <time>2009-10-04T11:55:11Z</time>
      </trkpt>
      <trkpt lat="45.6095390" lon="7.5281770">
        <ele>2396.2100000</ele>
        <time>2009-10-04T11:55:18Z</time>
      </trkpt>
      <trkpt lat="45.6095260" lon="7.5281460">
        <ele>2396.3390000</ele>
        <time>2009-10-04T11:55:20Z</time>
      </trkpt>
      <trkpt lat="45.6094830" lon="7.5280280">
        <ele>2397.1320000</ele>
        <time>2009-10-04T11:55:28Z</time>
      </trkpt>
      <trkpt lat="45.6094390" lon="7.5279650">
        <ele>2397.7770000</ele>
        <time>2009-10-04T11:55:33Z</time>
      </trkpt>
      <trkpt lat="45.6093570" lon="7.5278020">
        <ele>2398.0590000</ele>
        <time>2009-10-04T11:55:42Z</time>
      </trkpt>
      <trkpt lat="45.6092860" lon="7.5275950">
        <ele>2398.7320000</ele>
        <time>2009-10-04T11:55:52Z</time>
      </trkpt>
      <trkpt lat="45.6092800" lon="7.5275400">
        <ele>2399.3720000</ele>
        <time>2009-10-04T11:55:55Z</time>
      </trkpt>
      <trkpt lat="45.6092640" lon="7.5274670">
        <ele>2400.0910000</ele>
        <time>2009-10-04T11:56:01Z</time>
      </trkpt>
      <trkpt lat="45.6092930" lon="7.5274150">
        <ele>2400.5490000</ele>
        <time>2009-10-04T11:56:05Z</time>
      </trkpt>
      <trkpt lat="45.6093650" lon="7.5272600">
        <ele>2403.0880000</ele>
        <time>2009-10-04T11:56:16Z</time>
      </trkpt>
      <trkpt lat="45.6094140" lon="7.5271570">
        <ele>2403.5200000</ele>
        <time>2009-10-04T11:56:23Z</time>
      </trkpt>
      <trkpt lat="45.6094990" lon="7.5270900">
        <ele>2404.7510000</ele>
        <time>2009-10-04T11:56:33Z</time>
      </trkpt>
      <trkpt lat="45.6095360" lon="7.5270730">
        <ele>2405.2550000</ele>
        <time>2009-10-04T11:56:53Z</time>
      </trkpt>
      <trkpt lat="45.6096100" lon="7.5270570">
        <ele>2406.9720000</ele>
        <time>2009-10-04T11:57:02Z</time>
      </trkpt>
      <trkpt lat="45.6096570" lon="7.5270520">
        <ele>2407.8550000</ele>
        <time>2009-10-04T11:57:10Z</time>
      </trkpt>
      <trkpt lat="45.6097180" lon="7.5270360">
        <ele>2409.6420000</ele>
        <time>2009-10-04T11:57:19Z</time>
      </trkpt>
      <trkpt lat="45.6097470" lon="7.5269650">
        <ele>2410.4670000</ele>
        <time>2009-10-04T11:57:26Z</time>
      </trkpt>
      <trkpt lat="45.6097290" lon="7.5268920">
        <ele>2411.6290000</ele>
        <time>2009-10-04T11:57:33Z</time>
      </trkpt>
      <trkpt lat="45.6096900" lon="7.5268570">
        <ele>2412.2620000</ele>
        <time>2009-10-04T11:57:38Z</time>
      </trkpt>
      <trkpt lat="45.6096530" lon="7.5267460">
        <ele>2413.9860000</ele>
        <time>2009-10-04T11:57:48Z</time>
      </trkpt>
      <trkpt lat="45.6096330" lon="7.5266510">
        <ele>2414.9680000</ele>
        <time>2009-10-04T11:57:56Z</time>
      </trkpt>
      <trkpt lat="45.6096100" lon="7.5265410">
        <ele>2416.5930000</ele>
        <time>2009-10-04T11:58:05Z</time>
      </trkpt>
      <trkpt lat="45.6095890" lon="7.5264250">
        <ele>2417.5210000</ele>
        <time>2009-10-04T11:58:14Z</time>
      </trkpt>
      <trkpt lat="45.6095570" lon="7.5263260">
        <ele>2418.5200000</ele>
        <time>2009-10-04T11:58:23Z</time>
      </trkpt>
      <trkpt lat="45.6095130" lon="7.5262750">
        <ele>2419.6070000</ele>
        <time>2009-10-04T11:58:30Z</time>
      </trkpt>
      <trkpt lat="45.6094710" lon="7.5262020">
        <ele>2421.1240000</ele>
        <time>2009-10-04T11:58:39Z</time>
      </trkpt>
      <trkpt lat="45.6094660" lon="7.5261810">
        <ele>2421.5130000</ele>
        <time>2009-10-04T11:58:45Z</time>
      </trkpt>
      <trkpt lat="45.6094430" lon="7.5261260">
        <ele>2421.9400000</ele>
        <time>2009-10-04T11:58:51Z</time>
      </trkpt>
      <trkpt lat="45.6093760" lon="7.5259960">
        <ele>2423.7030000</ele>
        <time>2009-10-04T11:59:00Z</time>
      </trkpt>
      <trkpt lat="45.6093030" lon="7.5258310">
        <ele>2425.4040000</ele>
        <time>2009-10-04T11:59:11Z</time>
      </trkpt>
      <trkpt lat="45.6092380" lon="7.5257150">
        <ele>2426.2910000</ele>
        <time>2009-10-04T11:59:19Z</time>
      </trkpt>
      <trkpt lat="45.6091750" lon="7.5256100">
        <ele>2427.8100000</ele>
        <time>2009-10-04T11:59:27Z</time>
      </trkpt>
      <trkpt lat="45.6090990" lon="7.5254790">
        <ele>2429.5510000</ele>
        <time>2009-10-04T11:59:37Z</time>
      </trkpt>
      <trkpt lat="45.6089950" lon="7.5253570">
        <ele>2432.0670000</ele>
        <time>2009-10-04T11:59:48Z</time>
      </trkpt>
      <trkpt lat="45.6089190" lon="7.5252770">
        <ele>2434.8200000</ele>
        <time>2009-10-04T11:59:56Z</time>
      </trkpt>
      <trkpt lat="45.6088370" lon="7.5252080">
        <ele>2435.8020000</ele>
        <time>2009-10-04T12:00:04Z</time>
      </trkpt>
      <trkpt lat="45.6087520" lon="7.5251140">
        <ele>2436.6530000</ele>
        <time>2009-10-04T12:00:13Z</time>
      </trkpt>
      <trkpt lat="45.6086770" lon="7.5250070">
        <ele>2437.7100000</ele>
        <time>2009-10-04T12:00:21Z</time>
      </trkpt>
      <trkpt lat="45.6085900" lon="7.5249030">
        <ele>2438.9740000</ele>
        <time>2009-10-04T12:00:30Z</time>
      </trkpt>
      <trkpt lat="45.6085110" lon="7.5248090">
        <ele>2439.9440000</ele>
        <time>2009-10-04T12:00:38Z</time>
      </trkpt>
      <trkpt lat="45.6083970" lon="7.5247160">
        <ele>2441.3610000</ele>
        <time>2009-10-04T12:00:48Z</time>
      </trkpt>
      <trkpt lat="45.6082700" lon="7.5245810">
        <ele>2441.9020000</ele>
        <time>2009-10-04T12:00:58Z</time>
      </trkpt>
      <trkpt lat="45.6081350" lon="7.5244320">
        <ele>2442.3870000</ele>
        <time>2009-10-04T12:01:08Z</time>
      </trkpt>
      <trkpt lat="45.6080100" lon="7.5242820">
        <ele>2443.7470000</ele>
        <time>2009-10-04T12:01:17Z</time>
      </trkpt>
      <trkpt lat="45.6078970" lon="7.5241310">
        <ele>2444.2180000</ele>
        <time>2009-10-04T12:01:25Z</time>
      </trkpt>
      <trkpt lat="45.6077710" lon="7.5240170">
        <ele>2445.2390000</ele>
        <time>2009-10-04T12:01:33Z</time>
      </trkpt>
      <trkpt lat="45.6076760" lon="7.5238790">
        <ele>2445.5830000</ele>
        <time>2009-10-04T12:01:41Z</time>
      </trkpt>
      <trkpt lat="45.6075520" lon="7.5236660">
        <ele>2446.3260000</ele>
        <time>2009-10-04T12:01:52Z</time>
      </trkpt>
      <trkpt lat="45.6074600" lon="7.5234710">
        <ele>2445.6750000</ele>
        <time>2009-10-04T12:01:59Z</time>
      </trkpt>
      <trkpt lat="45.6073630" lon="7.5232850">
        <ele>2446.1360000</ele>
        <time>2009-10-04T12:02:06Z</time>
      </trkpt>
      <trkpt lat="45.6072910" lon="7.5231670">
        <ele>2447.9390000</ele>
        <time>2009-10-04T12:02:13Z</time>
      </trkpt>
      <trkpt lat="45.6071850" lon="7.5230710">
        <ele>2449.2860000</ele>
        <time>2009-10-04T12:02:21Z</time>
      </trkpt>
      <trkpt lat="45.6070430" lon="7.5230190">
        <ele>2451.0770000</ele>
        <time>2009-10-04T12:02:31Z</time>
      </trkpt>
      <trkpt lat="45.6069010" lon="7.5229800">
        <ele>2451.7330000</ele>
        <time>2009-10-04T12:02:39Z</time>
      </trkpt>
      <trkpt lat="45.6067910" lon="7.5230930">
        <ele>2451.8020000</ele>
        <time>2009-10-04T12:02:47Z</time>
      </trkpt>
      <trkpt lat="45.6067320" lon="7.5232130">
        <ele>2452.5820000</ele>
        <time>2009-10-04T12:02:53Z</time>
      </trkpt>
      <trkpt lat="45.6066750" lon="7.5234060">
        <ele>2453.4680000</ele>
        <time>2009-10-04T12:03:01Z</time>
      </trkpt>
      <trkpt lat="45.6066540" lon="7.5235260">
        <ele>2454.0140000</ele>
        <time>2009-10-04T12:03:06Z</time>
      </trkpt>
      <trkpt lat="45.6066400" lon="7.5237390">
        <ele>2453.9160000</ele>
        <time>2009-10-04T12:03:14Z</time>
      </trkpt>
      <trkpt lat="45.6066350" lon="7.5239470">
        <ele>2454.2000000</ele>
        <time>2009-10-04T12:03:22Z</time>
      </trkpt>
      <trkpt lat="45.6066150" lon="7.5242100">
        <ele>2456.1440000</ele>
        <time>2009-10-04T12:03:33Z</time>
      </trkpt>
      <trkpt lat="45.6066300" lon="7.5244040">
        <ele>2457.0650000</ele>
        <time>2009-10-04T12:03:41Z</time>
      </trkpt>
      <trkpt lat="45.6066320" lon="7.5245210">
        <ele>2457.5620000</ele>
        <time>2009-10-04T12:03:47Z</time>
      </trkpt>
      <trkpt lat="45.6066130" lon="7.5246430">
        <ele>2458.8620000</ele>
        <time>2009-10-04T12:03:54Z</time>
      </trkpt>
      <trkpt lat="45.6065480" lon="7.5247090">
        <ele>2460.4690000</ele>
        <time>2009-10-04T12:04:01Z</time>
      </trkpt>
      <trkpt lat="45.6065190" lon="7.5247150">
        <ele>2461.2760000</ele>
        <time>2009-10-04T12:04:07Z</time>
      </trkpt>
      <trkpt lat="45.6065030" lon="7.5247170">
        <ele>2461.4850000</ele>
        <time>2009-10-04T12:04:09Z</time>
      </trkpt>
      <trkpt lat="45.6064290" lon="7.5247290">
        <ele>2462.8220000</ele>
        <time>2009-10-04T12:04:18Z</time>
      </trkpt>
      <trkpt lat="45.6063680" lon="7.5247280">
        <ele>2464.5230000</ele>
        <time>2009-10-04T12:04:26Z</time>
      </trkpt>
      <trkpt lat="45.6063310" lon="7.5247230">
        <ele>2464.8800000</ele>
        <time>2009-10-04T12:04:35Z</time>
      </trkpt>
      <trkpt lat="45.6063250" lon="7.5247190">
        <ele>2465.0340000</ele>
        <time>2009-10-04T12:04:38Z</time>
      </trkpt>
      <trkpt lat="45.6062020" lon="7.5245990">
        <ele>2466.2580000</ele>
        <time>2009-10-04T12:04:50Z</time>
      </trkpt>
      <trkpt lat="45.6060900" lon="7.5244670">
        <ele>2466.9220000</ele>
        <time>2009-10-04T12:04:59Z</time>
      </trkpt>
      <trkpt lat="45.6059370" lon="7.5243560">
        <ele>2467.3650000</ele>
        <time>2009-10-04T12:05:09Z</time>
      </trkpt>
      <trkpt lat="45.6058090" lon="7.5242970">
        <ele>2468.2680000</ele>
        <time>2009-10-04T12:05:18Z</time>
      </trkpt>
      <trkpt lat="45.6057220" lon="7.5241950">
        <ele>2469.1180000</ele>
        <time>2009-10-04T12:05:26Z</time>
      </trkpt>
      <trkpt lat="45.6056430" lon="7.5240420">
        <ele>2470.2610000</ele>
        <time>2009-10-04T12:05:36Z</time>
      </trkpt>
      <trkpt lat="45.6055670" lon="7.5239430">
        <ele>2472.0130000</ele>
        <time>2009-10-04T12:05:45Z</time>
      </trkpt>
      <trkpt lat="45.6055460" lon="7.5239360">
        <ele>2472.5360000</ele>
        <time>2009-10-04T12:05:47Z</time>
      </trkpt>
      <trkpt lat="45.6054810" lon="7.5238670">
        <ele>2473.9790000</ele>
        <time>2009-10-04T12:05:55Z</time>
      </trkpt>
      <trkpt lat="45.6054030" lon="7.5237840">
        <ele>2475.4450000</ele>
        <time>2009-10-04T12:06:04Z</time>
      </trkpt>
      <trkpt lat="45.6053280" lon="7.5237190">
        <ele>2476.2640000</ele>
        <time>2009-10-04T12:06:12Z</time>
      </trkpt>
      <trkpt lat="45.6052860" lon="7.5236850">
        <ele>2477.0230000</ele>
        <time>2009-10-04T12:06:18Z</time>
      </trkpt>
      <trkpt lat="45.6052550" lon="7.5236540">
        <ele>2477.7370000</ele>
        <time>2009-10-04T12:06:23Z</time>
      </trkpt>
      <trkpt lat="45.6052170" lon="7.5235980">
        <ele>2479.4950000</ele>
        <time>2009-10-04T12:06:32Z</time>
      </trkpt>
      <trkpt lat="45.6051790" lon="7.5235640">
        <ele>2480.7840000</ele>
        <time>2009-10-04T12:06:41Z</time>
      </trkpt>
      <trkpt lat="45.6051360" lon="7.5235460">
        <ele>2481.3880000</ele>
        <time>2009-10-04T12:06:48Z</time>
      </trkpt>
      <trkpt lat="45.6051270" lon="7.5235380">
        <ele>2481.3830000</ele>
        <time>2009-10-04T12:07:05Z</time>
      </trkpt>
      <trkpt lat="45.6050590" lon="7.5234890">
        <ele>2481.9020000</ele>
        <time>2009-10-04T12:07:14Z</time>
      </trkpt>
      <trkpt lat="45.6049740" lon="7.5234560">
        <ele>2483.0970000</ele>
        <time>2009-10-04T12:07:23Z</time>
      </trkpt>
      <trkpt lat="45.6048930" lon="7.5234410">
        <ele>2484.1170000</ele>
        <time>2009-10-04T12:07:31Z</time>
      </trkpt>
      <trkpt lat="45.6048130" lon="7.5234190">
        <ele>2485.2730000</ele>
        <time>2009-10-04T12:07:39Z</time>
      </trkpt>
      <trkpt lat="45.6047400" lon="7.5233510">
        <ele>2486.4910000</ele>
        <time>2009-10-04T12:07:48Z</time>
      </trkpt>
      <trkpt lat="45.6046830" lon="7.5232880">
        <ele>2487.7400000</ele>
        <time>2009-10-04T12:07:57Z</time>
      </trkpt>
      <trkpt lat="45.6046220" lon="7.5232460">
        <ele>2489.8280000</ele>
        <time>2009-10-04T12:08:06Z</time>
      </trkpt>
      <trkpt lat="45.6045660" lon="7.5232140">
        <ele>2490.8930000</ele>
        <time>2009-10-04T12:08:15Z</time>
      </trkpt>
      <trkpt lat="45.6045140" lon="7.5231860">
        <ele>2491.8730000</ele>
        <time>2009-10-04T12:08:23Z</time>
      </trkpt>
      <trkpt lat="45.6044990" lon="7.5231710">
        <ele>2492.1960000</ele>
        <time>2009-10-04T12:08:31Z</time>
      </trkpt>
      <trkpt lat="45.6044600" lon="7.5231250">
        <ele>2493.4790000</ele>
        <time>2009-10-04T12:08:38Z</time>
      </trkpt>
      <trkpt lat="45.6044270" lon="7.5230690">
        <ele>2494.4620000</ele>
        <time>2009-10-04T12:08:46Z</time>
      </trkpt>
      <trkpt lat="45.6044090" lon="7.5230400">
        <ele>2495.4790000</ele>
        <time>2009-10-04T12:08:51Z</time>
      </trkpt>
      <trkpt lat="45.6043870" lon="7.5230120">
        <ele>2496.5760000</ele>
        <time>2009-10-04T12:08:59Z</time>
      </trkpt>
      <trkpt lat="45.6043700" lon="7.5229860">
        <ele>2497.4720000</ele>
        <time>2009-10-04T12:09:04Z</time>
      </trkpt>
      <trkpt lat="45.6043470" lon="7.5229460">
        <ele>2498.7440000</ele>
        <time>2009-10-04T12:09:10Z</time>
      </trkpt>
      <trkpt lat="45.6043010" lon="7.5228790">
        <ele>2500.2320000</ele>
        <time>2009-10-04T12:09:20Z</time>
      </trkpt>
      <trkpt lat="45.6042620" lon="7.5228410">
        <ele>2501.0860000</ele>
        <time>2009-10-04T12:09:27Z</time>
      </trkpt>
      <trkpt lat="45.6042320" lon="7.5228410">
        <ele>2501.1610000</ele>
        <time>2009-10-04T12:09:35Z</time>
      </trkpt>
      <trkpt lat="45.6042160" lon="7.5228270">
        <ele>2501.3630000</ele>
        <time>2009-10-04T12:09:48Z</time>
      </trkpt>
      <trkpt lat="45.6041550" lon="7.5227860">
        <ele>2502.9350000</ele>
        <time>2009-10-04T12:09:57Z</time>
      </trkpt>
      <trkpt lat="45.6040750" lon="7.5227570">
        <ele>2504.3010000</ele>
        <time>2009-10-04T12:10:07Z</time>
      </trkpt>
      <trkpt lat="45.6040100" lon="7.5227660">
        <ele>2505.4620000</ele>
        <time>2009-10-04T12:10:15Z</time>
      </trkpt>
      <trkpt lat="45.6039960" lon="7.5227720">
        <ele>2505.6890000</ele>
        <time>2009-10-04T12:10:17Z</time>
      </trkpt>
      <trkpt lat="45.6039300" lon="7.5228140">
        <ele>2506.6680000</ele>
        <time>2009-10-04T12:10:26Z</time>
      </trkpt>
      <trkpt lat="45.6038590" lon="7.5228100">
        <ele>2507.8350000</ele>
        <time>2009-10-04T12:10:34Z</time>
      </trkpt>
      <trkpt lat="45.6038000" lon="7.5227550">
        <ele>2508.9680000</ele>
        <time>2009-10-04T12:10:43Z</time>
      </trkpt>
      <trkpt lat="45.6037670" lon="7.5226930">
        <ele>2511.2650000</ele>
        <time>2009-10-04T12:10:52Z</time>
      </trkpt>
      <trkpt lat="45.6037570" lon="7.5226290">
        <ele>2511.6980000</ele>
        <time>2009-10-04T12:10:59Z</time>
      </trkpt>
      <trkpt lat="45.6037440" lon="7.5225670">
        <ele>2513.1850000</ele>
        <time>2009-10-04T12:11:06Z</time>
      </trkpt>
      <trkpt lat="45.6037290" lon="7.5225040">
        <ele>2513.8520000</ele>
        <time>2009-10-04T12:11:13Z</time>
      </trkpt>
      <trkpt lat="45.6037240" lon="7.5224190">
        <ele>2515.1150000</ele>
        <time>2009-10-04T12:11:21Z</time>
      </trkpt>
      <trkpt lat="45.6037320" lon="7.5223470">
        <ele>2516.8330000</ele>
        <time>2009-10-04T12:11:29Z</time>
      </trkpt>
      <trkpt lat="45.6037430" lon="7.5222910">
        <ele>2517.6720000</ele>
        <time>2009-10-04T12:11:47Z</time>
      </trkpt>
      <trkpt lat="45.6037450" lon="7.5222810">
        <ele>2517.8930000</ele>
        <time>2009-10-04T12:11:48Z</time>
      </trkpt>
      <trkpt lat="45.6037640" lon="7.5221830">
        <ele>2518.8220000</ele>
        <time>2009-10-04T12:11:57Z</time>
      </trkpt>
      <trkpt lat="45.6037820" lon="7.5220960">
        <ele>2520.2880000</ele>
        <time>2009-10-04T12:12:05Z</time>
      </trkpt>
      <trkpt lat="45.6037930" lon="7.5220630">
        <ele>2520.9900000</ele>
        <time>2009-10-04T12:12:11Z</time>
      </trkpt>
      <trkpt lat="45.6038120" lon="7.5220260">
        <ele>2521.8360000</ele>
        <time>2009-10-04T12:12:19Z</time>
      </trkpt>
      <trkpt lat="45.6038640" lon="7.5219450">
        <ele>2523.2670000</ele>
        <time>2009-10-04T12:12:27Z</time>
      </trkpt>
      <trkpt lat="45.6038980" lon="7.5218910">
        <ele>2523.5220000</ele>
        <time>2009-10-04T12:12:32Z</time>
      </trkpt>
      <trkpt lat="45.6039790" lon="7.5217530">
        <ele>2525.2150000</ele>
        <time>2009-10-04T12:12:43Z</time>
      </trkpt>
      <trkpt lat="45.6040330" lon="7.5216720">
        <ele>2525.7190000</ele>
        <time>2009-10-04T12:12:52Z</time>
      </trkpt>
      <trkpt lat="45.6040860" lon="7.5216030">
        <ele>2527.0880000</ele>
        <time>2009-10-04T12:13:00Z</time>
      </trkpt>
      <trkpt lat="45.6041420" lon="7.5215500">
        <ele>2528.4410000</ele>
        <time>2009-10-04T12:13:08Z</time>
      </trkpt>
      <trkpt lat="45.6041890" lon="7.5215060">
        <ele>2529.4370000</ele>
        <time>2009-10-04T12:13:15Z</time>
      </trkpt>
      <trkpt lat="45.6042170" lon="7.5214840">
        <ele>2530.2650000</ele>
        <time>2009-10-04T12:13:19Z</time>
      </trkpt>
      <trkpt lat="45.6042780" lon="7.5214340">
        <ele>2531.8920000</ele>
        <time>2009-10-04T12:13:28Z</time>
      </trkpt>
      <trkpt lat="45.6043250" lon="7.5213750">
        <ele>2533.2580000</ele>
        <time>2009-10-04T12:13:37Z</time>
      </trkpt>
      <trkpt lat="45.6043570" lon="7.5213530">
        <ele>2533.6710000</ele>
        <time>2009-10-04T12:13:44Z</time>
      </trkpt>
      <trkpt lat="45.6043890" lon="7.5213050">
        <ele>2534.3920000</ele>
        <time>2009-10-04T12:13:52Z</time>
      </trkpt>
      <trkpt lat="45.6044540" lon="7.5211800">
        <ele>2535.2150000</ele>
        <time>2009-10-04T12:14:01Z</time>
      </trkpt>
      <trkpt lat="45.6044770" lon="7.5210360">
        <ele>2535.9100000</ele>
        <time>2009-10-04T12:14:09Z</time>
      </trkpt>
      <trkpt lat="45.6044690" lon="7.5209060">
        <ele>2537.2700000</ele>
        <time>2009-10-04T12:14:16Z</time>
      </trkpt>
      <trkpt lat="45.6044840" lon="7.5207590">
        <ele>2538.9320000</ele>
        <time>2009-10-04T12:14:25Z</time>
      </trkpt>
      <trkpt lat="45.6044900" lon="7.5207110">
        <ele>2539.9000000</ele>
        <time>2009-10-04T12:14:28Z</time>
      </trkpt>
      <trkpt lat="45.6044860" lon="7.5206130">
        <ele>2540.6060000</ele>
        <time>2009-10-04T12:14:35Z</time>
      </trkpt>
      <trkpt lat="45.6044830" lon="7.5205790">
        <ele>2540.6750000</ele>
        <time>2009-10-04T12:14:37Z</time>
      </trkpt>
      <trkpt lat="45.6044740" lon="7.5203760">
        <ele>2541.5660000</ele>
        <time>2009-10-04T12:14:49Z</time>
      </trkpt>
      <trkpt lat="45.6044680" lon="7.5203480">
        <ele>2541.6950000</ele>
        <time>2009-10-04T12:14:53Z</time>
      </trkpt>
      <trkpt lat="45.6044550" lon="7.5203200">
        <ele>2542.1710000</ele>
        <time>2009-10-04T12:14:56Z</time>
      </trkpt>
      <trkpt lat="45.6044280" lon="7.5202900">
        <ele>2542.6300000</ele>
        <time>2009-10-04T12:15:00Z</time>
      </trkpt>
      <trkpt lat="45.6043650" lon="7.5202470">
        <ele>2544.2190000</ele>
        <time>2009-10-04T12:15:09Z</time>
      </trkpt>
      <trkpt lat="45.6043290" lon="7.5202280">
        <ele>2545.2650000</ele>
        <time>2009-10-04T12:15:17Z</time>
      </trkpt>
      <trkpt lat="45.6042710" lon="7.5202350">
        <ele>2546.0960000</ele>
        <time>2009-10-04T12:15:41Z</time>
      </trkpt>
      <trkpt lat="45.6041960" lon="7.5202550">
        <ele>2547.1170000</ele>
        <time>2009-10-04T12:15:50Z</time>
      </trkpt>
      <trkpt lat="45.6041540" lon="7.5202870">
        <ele>2548.6330000</ele>
        <time>2009-10-04T12:15:57Z</time>
      </trkpt>
      <trkpt lat="45.6041300" lon="7.5203390">
        <ele>2549.8850000</ele>
        <time>2009-10-04T12:16:05Z</time>
      </trkpt>
      <trkpt lat="45.6041070" lon="7.5203910">
        <ele>2550.8690000</ele>
        <time>2009-10-04T12:16:13Z</time>
      </trkpt>
      <trkpt lat="45.6040810" lon="7.5204660">
        <ele>2552.9750000</ele>
        <time>2009-10-04T12:16:23Z</time>
      </trkpt>
      <trkpt lat="45.6040480" lon="7.5205080">
        <ele>2553.9500000</ele>
        <time>2009-10-04T12:16:30Z</time>
      </trkpt>
      <trkpt lat="45.6040280" lon="7.5205380">
        <ele>2554.4830000</ele>
        <time>2009-10-04T12:16:38Z</time>
      </trkpt>
      <trkpt lat="45.6040210" lon="7.5205590">
        <ele>2555.4820000</ele>
        <time>2009-10-04T12:16:48Z</time>
      </trkpt>
      <trkpt lat="45.6039790" lon="7.5206410">
        <ele>2556.9660000</ele>
        <time>2009-10-04T12:16:57Z</time>
      </trkpt>
      <trkpt lat="45.6039650" lon="7.5206670">
        <ele>2557.0190000</ele>
        <time>2009-10-04T12:17:00Z</time>
      </trkpt>
      <trkpt lat="45.6039090" lon="7.5207650">
        <ele>2558.0660000</ele>
        <time>2009-10-04T12:17:10Z</time>
      </trkpt>
      <trkpt lat="45.6038580" lon="7.5208690">
        <ele>2560.0860000</ele>
        <time>2009-10-04T12:17:21Z</time>
      </trkpt>
      <trkpt lat="45.6038170" lon="7.5209570">
        <ele>2562.0180000</ele>
        <time>2009-10-04T12:17:32Z</time>
      </trkpt>
      <trkpt lat="45.6037950" lon="7.5209830">
        <ele>2562.5940000</ele>
        <time>2009-10-04T12:17:37Z</time>
      </trkpt>
      <trkpt lat="45.6037910" lon="7.5209960">
        <ele>2562.8490000</ele>
        <time>2009-10-04T12:17:46Z</time>
      </trkpt>
      <trkpt lat="45.6037720" lon="7.5210280">
        <ele>2563.5410000</ele>
        <time>2009-10-04T12:17:51Z</time>
      </trkpt>
      <trkpt lat="45.6037420" lon="7.5210830">
        <ele>2564.7160000</ele>
        <time>2009-10-04T12:17:58Z</time>
      </trkpt>
      <trkpt lat="45.6036910" lon="7.5211460">
        <ele>2566.1300000</ele>
        <time>2009-10-04T12:18:08Z</time>
      </trkpt>
      <trkpt lat="45.6036430" lon="7.5211790">
        <ele>2567.2040000</ele>
        <time>2009-10-04T12:18:16Z</time>
      </trkpt>
      <trkpt lat="45.6035910" lon="7.5212000">
        <ele>2568.5160000</ele>
        <time>2009-10-04T12:18:24Z</time>
      </trkpt>
      <trkpt lat="45.6035380" lon="7.5212170">
        <ele>2570.3280000</ele>
        <time>2009-10-04T12:18:33Z</time>
      </trkpt>
      <trkpt lat="45.6034890" lon="7.5212210">
        <ele>2571.4640000</ele>
        <time>2009-10-04T12:18:40Z</time>
      </trkpt>
      <trkpt lat="45.6034290" lon="7.5212130">
        <ele>2573.1880000</ele>
        <time>2009-10-04T12:18:49Z</time>
      </trkpt>
      <trkpt lat="45.6033980" lon="7.5212130">
        <ele>2573.9620000</ele>
        <time>2009-10-04T12:18:57Z</time>
      </trkpt>
      <trkpt lat="45.6033440" lon="7.5212190">
        <ele>2575.3730000</ele>
        <time>2009-10-04T12:19:05Z</time>
      </trkpt>
      <trkpt lat="45.6032930" lon="7.5212100">
        <ele>2576.4000000</ele>
        <time>2009-10-04T12:19:13Z</time>
      </trkpt>
      <trkpt lat="45.6032570" lon="7.5212050">
        <ele>2577.4890000</ele>
        <time>2009-10-04T12:19:18Z</time>
      </trkpt>
      <trkpt lat="45.6031880" lon="7.5212320">
        <ele>2578.9690000</ele>
        <time>2009-10-04T12:19:28Z</time>
      </trkpt>
      <trkpt lat="45.6031610" lon="7.5212380">
        <ele>2579.6680000</ele>
        <time>2009-10-04T12:19:34Z</time>
      </trkpt>
      <trkpt lat="45.6031150" lon="7.5212500">
        <ele>2580.4950000</ele>
        <time>2009-10-04T12:19:42Z</time>
      </trkpt>
      <trkpt lat="45.6029880" lon="7.5213000">
        <ele>2581.3280000</ele>
        <time>2009-10-04T12:19:52Z</time>
      </trkpt>
      <trkpt lat="45.6028560" lon="7.5213490">
        <ele>2581.5730000</ele>
        <time>2009-10-04T12:20:02Z</time>
      </trkpt>
      <trkpt lat="45.6027340" lon="7.5213930">
        <ele>2581.6000000</ele>
        <time>2009-10-04T12:20:08Z</time>
      </trkpt>
      <trkpt lat="45.6026050" lon="7.5214200">
        <ele>2579.9540000</ele>
        <time>2009-10-04T12:20:12Z</time>
      </trkpt>
      <trkpt lat="45.6025580" lon="7.5214310">
        <ele>2579.7600000</ele>
        <time>2009-10-04T12:20:13Z</time>
      </trkpt>
      <trkpt lat="45.6024220" lon="7.5214590">
        <ele>2580.0550000</ele>
        <time>2009-10-04T12:20:17Z</time>
      </trkpt>
      <trkpt lat="45.6023160" lon="7.5214600">
        <ele>2580.1240000</ele>
        <time>2009-10-04T12:20:23Z</time>
      </trkpt>
      <trkpt lat="45.6022850" lon="7.5214510">
        <ele>2579.9470000</ele>
        <time>2009-10-04T12:20:28Z</time>
      </trkpt>
      <trkpt lat="45.6022810" lon="7.5214480">
        <ele>2579.9720000</ele>
        <time>2009-10-04T12:20:35Z</time>
      </trkpt>
      <trkpt lat="45.6023020" lon="7.5215160">
        <ele>2580.3820000</ele>
        <time>2009-10-04T12:20:43Z</time>
      </trkpt>
      <trkpt lat="45.6023120" lon="7.5215410">
        <ele>2579.8460000</ele>
        <time>2009-10-04T12:20:50Z</time>
      </trkpt>
      <trkpt lat="45.6022810" lon="7.5215480">
        <ele>2581.9920000</ele>
        <time>2009-10-04T12:27:32Z</time>
      </trkpt>
      <trkpt lat="45.6022950" lon="7.5215410">
        <ele>2582.0860000</ele>
        <time>2009-10-04T12:27:57Z</time>
      </trkpt>
      <trkpt lat="45.6022990" lon="7.5215360">
        <ele>2580.9790000</ele>
        <time>2009-10-04T12:28:16Z</time>
      </trkpt>
      <trkpt lat="45.6022980" lon="7.5215360">
        <ele>2579.9130000</ele>
        <time>2009-10-04T12:28:24Z</time>
      </trkpt>
      <trkpt lat="45.6023030" lon="7.5215370">
        <ele>2581.4170000</ele>
        <time>2009-10-04T12:28:26Z</time>
      </trkpt>
      <trkpt lat="45.6023130" lon="7.5215370">
        <ele>2582.3170000</ele>
        <time>2009-10-04T12:28:40Z</time>
      </trkpt>
      <trkpt lat="45.6023200" lon="7.5215540">
        <ele>2582.1440000</ele>
        <time>2009-10-04T12:29:27Z</time>
      </trkpt>
      <trkpt lat="45.6023130" lon="7.5214990">
        <ele>2582.7460000</ele>
        <time>2009-10-04T12:31:40Z</time>
      </trkpt>
      <trkpt lat="45.6022880" lon="7.5214470">
        <ele>2582.6110000</ele>
        <time>2009-10-04T12:31:52Z</time>
      </trkpt>
      <trkpt lat="45.6022810" lon="7.5214440">
        <ele>2582.2810000</ele>
        <time>2009-10-04T12:31:57Z</time>
      </trkpt>
      <trkpt lat="45.6022940" lon="7.5215040">
        <ele>2582.7170000</ele>
        <time>2009-10-04T12:32:05Z</time>
      </trkpt>
      <trkpt lat="45.6022800" lon="7.5215480">
        <ele>2583.0370000</ele>
        <time>2009-10-04T12:32:15Z</time>
      </trkpt>
      <trkpt lat="45.6022880" lon="7.5215710">
        <ele>2583.5660000</ele>
        <time>2009-10-04T12:32:26Z</time>
      </trkpt>
      <trkpt lat="45.6022800" lon="7.5215950">
        <ele>2583.4310000</ele>
        <time>2009-10-04T12:32:28Z</time>
      </trkpt>
      <trkpt lat="45.6022650" lon="7.5216090">
        <ele>2583.8350000</ele>
        <time>2009-10-04T12:32:35Z</time>
      </trkpt>
      <trkpt lat="45.6022600" lon="7.5216160">
        <ele>2583.3720000</ele>
        <time>2009-10-04T12:32:43Z</time>
      </trkpt>
      <trkpt lat="45.6022350" lon="7.5217400">
        <ele>2584.9460000</ele>
        <time>2009-10-04T12:32:51Z</time>
      </trkpt>
      <trkpt lat="45.6022270" lon="7.5218260">
        <ele>2585.5250000</ele>
        <time>2009-10-04T12:32:58Z</time>
      </trkpt>
      <trkpt lat="45.6021990" lon="7.5218070">
        <ele>2585.0470000</ele>
        <time>2009-10-04T12:33:13Z</time>
      </trkpt>
      <trkpt lat="45.6022190" lon="7.5218240">
        <ele>2584.7850000</ele>
        <time>2009-10-04T12:33:35Z</time>
      </trkpt>
      <trkpt lat="45.6022120" lon="7.5218790">
        <ele>2586.1510000</ele>
        <time>2009-10-04T12:33:40Z</time>
      </trkpt>
      <trkpt lat="45.6022450" lon="7.5219460">
        <ele>2586.4060000</ele>
        <time>2009-10-04T12:33:46Z</time>
      </trkpt>
      <trkpt lat="45.6022950" lon="7.5219600">
        <ele>2586.2250000</ele>
        <time>2009-10-04T12:33:52Z</time>
      </trkpt>
      <trkpt lat="45.6023180" lon="7.5219520">
        <ele>2585.7650000</ele>
        <time>2009-10-04T12:33:57Z</time>
      </trkpt>
      <trkpt lat="45.6023820" lon="7.5218560">
        <ele>2586.0520000</ele>
        <time>2009-10-04T12:34:03Z</time>
      </trkpt>
      <trkpt lat="45.6024240" lon="7.5217060">
        <ele>2585.2710000</ele>
        <time>2009-10-04T12:34:10Z</time>
      </trkpt>
      <trkpt lat="45.6023500" lon="7.5216480">
        <ele>2585.0860000</ele>
        <time>2009-10-04T12:34:16Z</time>
      </trkpt>
      <trkpt lat="45.6023050" lon="7.5216980">
        <ele>2585.3370000</ele>
        <time>2009-10-04T12:34:22Z</time>
      </trkpt>
      <trkpt lat="45.6023060" lon="7.5217090">
        <ele>2585.2600000</ele>
        <time>2009-10-04T12:34:23Z</time>
      </trkpt>
      <trkpt lat="45.6023260" lon="7.5217450">
        <ele>2585.1450000</ele>
        <time>2009-10-04T12:34:31Z</time>
      </trkpt>
      <trkpt lat="45.6023010" lon="7.5217450">
        <ele>2584.9970000</ele>
        <time>2009-10-04T12:34:41Z</time>
      </trkpt>
      <trkpt lat="45.6022810" lon="7.5217450">
        <ele>2584.7060000</ele>
        <time>2009-10-04T12:35:00Z</time>
      </trkpt>
      <trkpt lat="45.6022310" lon="7.5217370">
        <ele>2585.6840000</ele>
        <time>2009-10-04T12:37:11Z</time>
      </trkpt>
      <trkpt lat="45.6022260" lon="7.5216870">
        <ele>2584.9420000</ele>
        <time>2009-10-04T12:37:15Z</time>
      </trkpt>
      <trkpt lat="45.6023350" lon="7.5215950">
        <ele>2585.0000000</ele>
        <time>2009-10-04T12:37:23Z</time>
      </trkpt>
      <trkpt lat="45.6024530" lon="7.5215690">
        <ele>2584.6590000</ele>
        <time>2009-10-04T12:37:28Z</time>
      </trkpt>
      <trkpt lat="45.6026320" lon="7.5215020">
        <ele>2585.3230000</ele>
        <time>2009-10-04T12:37:34Z</time>
      </trkpt>
      <trkpt lat="45.6027230" lon="7.5214060">
        <ele>2585.2420000</ele>
        <time>2009-10-04T12:37:39Z</time>
      </trkpt>
      <trkpt lat="45.6028760" lon="7.5212950">
        <ele>2585.6400000</ele>
        <time>2009-10-04T12:37:46Z</time>
      </trkpt>
      <trkpt lat="45.6030870" lon="7.5212400">
        <ele>2584.9270000</ele>
        <time>2009-10-04T12:37:54Z</time>
      </trkpt>
      <trkpt lat="45.6031940" lon="7.5211580">
        <ele>2583.2680000</ele>
        <time>2009-10-04T12:37:58Z</time>
      </trkpt>
      <trkpt lat="45.6031960" lon="7.5211420">
        <ele>2583.2180000</ele>
        <time>2009-10-04T12:37:59Z</time>
      </trkpt>
      <trkpt lat="45.6032000" lon="7.5211330">
        <ele>2582.2780000</ele>
        <time>2009-10-04T12:38:07Z</time>
      </trkpt>
      <trkpt lat="45.6031880" lon="7.5211150">
        <ele>2582.3270000</ele>
        <time>2009-10-04T12:38:44Z</time>
      </trkpt>
      <trkpt lat="45.6031810" lon="7.5211070">
        <ele>2582.7410000</ele>
        <time>2009-10-04T12:38:47Z</time>
      </trkpt>
      <trkpt lat="45.6031700" lon="7.5211140">
        <ele>2582.6440000</ele>
        <time>2009-10-04T12:38:54Z</time>
      </trkpt>
      <trkpt lat="45.6031720" lon="7.5211180">
        <ele>2582.8650000</ele>
        <time>2009-10-04T12:38:56Z</time>
      </trkpt>
      <trkpt lat="45.6032350" lon="7.5211310">
        <ele>2583.0830000</ele>
        <time>2009-10-04T12:39:00Z</time>
      </trkpt>
      <trkpt lat="45.6034170" lon="7.5211450">
        <ele>2578.8120000</ele>
        <time>2009-10-04T12:39:04Z</time>
      </trkpt>
      <trkpt lat="45.6036160" lon="7.5211150">
        <ele>2573.3410000</ele>
        <time>2009-10-04T12:39:08Z</time>
      </trkpt>
      <trkpt lat="45.6037470" lon="7.5209610">
        <ele>2569.4830000</ele>
        <time>2009-10-04T12:39:11Z</time>
      </trkpt>
      <trkpt lat="45.6038800" lon="7.5206730">
        <ele>2563.8960000</ele>
        <time>2009-10-04T12:39:15Z</time>
      </trkpt>
      <trkpt lat="45.6039120" lon="7.5205960">
        <ele>2563.1760000</ele>
        <time>2009-10-04T12:39:16Z</time>
      </trkpt>
      <trkpt lat="45.6039790" lon="7.5204860">
        <ele>2561.4420000</ele>
        <time>2009-10-04T12:39:18Z</time>
      </trkpt>
      <trkpt lat="45.6041440" lon="7.5201810">
        <ele>2553.4820000</ele>
        <time>2009-10-04T12:39:24Z</time>
      </trkpt>
      <trkpt lat="45.6042400" lon="7.5201400">
        <ele>2551.9660000</ele>
        <time>2009-10-04T12:39:27Z</time>
      </trkpt>
      <trkpt lat="45.6042750" lon="7.5201790">
        <ele>2551.3690000</ele>
        <time>2009-10-04T12:39:28Z</time>
      </trkpt>
      <trkpt lat="45.6043940" lon="7.5203170">
        <ele>2548.0470000</ele>
        <time>2009-10-04T12:39:31Z</time>
      </trkpt>
      <trkpt lat="45.6044480" lon="7.5206050">
        <ele>2547.0020000</ele>
        <time>2009-10-04T12:39:35Z</time>
      </trkpt>
      <trkpt lat="45.6044370" lon="7.5210710">
        <ele>2542.3170000</ele>
        <time>2009-10-04T12:39:40Z</time>
      </trkpt>
      <trkpt lat="45.6043980" lon="7.5212510">
        <ele>2541.5010000</ele>
        <time>2009-10-04T12:39:42Z</time>
      </trkpt>
      <trkpt lat="45.6042380" lon="7.5214400">
        <ele>2539.0020000</ele>
        <time>2009-10-04T12:39:45Z</time>
      </trkpt>
      <trkpt lat="45.6039910" lon="7.5216510">
        <ele>2533.5700000</ele>
        <time>2009-10-04T12:39:49Z</time>
      </trkpt>
      <trkpt lat="45.6038760" lon="7.5218010">
        <ele>2531.8110000</ele>
        <time>2009-10-04T12:39:51Z</time>
      </trkpt>
      <trkpt lat="45.6037130" lon="7.5221420">
        <ele>2526.1860000</ele>
        <time>2009-10-04T12:39:55Z</time>
      </trkpt>
      <trkpt lat="45.6036810" lon="7.5223160">
        <ele>2523.9260000</ele>
        <time>2009-10-04T12:39:57Z</time>
      </trkpt>
      <trkpt lat="45.6036650" lon="7.5224820">
        <ele>2520.8650000</ele>
        <time>2009-10-04T12:39:59Z</time>
      </trkpt>
      <trkpt lat="45.6037350" lon="7.5227560">
        <ele>2516.8050000</ele>
        <time>2009-10-04T12:40:03Z</time>
      </trkpt>
      <trkpt lat="45.6038630" lon="7.5228570">
        <ele>2513.7280000</ele>
        <time>2009-10-04T12:40:06Z</time>
      </trkpt>
      <trkpt lat="45.6039120" lon="7.5228340">
        <ele>2512.6150000</ele>
        <time>2009-10-04T12:40:07Z</time>
      </trkpt>
      <trkpt lat="45.6041920" lon="7.5228510">
        <ele>2507.9670000</ele>
        <time>2009-10-04T12:40:12Z</time>
      </trkpt>
      <trkpt lat="45.6043150" lon="7.5229970">
        <ele>2504.0930000</ele>
        <time>2009-10-04T12:40:15Z</time>
      </trkpt>
      <trkpt lat="45.6043450" lon="7.5230300">
        <ele>2502.6960000</ele>
        <time>2009-10-04T12:40:16Z</time>
      </trkpt>
      <trkpt lat="45.6044060" lon="7.5230990">
        <ele>2500.5170000</ele>
        <time>2009-10-04T12:40:18Z</time>
      </trkpt>
      <trkpt lat="45.6045550" lon="7.5232420">
        <ele>2497.4650000</ele>
        <time>2009-10-04T12:40:22Z</time>
      </trkpt>
      <trkpt lat="45.6046560" lon="7.5233300">
        <ele>2494.3020000</ele>
        <time>2009-10-04T12:40:24Z</time>
      </trkpt>
      <trkpt lat="45.6048910" lon="7.5234560">
        <ele>2491.0630000</ele>
        <time>2009-10-04T12:40:28Z</time>
      </trkpt>
      <trkpt lat="45.6051330" lon="7.5235820">
        <ele>2487.3230000</ele>
        <time>2009-10-04T12:40:32Z</time>
      </trkpt>
      <trkpt lat="45.6052630" lon="7.5237010">
        <ele>2483.5910000</ele>
        <time>2009-10-04T12:40:35Z</time>
      </trkpt>
      <trkpt lat="45.6053670" lon="7.5237970">
        <ele>2482.4960000</ele>
        <time>2009-10-04T12:40:37Z</time>
      </trkpt>
      <trkpt lat="45.6056180" lon="7.5240990">
        <ele>2478.8820000</ele>
        <time>2009-10-04T12:40:41Z</time>
      </trkpt>
      <trkpt lat="45.6056850" lon="7.5241890">
        <ele>2477.7420000</ele>
        <time>2009-10-04T12:40:42Z</time>
      </trkpt>
      <trkpt lat="45.6058390" lon="7.5243170">
        <ele>2476.5850000</ele>
        <time>2009-10-04T12:40:44Z</time>
      </trkpt>
      <trkpt lat="45.6059210" lon="7.5243590">
        <ele>2475.7080000</ele>
        <time>2009-10-04T12:40:45Z</time>
      </trkpt>
      <trkpt lat="45.6061860" lon="7.5246030">
        <ele>2473.1350000</ele>
        <time>2009-10-04T12:40:49Z</time>
      </trkpt>
      <trkpt lat="45.6064300" lon="7.5247260">
        <ele>2470.2430000</ele>
        <time>2009-10-04T12:40:53Z</time>
      </trkpt>
      <trkpt lat="45.6065710" lon="7.5246140">
        <ele>2465.9240000</ele>
        <time>2009-10-04T12:40:56Z</time>
      </trkpt>
      <trkpt lat="45.6065740" lon="7.5242940">
        <ele>2464.3980000</ele>
        <time>2009-10-04T12:40:59Z</time>
      </trkpt>
      <trkpt lat="45.6065750" lon="7.5240460">
        <ele>2462.5850000</ele>
        <time>2009-10-04T12:41:01Z</time>
      </trkpt>
      <trkpt lat="45.6065980" lon="7.5236600">
        <ele>2461.5840000</ele>
        <time>2009-10-04T12:41:04Z</time>
      </trkpt>
      <trkpt lat="45.6067100" lon="7.5231270">
        <ele>2459.7680000</ele>
        <time>2009-10-04T12:41:09Z</time>
      </trkpt>
      <trkpt lat="45.6069000" lon="7.5229530">
        <ele>2459.3170000</ele>
        <time>2009-10-04T12:41:12Z</time>
      </trkpt>
      <trkpt lat="45.6070920" lon="7.5229890">
        <ele>2458.7700000</ele>
        <time>2009-10-04T12:41:15Z</time>
      </trkpt>
      <trkpt lat="45.6072790" lon="7.5231350">
        <ele>2457.0140000</ele>
        <time>2009-10-04T12:41:18Z</time>
      </trkpt>
      <trkpt lat="45.6073950" lon="7.5232980">
        <ele>2454.6960000</ele>
        <time>2009-10-04T12:41:20Z</time>
      </trkpt>
      <trkpt lat="45.6076070" lon="7.5237060">
        <ele>2453.5750000</ele>
        <time>2009-10-04T12:41:25Z</time>
      </trkpt>
      <trkpt lat="45.6077220" lon="7.5239050">
        <ele>2453.0700000</ele>
        <time>2009-10-04T12:41:28Z</time>
      </trkpt>
      <trkpt lat="45.6079120" lon="7.5241180">
        <ele>2451.6060000</ele>
        <time>2009-10-04T12:41:32Z</time>
      </trkpt>
      <trkpt lat="45.6082250" lon="7.5245100">
        <ele>2449.8550000</ele>
        <time>2009-10-04T12:41:39Z</time>
      </trkpt>
      <trkpt lat="45.6086350" lon="7.5249620">
        <ele>2446.0620000</ele>
        <time>2009-10-04T12:41:47Z</time>
      </trkpt>
      <trkpt lat="45.6087490" lon="7.5250990">
        <ele>2444.8460000</ele>
        <time>2009-10-04T12:41:49Z</time>
      </trkpt>
      <trkpt lat="45.6089180" lon="7.5252500">
        <ele>2441.6490000</ele>
        <time>2009-10-04T12:41:52Z</time>
      </trkpt>
      <trkpt lat="45.6089990" lon="7.5253460">
        <ele>2438.2110000</ele>
        <time>2009-10-04T12:41:56Z</time>
      </trkpt>
      <trkpt lat="45.6090210" lon="7.5253780">
        <ele>2438.5670000</ele>
        <time>2009-10-04T12:41:58Z</time>
      </trkpt>
      <trkpt lat="45.6091730" lon="7.5255980">
        <ele>2435.7160000</ele>
        <time>2009-10-04T12:42:02Z</time>
      </trkpt>
      <trkpt lat="45.6093720" lon="7.5259850">
        <ele>2432.0030000</ele>
        <time>2009-10-04T12:42:06Z</time>
      </trkpt>
      <trkpt lat="45.6095000" lon="7.5262410">
        <ele>2428.8080000</ele>
        <time>2009-10-04T12:42:09Z</time>
      </trkpt>
      <trkpt lat="45.6096320" lon="7.5264850">
        <ele>2424.9740000</ele>
        <time>2009-10-04T12:42:13Z</time>
      </trkpt>
      <trkpt lat="45.6096540" lon="7.5266460">
        <ele>2423.4330000</ele>
        <time>2009-10-04T12:42:15Z</time>
      </trkpt>
      <trkpt lat="45.6097590" lon="7.5269950">
        <ele>2416.8080000</ele>
        <time>2009-10-04T12:42:21Z</time>
      </trkpt>
      <trkpt lat="45.6097620" lon="7.5270090">
        <ele>2416.5350000</ele>
        <time>2009-10-04T12:42:22Z</time>
      </trkpt>
      <trkpt lat="45.6097630" lon="7.5270170">
        <ele>2416.7030000</ele>
        <time>2009-10-04T12:42:25Z</time>
      </trkpt>
      <trkpt lat="45.6097110" lon="7.5270680">
        <ele>2415.7520000</ele>
        <time>2009-10-04T12:42:29Z</time>
      </trkpt>
      <trkpt lat="45.6095720" lon="7.5271020">
        <ele>2413.7380000</ele>
        <time>2009-10-04T12:42:32Z</time>
      </trkpt>
      <trkpt lat="45.6093690" lon="7.5272830">
        <ele>2410.1530000</ele>
        <time>2009-10-04T12:42:36Z</time>
      </trkpt>
      <trkpt lat="45.6092870" lon="7.5277180">
        <ele>2406.4200000</ele>
        <time>2009-10-04T12:42:41Z</time>
      </trkpt>
      <trkpt lat="45.6093900" lon="7.5279590">
        <ele>2405.9240000</ele>
        <time>2009-10-04T12:42:44Z</time>
      </trkpt>
      <trkpt lat="45.6094640" lon="7.5280730">
        <ele>2404.9160000</ele>
        <time>2009-10-04T12:42:46Z</time>
      </trkpt>
      <trkpt lat="45.6095300" lon="7.5281830">
        <ele>2403.8370000</ele>
        <time>2009-10-04T12:42:48Z</time>
      </trkpt>
      <trkpt lat="45.6096500" lon="7.5284410">
        <ele>2401.4600000</ele>
        <time>2009-10-04T12:42:52Z</time>
      </trkpt>
      <trkpt lat="45.6097340" lon="7.5286170">
        <ele>2399.8640000</ele>
        <time>2009-10-04T12:42:55Z</time>
      </trkpt>
      <trkpt lat="45.6098350" lon="7.5288440">
        <ele>2397.1380000</ele>
        <time>2009-10-04T12:42:59Z</time>
      </trkpt>
      <trkpt lat="45.6100070" lon="7.5291920">
        <ele>2393.3360000</ele>
        <time>2009-10-04T12:43:05Z</time>
      </trkpt>
      <trkpt lat="45.6101590" lon="7.5295760">
        <ele>2389.5620000</ele>
        <time>2009-10-04T12:43:10Z</time>
      </trkpt>
      <trkpt lat="45.6102540" lon="7.5297420">
        <ele>2388.2430000</ele>
        <time>2009-10-04T12:43:12Z</time>
      </trkpt>
      <trkpt lat="45.6105410" lon="7.5302140">
        <ele>2385.6440000</ele>
        <time>2009-10-04T12:43:18Z</time>
      </trkpt>
      <trkpt lat="45.6106810" lon="7.5304430">
        <ele>2383.9930000</ele>
        <time>2009-10-04T12:43:21Z</time>
      </trkpt>
      <trkpt lat="45.6107280" lon="7.5305210">
        <ele>2383.9370000</ele>
        <time>2009-10-04T12:43:22Z</time>
      </trkpt>
      <trkpt lat="45.6109660" lon="7.5306880">
        <ele>2381.8590000</ele>
        <time>2009-10-04T12:43:26Z</time>
      </trkpt>
      <trkpt lat="45.6111210" lon="7.5306260">
        <ele>2381.7720000</ele>
        <time>2009-10-04T12:43:29Z</time>
      </trkpt>
      <trkpt lat="45.6111990" lon="7.5304780">
        <ele>2380.4690000</ele>
        <time>2009-10-04T12:43:32Z</time>
      </trkpt>
      <trkpt lat="45.6112870" lon="7.5303870">
        <ele>2379.7730000</ele>
        <time>2009-10-04T12:43:36Z</time>
      </trkpt>
      <trkpt lat="45.6113010" lon="7.5304470">
        <ele>2378.5550000</ele>
        <time>2009-10-04T12:43:37Z</time>
      </trkpt>
      <trkpt lat="45.6113570" lon="7.5306870">
        <ele>2375.3120000</ele>
        <time>2009-10-04T12:43:42Z</time>
      </trkpt>
      <trkpt lat="45.6114570" lon="7.5308380">
        <ele>2372.5980000</ele>
        <time>2009-10-04T12:43:46Z</time>
      </trkpt>
      <trkpt lat="45.6115680" lon="7.5309610">
        <ele>2370.1810000</ele>
        <time>2009-10-04T12:43:49Z</time>
      </trkpt>
      <trkpt lat="45.6117610" lon="7.5311830">
        <ele>2365.9410000</ele>
        <time>2009-10-04T12:43:54Z</time>
      </trkpt>
      <trkpt lat="45.6119530" lon="7.5314360">
        <ele>2362.2240000</ele>
        <time>2009-10-04T12:44:00Z</time>
      </trkpt>
      <trkpt lat="45.6119580" lon="7.5314760">
        <ele>2361.7860000</ele>
        <time>2009-10-04T12:44:01Z</time>
      </trkpt>
      <trkpt lat="45.6118710" lon="7.5315590">
        <ele>2359.4160000</ele>
        <time>2009-10-04T12:44:05Z</time>
      </trkpt>
      <trkpt lat="45.6117520" lon="7.5315950">
        <ele>2358.1380000</ele>
        <time>2009-10-04T12:44:09Z</time>
      </trkpt>
      <trkpt lat="45.6117750" lon="7.5316730">
        <ele>2357.6280000</ele>
        <time>2009-10-04T12:44:12Z</time>
      </trkpt>
      <trkpt lat="45.6118830" lon="7.5317140">
        <ele>2355.0570000</ele>
        <time>2009-10-04T12:44:15Z</time>
      </trkpt>
      <trkpt lat="45.6119900" lon="7.5317730">
        <ele>2354.1710000</ele>
        <time>2009-10-04T12:44:17Z</time>
      </trkpt>
      <trkpt lat="45.6121960" lon="7.5319600">
        <ele>2352.0450000</ele>
        <time>2009-10-04T12:44:21Z</time>
      </trkpt>
      <trkpt lat="45.6122570" lon="7.5320760">
        <ele>2350.5660000</ele>
        <time>2009-10-04T12:44:23Z</time>
      </trkpt>
      <trkpt lat="45.6122770" lon="7.5321460">
        <ele>2350.1460000</ele>
        <time>2009-10-04T12:44:24Z</time>
      </trkpt>
      <trkpt lat="45.6125000" lon="7.5325990">
        <ele>2347.9080000</ele>
        <time>2009-10-04T12:44:31Z</time>
      </trkpt>
      <trkpt lat="45.6126010" lon="7.5328710">
        <ele>2346.6120000</ele>
        <time>2009-10-04T12:44:34Z</time>
      </trkpt>
      <trkpt lat="45.6126380" lon="7.5330650">
        <ele>2345.8570000</ele>
        <time>2009-10-04T12:44:36Z</time>
      </trkpt>
      <trkpt lat="45.6126510" lon="7.5333320">
        <ele>2345.4350000</ele>
        <time>2009-10-04T12:44:40Z</time>
      </trkpt>
      <trkpt lat="45.6126500" lon="7.5333420">
        <ele>2344.6550000</ele>
        <time>2009-10-04T12:44:44Z</time>
      </trkpt>
      <trkpt lat="45.6126370" lon="7.5333010">
        <ele>2344.8900000</ele>
        <time>2009-10-04T12:46:23Z</time>
      </trkpt>
      <trkpt lat="45.6126280" lon="7.5333610">
        <ele>2345.1880000</ele>
        <time>2009-10-04T12:46:27Z</time>
      </trkpt>
      <trkpt lat="45.6126240" lon="7.5335900">
        <ele>2344.6080000</ele>
        <time>2009-10-04T12:46:34Z</time>
      </trkpt>
      <trkpt lat="45.6126390" lon="7.5336400">
        <ele>2344.3450000</ele>
        <time>2009-10-04T12:46:35Z</time>
      </trkpt>
      <trkpt lat="45.6127170" lon="7.5338180">
        <ele>2343.7470000</ele>
        <time>2009-10-04T12:46:38Z</time>
      </trkpt>
      <trkpt lat="45.6128020" lon="7.5341250">
        <ele>2342.2620000</ele>
        <time>2009-10-04T12:46:42Z</time>
      </trkpt>
      <trkpt lat="45.6128550" lon="7.5342710">
        <ele>2341.6890000</ele>
        <time>2009-10-04T12:46:44Z</time>
      </trkpt>
      <trkpt lat="45.6130050" lon="7.5345620">
        <ele>2342.0070000</ele>
        <time>2009-10-04T12:46:50Z</time>
      </trkpt>
      <trkpt lat="45.6131570" lon="7.5348780">
        <ele>2340.8900000</ele>
        <time>2009-10-04T12:46:57Z</time>
      </trkpt>
      <trkpt lat="45.6132710" lon="7.5351590">
        <ele>2339.9420000</ele>
        <time>2009-10-04T12:47:03Z</time>
      </trkpt>
      <trkpt lat="45.6132900" lon="7.5352400">
        <ele>2339.5250000</ele>
        <time>2009-10-04T12:47:05Z</time>
      </trkpt>
      <trkpt lat="45.6133200" lon="7.5353690">
        <ele>2338.2240000</ele>
        <time>2009-10-04T12:47:09Z</time>
      </trkpt>
      <trkpt lat="45.6134500" lon="7.5354480">
        <ele>2337.3960000</ele>
        <time>2009-10-04T12:47:12Z</time>
      </trkpt>
      <trkpt lat="45.6135500" lon="7.5355560">
        <ele>2336.5080000</ele>
        <time>2009-10-04T12:47:14Z</time>
      </trkpt>
      <trkpt lat="45.6138060" lon="7.5358180">
        <ele>2333.0700000</ele>
        <time>2009-10-04T12:47:19Z</time>
      </trkpt>
      <trkpt lat="45.6138640" lon="7.5359870">
        <ele>2331.7990000</ele>
        <time>2009-10-04T12:47:21Z</time>
      </trkpt>
      <trkpt lat="45.6139090" lon="7.5361690">
        <ele>2330.2640000</ele>
        <time>2009-10-04T12:47:23Z</time>
      </trkpt>
      <trkpt lat="45.6138740" lon="7.5364360">
        <ele>2329.0320000</ele>
        <time>2009-10-04T12:47:27Z</time>
      </trkpt>
      <trkpt lat="45.6138170" lon="7.5365170">
        <ele>2328.2950000</ele>
        <time>2009-10-04T12:47:29Z</time>
      </trkpt>
      <trkpt lat="45.6137360" lon="7.5366420">
        <ele>2326.1870000</ele>
        <time>2009-10-04T12:47:32Z</time>
      </trkpt>
      <trkpt lat="45.6137720" lon="7.5367810">
        <ele>2324.5940000</ele>
        <time>2009-10-04T12:47:34Z</time>
      </trkpt>
      <trkpt lat="45.6139670" lon="7.5373620">
        <ele>2319.0720000</ele>
        <time>2009-10-04T12:47:40Z</time>
      </trkpt>
      <trkpt lat="45.6140150" lon="7.5376760">
        <ele>2316.5710000</ele>
        <time>2009-10-04T12:47:44Z</time>
      </trkpt>
      <trkpt lat="45.6140130" lon="7.5379840">
        <ele>2314.8360000</ele>
        <time>2009-10-04T12:47:48Z</time>
      </trkpt>
      <trkpt lat="45.6140970" lon="7.5383130">
        <ele>2311.8930000</ele>
        <time>2009-10-04T12:47:52Z</time>
      </trkpt>
      <trkpt lat="45.6142030" lon="7.5387050">
        <ele>2306.7490000</ele>
        <time>2009-10-04T12:47:58Z</time>
      </trkpt>
      <trkpt lat="45.6142040" lon="7.5388510">
        <ele>2303.8740000</ele>
        <time>2009-10-04T12:48:00Z</time>
      </trkpt>
      <trkpt lat="45.6141250" lon="7.5392010">
        <ele>2297.9900000</ele>
        <time>2009-10-04T12:48:05Z</time>
      </trkpt>
      <trkpt lat="45.6141570" lon="7.5393720">
        <ele>2297.3590000</ele>
        <time>2009-10-04T12:48:07Z</time>
      </trkpt>
      <trkpt lat="45.6142130" lon="7.5395560">
        <ele>2296.0410000</ele>
        <time>2009-10-04T12:48:09Z</time>
      </trkpt>
      <trkpt lat="45.6142620" lon="7.5397600">
        <ele>2295.0310000</ele>
        <time>2009-10-04T12:48:11Z</time>
      </trkpt>
      <trkpt lat="45.6143690" lon="7.5403230">
        <ele>2291.5610000</ele>
        <time>2009-10-04T12:48:16Z</time>
      </trkpt>
      <trkpt lat="45.6144820" lon="7.5408130">
        <ele>2288.3490000</ele>
        <time>2009-10-04T12:48:21Z</time>
      </trkpt>
      <trkpt lat="45.6145840" lon="7.5412010">
        <ele>2285.7540000</ele>
        <time>2009-10-04T12:48:26Z</time>
      </trkpt>
      <trkpt lat="45.6146090" lon="7.5412980">
        <ele>2284.9440000</ele>
        <time>2009-10-04T12:48:27Z</time>
      </trkpt>
      <trkpt lat="45.6146550" lon="7.5416230">
        <ele>2283.6990000</ele>
        <time>2009-10-04T12:48:30Z</time>
      </trkpt>
      <trkpt lat="45.6147760" lon="7.5422990">
        <ele>2280.2190000</ele>
        <time>2009-10-04T12:48:36Z</time>
      </trkpt>
      <trkpt lat="45.6148330" lon="7.5428030">
        <ele>2277.0500000</ele>
        <time>2009-10-04T12:48:42Z</time>
      </trkpt>
      <trkpt lat="45.6148160" lon="7.5430410">
        <ele>2275.0920000</ele>
        <time>2009-10-04T12:48:45Z</time>
      </trkpt>
      <trkpt lat="45.6148140" lon="7.5432890">
        <ele>2271.7380000</ele>
        <time>2009-10-04T12:48:50Z</time>
      </trkpt>
      <trkpt lat="45.6148530" lon="7.5435070">
        <ele>2267.8230000</ele>
        <time>2009-10-04T12:48:56Z</time>
      </trkpt>
      <trkpt lat="45.6148730" lon="7.5437740">
        <ele>2264.4450000</ele>
        <time>2009-10-04T12:49:01Z</time>
      </trkpt>
      <trkpt lat="45.6148590" lon="7.5439680">
        <ele>2261.5910000</ele>
        <time>2009-10-04T12:49:05Z</time>
      </trkpt>
      <trkpt lat="45.6148630" lon="7.5439650">
        <ele>2261.0880000</ele>
        <time>2009-10-04T12:49:10Z</time>
      </trkpt>
      <trkpt lat="45.6148580" lon="7.5439480">
        <ele>2260.9020000</ele>
        <time>2009-10-04T12:49:33Z</time>
      </trkpt>
      <trkpt lat="45.6147260" lon="7.5441140">
        <ele>2259.7040000</ele>
        <time>2009-10-04T12:49:39Z</time>
      </trkpt>
      <trkpt lat="45.6145320" lon="7.5443100">
        <ele>2256.7610000</ele>
        <time>2009-10-04T12:49:44Z</time>
      </trkpt>
      <trkpt lat="45.6144130" lon="7.5444050">
        <ele>2254.3960000</ele>
        <time>2009-10-04T12:49:46Z</time>
      </trkpt>
      <trkpt lat="45.6141610" lon="7.5446850">
        <ele>2249.0590000</ele>
        <time>2009-10-04T12:49:50Z</time>
      </trkpt>
      <trkpt lat="45.6140310" lon="7.5449110">
        <ele>2246.3120000</ele>
        <time>2009-10-04T12:49:54Z</time>
      </trkpt>
      <trkpt lat="45.6139290" lon="7.5451100">
        <ele>2242.9560000</ele>
        <time>2009-10-04T12:49:58Z</time>
      </trkpt>
      <trkpt lat="45.6138830" lon="7.5453110">
        <ele>2240.5050000</ele>
        <time>2009-10-04T12:50:01Z</time>
      </trkpt>
      <trkpt lat="45.6138520" lon="7.5455470">
        <ele>2236.6420000</ele>
        <time>2009-10-04T12:50:04Z</time>
      </trkpt>
      <trkpt lat="45.6138520" lon="7.5460590">
        <ele>2232.8260000</ele>
        <time>2009-10-04T12:50:09Z</time>
      </trkpt>
      <trkpt lat="45.6138480" lon="7.5461780">
        <ele>2232.7410000</ele>
        <time>2009-10-04T12:50:10Z</time>
      </trkpt>
      <trkpt lat="45.6138420" lon="7.5462940">
        <ele>2232.3580000</ele>
        <time>2009-10-04T12:50:11Z</time>
      </trkpt>
      <trkpt lat="45.6137890" lon="7.5466230">
        <ele>2231.0690000</ele>
        <time>2009-10-04T12:50:14Z</time>
      </trkpt>
      <trkpt lat="45.6136690" lon="7.5470560">
        <ele>2228.9770000</ele>
        <time>2009-10-04T12:50:18Z</time>
      </trkpt>
      <trkpt lat="45.6136010" lon="7.5472740">
        <ele>2228.3990000</ele>
        <time>2009-10-04T12:50:20Z</time>
      </trkpt>
      <trkpt lat="45.6134610" lon="7.5478520">
        <ele>2227.6070000</ele>
        <time>2009-10-04T12:50:26Z</time>
      </trkpt>
      <trkpt lat="45.6133690" lon="7.5480910">
        <ele>2226.7410000</ele>
        <time>2009-10-04T12:50:29Z</time>
      </trkpt>
      <trkpt lat="45.6132840" lon="7.5484070">
        <ele>2225.4060000</ele>
        <time>2009-10-04T12:50:33Z</time>
      </trkpt>
      <trkpt lat="45.6132010" lon="7.5486290">
        <ele>2223.7880000</ele>
        <time>2009-10-04T12:50:36Z</time>
      </trkpt>
      <trkpt lat="45.6131020" lon="7.5490290">
        <ele>2221.5500000</ele>
        <time>2009-10-04T12:50:40Z</time>
      </trkpt>
      <trkpt lat="45.6130430" lon="7.5492250">
        <ele>2220.0050000</ele>
        <time>2009-10-04T12:50:42Z</time>
      </trkpt>
      <trkpt lat="45.6129940" lon="7.5493760">
        <ele>2218.2980000</ele>
        <time>2009-10-04T12:50:44Z</time>
      </trkpt>
      <trkpt lat="45.6129530" lon="7.5497720">
        <ele>2216.9770000</ele>
        <time>2009-10-04T12:50:49Z</time>
      </trkpt>
      <trkpt lat="45.6129130" lon="7.5500050">
        <ele>2216.3450000</ele>
        <time>2009-10-04T12:50:52Z</time>
      </trkpt>
      <trkpt lat="45.6129010" lon="7.5501660">
        <ele>2215.2030000</ele>
        <time>2009-10-04T12:50:54Z</time>
      </trkpt>
      <trkpt lat="45.6129070" lon="7.5504220">
        <ele>2214.3860000</ele>
        <time>2009-10-04T12:50:57Z</time>
      </trkpt>
      <trkpt lat="45.6128320" lon="7.5507740">
        <ele>2212.0550000</ele>
        <time>2009-10-04T12:51:01Z</time>
      </trkpt>
      <trkpt lat="45.6127930" lon="7.5508710">
        <ele>2212.0390000</ele>
        <time>2009-10-04T12:51:02Z</time>
      </trkpt>
      <trkpt lat="45.6125430" lon="7.5513080">
        <ele>2208.1290000</ele>
        <time>2009-10-04T12:51:07Z</time>
      </trkpt>
      <trkpt lat="45.6123300" lon="7.5513510">
        <ele>2205.6040000</ele>
        <time>2009-10-04T12:51:10Z</time>
      </trkpt>
      <trkpt lat="45.6121710" lon="7.5512230">
        <ele>2203.4320000</ele>
        <time>2009-10-04T12:51:13Z</time>
      </trkpt>
      <trkpt lat="45.6120660" lon="7.5511610">
        <ele>2201.3160000</ele>
        <time>2009-10-04T12:51:16Z</time>
      </trkpt>
      <trkpt lat="45.6120550" lon="7.5512430">
        <ele>2200.5330000</ele>
        <time>2009-10-04T12:51:18Z</time>
      </trkpt>
      <trkpt lat="45.6121130" lon="7.5513380">
        <ele>2200.5660000</ele>
        <time>2009-10-04T12:51:20Z</time>
      </trkpt>
      <trkpt lat="45.6122410" lon="7.5517200">
        <ele>2199.4440000</ele>
        <time>2009-10-04T12:51:28Z</time>
      </trkpt>
      <trkpt lat="45.6121870" lon="7.5517590">
        <ele>2198.9960000</ele>
        <time>2009-10-04T12:51:33Z</time>
      </trkpt>
      <trkpt lat="45.6121620" lon="7.5517580">
        <ele>2199.0710000</ele>
        <time>2009-10-04T12:51:41Z</time>
      </trkpt>
      <trkpt lat="45.6121730" lon="7.5518750">
        <ele>2198.0160000</ele>
        <time>2009-10-04T12:51:46Z</time>
      </trkpt>
      <trkpt lat="45.6122070" lon="7.5519150">
        <ele>2197.2970000</ele>
        <time>2009-10-04T12:51:47Z</time>
      </trkpt>
      <trkpt lat="45.6123210" lon="7.5523360">
        <ele>2194.0140000</ele>
        <time>2009-10-04T12:51:52Z</time>
      </trkpt>
      <trkpt lat="45.6123320" lon="7.5525680">
        <ele>2193.0090000</ele>
        <time>2009-10-04T12:51:54Z</time>
      </trkpt>
      <trkpt lat="45.6124230" lon="7.5530420">
        <ele>2190.3340000</ele>
        <time>2009-10-04T12:51:58Z</time>
      </trkpt>
      <trkpt lat="45.6124460" lon="7.5531480">
        <ele>2189.3800000</ele>
        <time>2009-10-04T12:51:59Z</time>
      </trkpt>
      <trkpt lat="45.6125890" lon="7.5534530">
        <ele>2186.3580000</ele>
        <time>2009-10-04T12:52:03Z</time>
      </trkpt>
      <trkpt lat="45.6127090" lon="7.5537680">
        <ele>2182.7460000</ele>
        <time>2009-10-04T12:52:07Z</time>
      </trkpt>
      <trkpt lat="45.6127490" lon="7.5538450">
        <ele>2182.4850000</ele>
        <time>2009-10-04T12:52:08Z</time>
      </trkpt>
      <trkpt lat="45.6127970" lon="7.5539170">
        <ele>2180.5480000</ele>
        <time>2009-10-04T12:52:09Z</time>
      </trkpt>
      <trkpt lat="45.6131950" lon="7.5545240">
        <ele>2171.3100000</ele>
        <time>2009-10-04T12:52:16Z</time>
      </trkpt>
      <trkpt lat="45.6133870" lon="7.5549050">
        <ele>2165.3120000</ele>
        <time>2009-10-04T12:52:20Z</time>
      </trkpt>
      <trkpt lat="45.6136020" lon="7.5551950">
        <ele>2160.9530000</ele>
        <time>2009-10-04T12:52:24Z</time>
      </trkpt>
      <trkpt lat="45.6137080" lon="7.5552810">
        <ele>2159.6350000</ele>
        <time>2009-10-04T12:52:26Z</time>
      </trkpt>
      <trkpt lat="45.6138310" lon="7.5553030">
        <ele>2157.5420000</ele>
        <time>2009-10-04T12:52:29Z</time>
      </trkpt>
      <trkpt lat="45.6138530" lon="7.5552980">
        <ele>2157.3960000</ele>
        <time>2009-10-04T12:52:30Z</time>
      </trkpt>
      <trkpt lat="45.6138700" lon="7.5553030">
        <ele>2157.1340000</ele>
        <time>2009-10-04T12:52:33Z</time>
      </trkpt>
      <trkpt lat="45.6138720" lon="7.5552920">
        <ele>2156.9400000</ele>
        <time>2009-10-04T12:52:46Z</time>
      </trkpt>
      <trkpt lat="45.6138360" lon="7.5552910">
        <ele>2154.6010000</ele>
        <time>2009-10-04T12:53:59Z</time>
      </trkpt>
      <trkpt lat="45.6138370" lon="7.5552890">
        <ele>2154.3960000</ele>
        <time>2009-10-04T12:54:00Z</time>
      </trkpt>
      <trkpt lat="45.6138340" lon="7.5552920">
        <ele>2156.5230000</ele>
        <time>2009-10-04T12:54:17Z</time>
      </trkpt>
      <trkpt lat="45.6138450" lon="7.5552750">
        <ele>2172.3370000</ele>
        <time>2009-10-04T12:55:04Z</time>
      </trkpt>
      <trkpt lat="45.6138450" lon="7.5552750">
        <ele>2160.0580000</ele>
        <time>2009-10-04T12:55:05Z</time>
      </trkpt>
      <trkpt lat="45.6138480" lon="7.5552800">
        <ele>2154.1460000</ele>
        <time>2009-10-04T12:56:01Z</time>
      </trkpt>
      <trkpt lat="45.6138540" lon="7.5553120">
        <ele>2156.7030000</ele>
        <time>2009-10-04T12:58:58Z</time>
      </trkpt>
      <trkpt lat="45.6138390" lon="7.5553080">
        <ele>2160.0100000</ele>
        <time>2009-10-04T12:59:20Z</time>
      </trkpt>
      <trkpt lat="45.6138390" lon="7.5553100">
        <ele>2157.1520000</ele>
        <time>2009-10-04T12:59:23Z</time>
      </trkpt>
      <trkpt lat="45.6138480" lon="7.5553110">
        <ele>2157.1190000</ele>
        <time>2009-10-04T12:59:32Z</time>
      </trkpt>
      <trkpt lat="45.6138430" lon="7.5553100">
        <ele>2156.9990000</ele>
        <time>2009-10-04T12:59:40Z</time>
      </trkpt>
      <trkpt lat="45.6138780" lon="7.5553740">
        <ele>2156.7510000</ele>
        <time>2009-10-04T12:59:45Z</time>
      </trkpt>
      <trkpt lat="45.6138730" lon="7.5553940">
        <ele>2157.0130000</ele>
        <time>2009-10-04T12:59:46Z</time>
      </trkpt>
      <trkpt lat="45.6138230" lon="7.5556180">
        <ele>2157.2690000</ele>
        <time>2009-10-04T12:59:57Z</time>
      </trkpt>
      <trkpt lat="45.6138230" lon="7.5556430">
        <ele>2169.7950000</ele>
        <time>2009-10-04T12:59:58Z</time>
      </trkpt>
      <trkpt lat="45.6138240" lon="7.5557490">
        <ele>2175.1330000</ele>
        <time>2009-10-04T13:00:01Z</time>
      </trkpt>
      <trkpt lat="45.6138480" lon="7.5558220">
        <ele>2156.6890000</ele>
        <time>2009-10-04T13:00:03Z</time>
      </trkpt>
      <trkpt lat="45.6140010" lon="7.5560810">
        <ele>2156.1820000</ele>
        <time>2009-10-04T13:00:11Z</time>
      </trkpt>
      <trkpt lat="45.6141820" lon="7.5561400">
        <ele>2155.7990000</ele>
        <time>2009-10-04T13:00:17Z</time>
      </trkpt>
      <trkpt lat="45.6142770" lon="7.5560820">
        <ele>2154.5470000</ele>
        <time>2009-10-04T13:00:21Z</time>
      </trkpt>
      <trkpt lat="45.6143200" lon="7.5559340">
        <ele>2152.8930000</ele>
        <time>2009-10-04T13:00:24Z</time>
      </trkpt>
      <trkpt lat="45.6144250" lon="7.5557570">
        <ele>2150.5120000</ele>
        <time>2009-10-04T13:00:28Z</time>
      </trkpt>
      <trkpt lat="45.6144550" lon="7.5557690">
        <ele>2150.2880000</ele>
        <time>2009-10-04T13:00:29Z</time>
      </trkpt>
      <trkpt lat="45.6145560" lon="7.5558640">
        <ele>2149.0670000</ele>
        <time>2009-10-04T13:00:32Z</time>
      </trkpt>
      <trkpt lat="45.6146850" lon="7.5558350">
        <ele>2146.6110000</ele>
        <time>2009-10-04T13:00:36Z</time>
      </trkpt>
      <trkpt lat="45.6146910" lon="7.5557860">
        <ele>2145.7680000</ele>
        <time>2009-10-04T13:00:37Z</time>
      </trkpt>
      <trkpt lat="45.6147030" lon="7.5554280">
        <ele>2142.7840000</ele>
        <time>2009-10-04T13:00:42Z</time>
      </trkpt>
      <trkpt lat="45.6147040" lon="7.5553540">
        <ele>2142.1530000</ele>
        <time>2009-10-04T13:00:43Z</time>
      </trkpt>
      <trkpt lat="45.6146950" lon="7.5551870">
        <ele>2140.8660000</ele>
        <time>2009-10-04T13:00:45Z</time>
      </trkpt>
      <trkpt lat="45.6146960" lon="7.5549860">
        <ele>2139.6860000</ele>
        <time>2009-10-04T13:00:47Z</time>
      </trkpt>
      <trkpt lat="45.6146810" lon="7.5544340">
        <ele>2133.9020000</ele>
        <time>2009-10-04T13:00:52Z</time>
      </trkpt>
      <trkpt lat="45.6146970" lon="7.5543280">
        <ele>2132.6880000</ele>
        <time>2009-10-04T13:00:53Z</time>
      </trkpt>
      <trkpt lat="45.6147520" lon="7.5538830">
        <ele>2126.9790000</ele>
        <time>2009-10-04T13:00:57Z</time>
      </trkpt>
      <trkpt lat="45.6148490" lon="7.5534730">
        <ele>2123.5290000</ele>
        <time>2009-10-04T13:01:01Z</time>
      </trkpt>
      <trkpt lat="45.6149720" lon="7.5533640">
        <ele>2122.8370000</ele>
        <time>2009-10-04T13:01:03Z</time>
      </trkpt>
      <trkpt lat="45.6151280" lon="7.5531930">
        <ele>2121.6760000</ele>
        <time>2009-10-04T13:01:06Z</time>
      </trkpt>
      <trkpt lat="45.6152900" lon="7.5530470">
        <ele>2121.4320000</ele>
        <time>2009-10-04T13:01:09Z</time>
      </trkpt>
      <trkpt lat="45.6153790" lon="7.5530470">
        <ele>2122.4080000</ele>
        <time>2009-10-04T13:01:11Z</time>
      </trkpt>
      <trkpt lat="45.6155300" lon="7.5530640">
        <ele>2124.6050000</ele>
        <time>2009-10-04T13:01:16Z</time>
      </trkpt>
      <trkpt lat="45.6155740" lon="7.5531830">
        <ele>2126.4680000</ele>
        <time>2009-10-04T13:01:22Z</time>
      </trkpt>
      <trkpt lat="45.6156650" lon="7.5532990">
        <ele>2127.2330000</ele>
        <time>2009-10-04T13:01:29Z</time>
      </trkpt>
      <trkpt lat="45.6157630" lon="7.5533800">
        <ele>2127.3490000</ele>
        <time>2009-10-04T13:01:36Z</time>
      </trkpt>
      <trkpt lat="45.6158510" lon="7.5535100">
        <ele>2125.7440000</ele>
        <time>2009-10-04T13:01:42Z</time>
      </trkpt>
      <trkpt lat="45.6159060" lon="7.5535810">
        <ele>2125.0750000</ele>
        <time>2009-10-04T13:01:44Z</time>
      </trkpt>
      <trkpt lat="45.6160610" lon="7.5537270">
        <ele>2123.6940000</ele>
        <time>2009-10-04T13:01:49Z</time>
      </trkpt>
      <trkpt lat="45.6160950" lon="7.5538270">
        <ele>2122.2030000</ele>
        <time>2009-10-04T13:01:51Z</time>
      </trkpt>
      <trkpt lat="45.6161200" lon="7.5540050">
        <ele>2120.6220000</ele>
        <time>2009-10-04T13:01:54Z</time>
      </trkpt>
      <trkpt lat="45.6162050" lon="7.5539580">
        <ele>2119.5320000</ele>
        <time>2009-10-04T13:01:57Z</time>
      </trkpt>
      <trkpt lat="45.6163390" lon="7.5539050">
        <ele>2116.8710000</ele>
        <time>2009-10-04T13:02:01Z</time>
      </trkpt>
      <trkpt lat="45.6163620" lon="7.5539600">
        <ele>2115.8850000</ele>
        <time>2009-10-04T13:02:02Z</time>
      </trkpt>
      <trkpt lat="45.6164610" lon="7.5541960">
        <ele>2113.6720000</ele>
        <time>2009-10-04T13:02:05Z</time>
      </trkpt>
      <trkpt lat="45.6166520" lon="7.5544610">
        <ele>2113.3030000</ele>
        <time>2009-10-04T13:02:09Z</time>
      </trkpt>
      <trkpt lat="45.6166360" lon="7.5546180">
        <ele>2113.1660000</ele>
        <time>2009-10-04T13:02:12Z</time>
      </trkpt>
      <trkpt lat="45.6165950" lon="7.5546910">
        <ele>2112.8550000</ele>
        <time>2009-10-04T13:02:15Z</time>
      </trkpt>
      <trkpt lat="45.6164820" lon="7.5549400">
        <ele>2111.7390000</ele>
        <time>2009-10-04T13:02:21Z</time>
      </trkpt>
      <trkpt lat="45.6163620" lon="7.5551910">
        <ele>2113.8120000</ele>
        <time>2009-10-04T13:02:27Z</time>
      </trkpt>
      <trkpt lat="45.6162680" lon="7.5553210">
        <ele>2113.8920000</ele>
        <time>2009-10-04T13:02:33Z</time>
      </trkpt>
      <trkpt lat="45.6162090" lon="7.5555430">
        <ele>2112.8150000</ele>
        <time>2009-10-04T13:02:37Z</time>
      </trkpt>
      <trkpt lat="45.6162150" lon="7.5556450">
        <ele>2112.9700000</ele>
        <time>2009-10-04T13:02:39Z</time>
      </trkpt>
      <trkpt lat="45.6162530" lon="7.5560500">
        <ele>2110.9630000</ele>
        <time>2009-10-04T13:02:46Z</time>
      </trkpt>
      <trkpt lat="45.6163940" lon="7.5565720">
        <ele>2107.3010000</ele>
        <time>2009-10-04T13:02:53Z</time>
      </trkpt>
      <trkpt lat="45.6164990" lon="7.5570620">
        <ele>2104.5460000</ele>
        <time>2009-10-04T13:02:59Z</time>
      </trkpt>
      <trkpt lat="45.6165970" lon="7.5577190">
        <ele>2101.5750000</ele>
        <time>2009-10-04T13:03:06Z</time>
      </trkpt>
      <trkpt lat="45.6166590" lon="7.5581050">
        <ele>2098.6150000</ele>
        <time>2009-10-04T13:03:10Z</time>
      </trkpt>
      <trkpt lat="45.6166860" lon="7.5583780">
        <ele>2097.1540000</ele>
        <time>2009-10-04T13:03:14Z</time>
      </trkpt>
      <trkpt lat="45.6166880" lon="7.5584560">
        <ele>2096.4840000</ele>
        <time>2009-10-04T13:03:17Z</time>
      </trkpt>
      <trkpt lat="45.6166900" lon="7.5584560">
        <ele>2096.4570000</ele>
        <time>2009-10-04T13:03:18Z</time>
      </trkpt>
      <trkpt lat="45.6167010" lon="7.5584880">
        <ele>2096.0480000</ele>
        <time>2009-10-04T13:03:22Z</time>
      </trkpt>
      <trkpt lat="45.6166990" lon="7.5585100">
        <ele>2096.0650000</ele>
        <time>2009-10-04T13:03:24Z</time>
      </trkpt>
      <trkpt lat="45.6167010" lon="7.5585940">
        <ele>2095.7340000</ele>
        <time>2009-10-04T13:03:30Z</time>
      </trkpt>
      <trkpt lat="45.6167000" lon="7.5586090">
        <ele>2095.1620000</ele>
        <time>2009-10-04T13:03:31Z</time>
      </trkpt>
      <trkpt lat="45.6167000" lon="7.5587760">
        <ele>2094.6910000</ele>
        <time>2009-10-04T13:03:37Z</time>
      </trkpt>
      <trkpt lat="45.6167210" lon="7.5589180">
        <ele>2093.3750000</ele>
        <time>2009-10-04T13:03:42Z</time>
      </trkpt>
      <trkpt lat="45.6167220" lon="7.5591150">
        <ele>2091.2470000</ele>
        <time>2009-10-04T13:03:48Z</time>
      </trkpt>
      <trkpt lat="45.6166950" lon="7.5593100">
        <ele>2089.5050000</ele>
        <time>2009-10-04T13:03:54Z</time>
      </trkpt>
      <trkpt lat="45.6167050" lon="7.5594880">
        <ele>2086.0290000</ele>
        <time>2009-10-04T13:04:00Z</time>
      </trkpt>
      <trkpt lat="45.6167040" lon="7.5595370">
        <ele>2085.0070000</ele>
        <time>2009-10-04T13:04:02Z</time>
      </trkpt>
      <trkpt lat="45.6166900" lon="7.5596540">
        <ele>2082.5990000</ele>
        <time>2009-10-04T13:04:06Z</time>
      </trkpt>
      <trkpt lat="45.6166660" lon="7.5597300">
        <ele>2081.6480000</ele>
        <time>2009-10-04T13:04:08Z</time>
      </trkpt>
      <trkpt lat="45.6165920" lon="7.5599190">
        <ele>2079.0320000</ele>
        <time>2009-10-04T13:04:12Z</time>
      </trkpt>
      <trkpt lat="45.6166030" lon="7.5601090">
        <ele>2078.0400000</ele>
        <time>2009-10-04T13:04:16Z</time>
      </trkpt>
      <trkpt lat="45.6166070" lon="7.5601610">
        <ele>2077.8230000</ele>
        <time>2009-10-04T13:04:18Z</time>
      </trkpt>
      <trkpt lat="45.6166290" lon="7.5603440">
        <ele>2076.7820000</ele>
        <time>2009-10-04T13:04:25Z</time>
      </trkpt>
      <trkpt lat="45.6166500" lon="7.5605730">
        <ele>2075.0230000</ele>
        <time>2009-10-04T13:04:31Z</time>
      </trkpt>
      <trkpt lat="45.6167020" lon="7.5607940">
        <ele>2074.3020000</ele>
        <time>2009-10-04T13:04:36Z</time>
      </trkpt>
      <trkpt lat="45.6167070" lon="7.5608490">
        <ele>2073.8300000</ele>
        <time>2009-10-04T13:04:39Z</time>
      </trkpt>
      <trkpt lat="45.6166980" lon="7.5609000">
        <ele>2073.5650000</ele>
        <time>2009-10-04T13:05:03Z</time>
      </trkpt>
      <trkpt lat="45.6167290" lon="7.5609530">
        <ele>2074.1060000</ele>
        <time>2009-10-04T13:05:08Z</time>
      </trkpt>
      <trkpt lat="45.6168280" lon="7.5610720">
        <ele>2073.7640000</ele>
        <time>2009-10-04T13:05:13Z</time>
      </trkpt>
      <trkpt lat="45.6168780" lon="7.5611720">
        <ele>2073.3740000</ele>
        <time>2009-10-04T13:05:17Z</time>
      </trkpt>
      <trkpt lat="45.6169190" lon="7.5612280">
        <ele>2073.5470000</ele>
        <time>2009-10-04T13:05:21Z</time>
      </trkpt>
      <trkpt lat="45.6169360" lon="7.5613010">
        <ele>2072.3650000</ele>
        <time>2009-10-04T13:05:26Z</time>
      </trkpt>
      <trkpt lat="45.6169520" lon="7.5613060">
        <ele>2072.0030000</ele>
        <time>2009-10-04T13:05:32Z</time>
      </trkpt>
      <trkpt lat="45.6169680" lon="7.5613430">
        <ele>2071.9810000</ele>
        <time>2009-10-04T13:05:36Z</time>
      </trkpt>
      <trkpt lat="45.6170040" lon="7.5614020">
        <ele>2072.6300000</ele>
        <time>2009-10-04T13:05:43Z</time>
      </trkpt>
      <trkpt lat="45.6170110" lon="7.5614140">
        <ele>2072.9740000</ele>
        <time>2009-10-04T13:05:45Z</time>
      </trkpt>
      <trkpt lat="45.6170510" lon="7.5614970">
        <ele>2072.4720000</ele>
        <time>2009-10-04T13:05:53Z</time>
      </trkpt>
      <trkpt lat="45.6170960" lon="7.5615900">
        <ele>2071.2840000</ele>
        <time>2009-10-04T13:06:01Z</time>
      </trkpt>
      <trkpt lat="45.6171230" lon="7.5616720">
        <ele>2070.8210000</ele>
        <time>2009-10-04T13:06:05Z</time>
      </trkpt>
      <trkpt lat="45.6171640" lon="7.5618420">
        <ele>2070.3130000</ele>
        <time>2009-10-04T13:06:13Z</time>
      </trkpt>
      <trkpt lat="45.6172470" lon="7.5620380">
        <ele>2068.9190000</ele>
        <time>2009-10-04T13:06:18Z</time>
      </trkpt>
      <trkpt lat="45.6173300" lon="7.5622080">
        <ele>2068.1000000</ele>
        <time>2009-10-04T13:06:23Z</time>
      </trkpt>
      <trkpt lat="45.6173750" lon="7.5623140">
        <ele>2067.5200000</ele>
        <time>2009-10-04T13:06:27Z</time>
      </trkpt>
      <trkpt lat="45.6173930" lon="7.5623450">
        <ele>2067.2890000</ele>
        <time>2009-10-04T13:06:31Z</time>
      </trkpt>
      <trkpt lat="45.6174000" lon="7.5623560">
        <ele>2067.5330000</ele>
        <time>2009-10-04T13:06:32Z</time>
      </trkpt>
      <trkpt lat="45.6174130" lon="7.5623890">
        <ele>2067.5520000</ele>
        <time>2009-10-04T13:06:40Z</time>
      </trkpt>
      <trkpt lat="45.6174140" lon="7.5623880">
        <ele>2067.5170000</ele>
        <time>2009-10-04T13:06:42Z</time>
      </trkpt>
      <trkpt lat="45.6174610" lon="7.5624310">
        <ele>2069.3220000</ele>
        <time>2009-10-04T13:06:51Z</time>
      </trkpt>
      <trkpt lat="45.6174710" lon="7.5624740">
        <ele>2070.1350000</ele>
        <time>2009-10-04T13:06:55Z</time>
      </trkpt>
      <trkpt lat="45.6174910" lon="7.5624720">
        <ele>2070.3010000</ele>
        <time>2009-10-04T13:06:58Z</time>
      </trkpt>
      <trkpt lat="45.6175030" lon="7.5624270">
        <ele>2070.3700000</ele>
        <time>2009-10-04T13:07:02Z</time>
      </trkpt>
      <trkpt lat="45.6175120" lon="7.5623880">
        <ele>2071.3900000</ele>
        <time>2009-10-04T13:07:05Z</time>
      </trkpt>
      <trkpt lat="45.6175640" lon="7.5623220">
        <ele>2072.7430000</ele>
        <time>2009-10-04T13:07:13Z</time>
      </trkpt>
      <trkpt lat="45.6176030" lon="7.5623400">
        <ele>2073.6690000</ele>
        <time>2009-10-04T13:07:18Z</time>
      </trkpt>
      <trkpt lat="45.6176550" lon="7.5624420">
        <ele>2074.7210000</ele>
        <time>2009-10-04T13:07:28Z</time>
      </trkpt>
      <trkpt lat="45.6176640" lon="7.5624760">
        <ele>2074.8340000</ele>
        <time>2009-10-04T13:07:31Z</time>
      </trkpt>
      <trkpt lat="45.6176760" lon="7.5625370">
        <ele>2075.8430000</ele>
        <time>2009-10-04T13:07:37Z</time>
      </trkpt>
      <trkpt lat="45.6177270" lon="7.5626240">
        <ele>2077.2640000</ele>
        <time>2009-10-04T13:07:46Z</time>
      </trkpt>
      <trkpt lat="45.6177800" lon="7.5627050">
        <ele>2079.0240000</ele>
        <time>2009-10-04T13:07:56Z</time>
      </trkpt>
      <trkpt lat="45.6178270" lon="7.5627600">
        <ele>2080.6440000</ele>
        <time>2009-10-04T13:08:04Z</time>
      </trkpt>
      <trkpt lat="45.6178470" lon="7.5627940">
        <ele>2081.1270000</ele>
        <time>2009-10-04T13:08:09Z</time>
      </trkpt>
      <trkpt lat="45.6178540" lon="7.5628330">
        <ele>2081.0140000</ele>
        <time>2009-10-04T13:08:15Z</time>
      </trkpt>
      <trkpt lat="45.6178670" lon="7.5629070">
        <ele>2080.7800000</ele>
        <time>2009-10-04T13:08:32Z</time>
      </trkpt>
      <trkpt lat="45.6178790" lon="7.5631300">
        <ele>2080.0490000</ele>
        <time>2009-10-04T13:08:38Z</time>
      </trkpt>
      <trkpt lat="45.6178570" lon="7.5634500">
        <ele>2078.8260000</ele>
        <time>2009-10-04T13:08:44Z</time>
      </trkpt>
      <trkpt lat="45.6178510" lon="7.5635080">
        <ele>2078.6610000</ele>
        <time>2009-10-04T13:08:45Z</time>
      </trkpt>
      <trkpt lat="45.6177830" lon="7.5638250">
        <ele>2076.8980000</ele>
        <time>2009-10-04T13:08:51Z</time>
      </trkpt>
      <trkpt lat="45.6177730" lon="7.5639870">
        <ele>2075.1350000</ele>
        <time>2009-10-04T13:08:54Z</time>
      </trkpt>
      <trkpt lat="45.6177520" lon="7.5641730">
        <ele>2073.9490000</ele>
        <time>2009-10-04T13:08:57Z</time>
      </trkpt>
      <trkpt lat="45.6177110" lon="7.5643760">
        <ele>2072.4710000</ele>
        <time>2009-10-04T13:09:00Z</time>
      </trkpt>
      <trkpt lat="45.6176440" lon="7.5646530">
        <ele>2070.1940000</ele>
        <time>2009-10-04T13:09:04Z</time>
      </trkpt>
      <trkpt lat="45.6175700" lon="7.5651290">
        <ele>2066.9310000</ele>
        <time>2009-10-04T13:09:10Z</time>
      </trkpt>
      <trkpt lat="45.6174340" lon="7.5656010">
        <ele>2062.5040000</ele>
        <time>2009-10-04T13:09:16Z</time>
      </trkpt>
      <trkpt lat="45.6173760" lon="7.5658230">
        <ele>2061.1460000</ele>
        <time>2009-10-04T13:09:19Z</time>
      </trkpt>
      <trkpt lat="45.6172990" lon="7.5662740">
        <ele>2057.6150000</ele>
        <time>2009-10-04T13:09:26Z</time>
      </trkpt>
      <trkpt lat="45.6172960" lon="7.5662920">
        <ele>2057.2640000</ele>
        <time>2009-10-04T13:09:29Z</time>
      </trkpt>
      <trkpt lat="45.6173060" lon="7.5662870">
        <ele>2057.1520000</ele>
        <time>2009-10-04T13:09:39Z</time>
      </trkpt>
      <trkpt lat="45.6173790" lon="7.5663310">
        <ele>2057.8780000</ele>
        <time>2009-10-04T13:09:47Z</time>
      </trkpt>
      <trkpt lat="45.6174390" lon="7.5664250">
        <ele>2057.0930000</ele>
        <time>2009-10-04T13:09:57Z</time>
      </trkpt>
      <trkpt lat="45.6174440" lon="7.5664420">
        <ele>2056.9970000</ele>
        <time>2009-10-04T13:10:04Z</time>
      </trkpt>
      <trkpt lat="45.6174430" lon="7.5664450">
        <ele>2056.9500000</ele>
        <time>2009-10-04T13:10:06Z</time>
      </trkpt>
      <trkpt lat="45.6174290" lon="7.5665610">
        <ele>2055.3460000</ele>
        <time>2009-10-04T13:10:10Z</time>
      </trkpt>
      <trkpt lat="45.6174210" lon="7.5668320">
        <ele>2050.0840000</ele>
        <time>2009-10-04T13:10:15Z</time>
      </trkpt>
      <trkpt lat="45.6174180" lon="7.5668910">
        <ele>2050.5410000</ele>
        <time>2009-10-04T13:10:16Z</time>
      </trkpt>
      <trkpt lat="45.6173850" lon="7.5670460">
        <ele>2046.8990000</ele>
        <time>2009-10-04T13:10:19Z</time>
      </trkpt>
      <trkpt lat="45.6172880" lon="7.5674850">
        <ele>2042.8030000</ele>
        <time>2009-10-04T13:10:25Z</time>
      </trkpt>
      <trkpt lat="45.6172710" lon="7.5675700">
        <ele>2042.4420000</ele>
        <time>2009-10-04T13:10:26Z</time>
      </trkpt>
      <trkpt lat="45.6171440" lon="7.5678780">
        <ele>2040.2090000</ele>
        <time>2009-10-04T13:10:30Z</time>
      </trkpt>
      <trkpt lat="45.6170290" lon="7.5682730">
        <ele>2037.9490000</ele>
        <time>2009-10-04T13:10:36Z</time>
      </trkpt>
      <trkpt lat="45.6169500" lon="7.5684470">
        <ele>2038.3750000</ele>
        <time>2009-10-04T13:10:40Z</time>
      </trkpt>
      <trkpt lat="45.6168780" lon="7.5688350">
        <ele>2036.9600000</ele>
        <time>2009-10-04T13:10:47Z</time>
      </trkpt>
      <trkpt lat="45.6168530" lon="7.5689600">
        <ele>2036.5630000</ele>
        <time>2009-10-04T13:10:49Z</time>
      </trkpt>
      <trkpt lat="45.6168120" lon="7.5692850">
        <ele>2032.5280000</ele>
        <time>2009-10-04T13:10:53Z</time>
      </trkpt>
      <trkpt lat="45.6168010" lon="7.5697760">
        <ele>2028.3860000</ele>
        <time>2009-10-04T13:10:57Z</time>
      </trkpt>
      <trkpt lat="45.6166780" lon="7.5704000">
        <ele>2023.9030000</ele>
        <time>2009-10-04T13:11:02Z</time>
      </trkpt>
      <trkpt lat="45.6166350" lon="7.5706320">
        <ele>2022.0460000</ele>
        <time>2009-10-04T13:11:04Z</time>
      </trkpt>
      <trkpt lat="45.6164760" lon="7.5712220">
        <ele>2018.1900000</ele>
        <time>2009-10-04T13:11:09Z</time>
      </trkpt>
      <trkpt lat="45.6164050" lon="7.5715610">
        <ele>2016.4300000</ele>
        <time>2009-10-04T13:11:12Z</time>
      </trkpt>
      <trkpt lat="45.6163750" lon="7.5718860">
        <ele>2015.6110000</ele>
        <time>2009-10-04T13:11:15Z</time>
      </trkpt>
      <trkpt lat="45.6163180" lon="7.5723420">
        <ele>2014.6990000</ele>
        <time>2009-10-04T13:11:20Z</time>
      </trkpt>
      <trkpt lat="45.6163050" lon="7.5726560">
        <ele>2015.0270000</ele>
        <time>2009-10-04T13:11:25Z</time>
      </trkpt>
      <trkpt lat="45.6163040" lon="7.5728280">
        <ele>2014.5060000</ele>
        <time>2009-10-04T13:11:28Z</time>
      </trkpt>
      <trkpt lat="45.6163760" lon="7.5732620">
        <ele>2013.5580000</ele>
        <time>2009-10-04T13:11:35Z</time>
      </trkpt>
      <trkpt lat="45.6163900" lon="7.5733910">
        <ele>2013.6330000</ele>
        <time>2009-10-04T13:11:38Z</time>
      </trkpt>
      <trkpt lat="45.6164360" lon="7.5735560">
        <ele>2013.7030000</ele>
        <time>2009-10-04T13:11:43Z</time>
      </trkpt>
      <trkpt lat="45.6164600" lon="7.5737230">
        <ele>2012.3660000</ele>
        <time>2009-10-04T13:11:48Z</time>
      </trkpt>
      <trkpt lat="45.6164910" lon="7.5737700">
        <ele>2011.4720000</ele>
        <time>2009-10-04T13:11:49Z</time>
      </trkpt>
      <trkpt lat="45.6165680" lon="7.5740370">
        <ele>2008.5350000</ele>
        <time>2009-10-04T13:11:54Z</time>
      </trkpt>
      <trkpt lat="45.6166190" lon="7.5741860">
        <ele>2004.7140000</ele>
        <time>2009-10-04T13:11:58Z</time>
      </trkpt>
      <trkpt lat="45.6166620" lon="7.5743740">
        <ele>2000.8430000</ele>
        <time>2009-10-04T13:12:02Z</time>
      </trkpt>
      <trkpt lat="45.6166820" lon="7.5744150">
        <ele>1999.8590000</ele>
        <time>2009-10-04T13:12:03Z</time>
      </trkpt>
      <trkpt lat="45.6167380" lon="7.5745630">
        <ele>1997.5700000</ele>
        <time>2009-10-04T13:12:06Z</time>
      </trkpt>
      <trkpt lat="45.6168170" lon="7.5748930">
        <ele>1991.9720000</ele>
        <time>2009-10-04T13:12:12Z</time>
      </trkpt>
      <trkpt lat="45.6168200" lon="7.5749460">
        <ele>1991.7220000</ele>
        <time>2009-10-04T13:12:13Z</time>
      </trkpt>
      <trkpt lat="45.6167960" lon="7.5751810">
        <ele>1987.1420000</ele>
        <time>2009-10-04T13:12:17Z</time>
      </trkpt>
      <trkpt lat="45.6168340" lon="7.5755720">
        <ele>1980.6230000</ele>
        <time>2009-10-04T13:12:24Z</time>
      </trkpt>
      <trkpt lat="45.6168390" lon="7.5756800">
        <ele>1978.4620000</ele>
        <time>2009-10-04T13:12:26Z</time>
      </trkpt>
      <trkpt lat="45.6167990" lon="7.5758840">
        <ele>1975.9900000</ele>
        <time>2009-10-04T13:12:29Z</time>
      </trkpt>
      <trkpt lat="45.6167160" lon="7.5760300">
        <ele>1973.6590000</ele>
        <time>2009-10-04T13:12:32Z</time>
      </trkpt>
      <trkpt lat="45.6166800" lon="7.5760450">
        <ele>1973.4250000</ele>
        <time>2009-10-04T13:12:33Z</time>
      </trkpt>
      <trkpt lat="45.6165670" lon="7.5760380">
        <ele>1970.6810000</ele>
        <time>2009-10-04T13:12:36Z</time>
      </trkpt>
      <trkpt lat="45.6165420" lon="7.5760640">
        <ele>1970.2990000</ele>
        <time>2009-10-04T13:12:37Z</time>
      </trkpt>
      <trkpt lat="45.6165360" lon="7.5762740">
        <ele>1966.5390000</ele>
        <time>2009-10-04T13:12:42Z</time>
      </trkpt>
      <trkpt lat="45.6166470" lon="7.5763990">
        <ele>1963.2280000</ele>
        <time>2009-10-04T13:12:46Z</time>
      </trkpt>
      <trkpt lat="45.6166710" lon="7.5764200">
        <ele>1962.9750000</ele>
        <time>2009-10-04T13:12:47Z</time>
      </trkpt>
      <trkpt lat="45.6167950" lon="7.5764950">
        <ele>1958.9060000</ele>
        <time>2009-10-04T13:12:51Z</time>
      </trkpt>
      <trkpt lat="45.6168880" lon="7.5765180">
        <ele>1957.7590000</ele>
        <time>2009-10-04T13:12:53Z</time>
      </trkpt>
      <trkpt lat="45.6170120" lon="7.5766300">
        <ele>1955.6140000</ele>
        <time>2009-10-04T13:12:56Z</time>
      </trkpt>
      <trkpt lat="45.6170780" lon="7.5767340">
        <ele>1955.0140000</ele>
        <time>2009-10-04T13:12:58Z</time>
      </trkpt>
      <trkpt lat="45.6171870" lon="7.5770770">
        <ele>1950.1470000</ele>
        <time>2009-10-04T13:13:04Z</time>
      </trkpt>
      <trkpt lat="45.6171440" lon="7.5774280">
        <ele>1945.2170000</ele>
        <time>2009-10-04T13:13:09Z</time>
      </trkpt>
      <trkpt lat="45.6171220" lon="7.5777630">
        <ele>1942.3270000</ele>
        <time>2009-10-04T13:13:12Z</time>
      </trkpt>
      <trkpt lat="45.6171350" lon="7.5781710">
        <ele>1941.9770000</ele>
        <time>2009-10-04T13:13:16Z</time>
      </trkpt>
      <trkpt lat="45.6171660" lon="7.5782180">
        <ele>1941.6680000</ele>
        <time>2009-10-04T13:13:19Z</time>
      </trkpt>
      <trkpt lat="45.6171630" lon="7.5782120">
        <ele>1941.3620000</ele>
        <time>2009-10-04T13:13:27Z</time>
      </trkpt>
      <trkpt lat="45.6171640" lon="7.5782450">
        <ele>1941.1970000</ele>
        <time>2009-10-04T13:13:34Z</time>
      </trkpt>
      <trkpt lat="45.6171530" lon="7.5783100">
        <ele>1940.7100000</ele>
        <time>2009-10-04T13:14:22Z</time>
      </trkpt>
      <trkpt lat="45.6170860" lon="7.5785060">
        <ele>1941.5980000</ele>
        <time>2009-10-04T13:14:29Z</time>
      </trkpt>
      <trkpt lat="45.6170550" lon="7.5786870">
        <ele>1940.6240000</ele>
        <time>2009-10-04T13:14:33Z</time>
      </trkpt>
      <trkpt lat="45.6169140" lon="7.5788340">
        <ele>1937.2200000</ele>
        <time>2009-10-04T13:14:39Z</time>
      </trkpt>
      <trkpt lat="45.6168640" lon="7.5788760">
        <ele>1937.2230000</ele>
        <time>2009-10-04T13:14:43Z</time>
      </trkpt>
      <trkpt lat="45.6168450" lon="7.5788920">
        <ele>1937.5170000</ele>
        <time>2009-10-04T13:14:55Z</time>
      </trkpt>
      <trkpt lat="45.6167990" lon="7.5789470">
        <ele>1936.7310000</ele>
        <time>2009-10-04T13:15:31Z</time>
      </trkpt>
      <trkpt lat="45.6167960" lon="7.5789490">
        <ele>1936.9080000</ele>
        <time>2009-10-04T13:15:36Z</time>
      </trkpt>
      <trkpt lat="45.6167590" lon="7.5790040">
        <ele>1936.1600000</ele>
        <time>2009-10-04T13:15:43Z</time>
      </trkpt>
      <trkpt lat="45.6166960" lon="7.5792000">
        <ele>1936.1990000</ele>
        <time>2009-10-04T13:15:49Z</time>
      </trkpt>
      <trkpt lat="45.6167210" lon="7.5795130">
        <ele>1935.1960000</ele>
        <time>2009-10-04T13:15:56Z</time>
      </trkpt>
      <trkpt lat="45.6167680" lon="7.5798730">
        <ele>1934.0390000</ele>
        <time>2009-10-04T13:16:03Z</time>
      </trkpt>
      <trkpt lat="45.6167880" lon="7.5800510">
        <ele>1933.1800000</ele>
        <time>2009-10-04T13:16:06Z</time>
      </trkpt>
      <trkpt lat="45.6167430" lon="7.5803400">
        <ele>1932.1400000</ele>
        <time>2009-10-04T13:16:11Z</time>
      </trkpt>
      <trkpt lat="45.6167390" lon="7.5805890">
        <ele>1929.9920000</ele>
        <time>2009-10-04T13:16:15Z</time>
      </trkpt>
      <trkpt lat="45.6167580" lon="7.5807090">
        <ele>1929.7130000</ele>
        <time>2009-10-04T13:16:17Z</time>
      </trkpt>
      <trkpt lat="45.6167050" lon="7.5807250">
        <ele>1928.4390000</ele>
        <time>2009-10-04T13:16:21Z</time>
      </trkpt>
      <trkpt lat="45.6167000" lon="7.5806850">
        <ele>1928.3290000</ele>
        <time>2009-10-04T13:16:22Z</time>
      </trkpt>
      <trkpt lat="45.6166770" lon="7.5805310">
        <ele>1927.4970000</ele>
        <time>2009-10-04T13:16:26Z</time>
      </trkpt>
      <trkpt lat="45.6166330" lon="7.5805700">
        <ele>1926.2370000</ele>
        <time>2009-10-04T13:16:30Z</time>
      </trkpt>
      <trkpt lat="45.6166280" lon="7.5806600">
        <ele>1925.4660000</ele>
        <time>2009-10-04T13:16:32Z</time>
      </trkpt>
      <trkpt lat="45.6166370" lon="7.5807530">
        <ele>1924.5440000</ele>
        <time>2009-10-04T13:16:34Z</time>
      </trkpt>
      <trkpt lat="45.6165890" lon="7.5808080">
        <ele>1922.7630000</ele>
        <time>2009-10-04T13:16:38Z</time>
      </trkpt>
      <trkpt lat="45.6165720" lon="7.5807560">
        <ele>1922.1390000</ele>
        <time>2009-10-04T13:16:40Z</time>
      </trkpt>
      <trkpt lat="45.6165460" lon="7.5804960">
        <ele>1918.8860000</ele>
        <time>2009-10-04T13:16:46Z</time>
      </trkpt>
      <trkpt lat="45.6165510" lon="7.5802970">
        <ele>1916.6660000</ele>
        <time>2009-10-04T13:16:49Z</time>
      </trkpt>
      <trkpt lat="45.6165380" lon="7.5801520">
        <ele>1914.3800000</ele>
        <time>2009-10-04T13:16:51Z</time>
      </trkpt>
      <trkpt lat="45.6164500" lon="7.5799040">
        <ele>1911.3170000</ele>
        <time>2009-10-04T13:16:55Z</time>
      </trkpt>
      <trkpt lat="45.6163560" lon="7.5795310">
        <ele>1905.4590000</ele>
        <time>2009-10-04T13:17:01Z</time>
      </trkpt>
      <trkpt lat="45.6163310" lon="7.5793520">
        <ele>1902.7260000</ele>
        <time>2009-10-04T13:17:04Z</time>
      </trkpt>
      <trkpt lat="45.6162510" lon="7.5792990">
        <ele>1901.3160000</ele>
        <time>2009-10-04T13:17:07Z</time>
      </trkpt>
      <trkpt lat="45.6161480" lon="7.5793500">
        <ele>1899.8270000</ele>
        <time>2009-10-04T13:17:10Z</time>
      </trkpt>
      <trkpt lat="45.6159750" lon="7.5792220">
        <ele>1896.3940000</ele>
        <time>2009-10-04T13:17:15Z</time>
      </trkpt>
      <trkpt lat="45.6159430" lon="7.5792090">
        <ele>1896.2040000</ele>
        <time>2009-10-04T13:17:16Z</time>
      </trkpt>
      <trkpt lat="45.6159130" lon="7.5792010">
        <ele>1895.5620000</ele>
        <time>2009-10-04T13:17:17Z</time>
      </trkpt>
      <trkpt lat="45.6158020" lon="7.5791770">
        <ele>1893.2480000</ele>
        <time>2009-10-04T13:17:21Z</time>
      </trkpt>
      <trkpt lat="45.6156980" lon="7.5791240">
        <ele>1890.2760000</ele>
        <time>2009-10-04T13:17:24Z</time>
      </trkpt>
      <trkpt lat="45.6156080" lon="7.5791030">
        <ele>1888.5600000</ele>
        <time>2009-10-04T13:17:26Z</time>
      </trkpt>
      <trkpt lat="45.6153950" lon="7.5789770">
        <ele>1885.2910000</ele>
        <time>2009-10-04T13:17:30Z</time>
      </trkpt>
      <trkpt lat="45.6152200" lon="7.5786480">
        <ele>1882.1900000</ele>
        <time>2009-10-04T13:17:35Z</time>
      </trkpt>
      <trkpt lat="45.6152080" lon="7.5783930">
        <ele>1879.6990000</ele>
        <time>2009-10-04T13:17:38Z</time>
      </trkpt>
      <trkpt lat="45.6150990" lon="7.5780060">
        <ele>1877.4590000</ele>
        <time>2009-10-04T13:17:42Z</time>
      </trkpt>
      <trkpt lat="45.6150070" lon="7.5777640">
        <ele>1876.6600000</ele>
        <time>2009-10-04T13:17:45Z</time>
      </trkpt>
      <trkpt lat="45.6149260" lon="7.5777890">
        <ele>1874.7130000</ele>
        <time>2009-10-04T13:17:48Z</time>
      </trkpt>
      <trkpt lat="45.6149220" lon="7.5779150">
        <ele>1873.6100000</ele>
        <time>2009-10-04T13:17:50Z</time>
      </trkpt>
      <trkpt lat="45.6149410" lon="7.5780760">
        <ele>1871.5720000</ele>
        <time>2009-10-04T13:17:52Z</time>
      </trkpt>
      <trkpt lat="45.6148890" lon="7.5783190">
        <ele>1868.8050000</ele>
        <time>2009-10-04T13:17:56Z</time>
      </trkpt>
      <trkpt lat="45.6148550" lon="7.5783840">
        <ele>1868.0730000</ele>
        <time>2009-10-04T13:17:57Z</time>
      </trkpt>
      <trkpt lat="45.6148230" lon="7.5786860">
        <ele>1865.3040000</ele>
        <time>2009-10-04T13:18:02Z</time>
      </trkpt>
      <trkpt lat="45.6149060" lon="7.5788450">
        <ele>1862.5380000</ele>
        <time>2009-10-04T13:18:06Z</time>
      </trkpt>
      <trkpt lat="45.6149640" lon="7.5791520">
        <ele>1858.3830000</ele>
        <time>2009-10-04T13:18:10Z</time>
      </trkpt>
      <trkpt lat="45.6149960" lon="7.5792470">
        <ele>1857.4680000</ele>
        <time>2009-10-04T13:18:11Z</time>
      </trkpt>
      <trkpt lat="45.6151200" lon="7.5796490">
        <ele>1854.7670000</ele>
        <time>2009-10-04T13:18:15Z</time>
      </trkpt>
      <trkpt lat="45.6151830" lon="7.5797910">
        <ele>1854.2810000</ele>
        <time>2009-10-04T13:18:17Z</time>
      </trkpt>
      <trkpt lat="45.6151750" lon="7.5799040">
        <ele>1852.1870000</ele>
        <time>2009-10-04T13:18:20Z</time>
      </trkpt>
      <trkpt lat="45.6151090" lon="7.5798160">
        <ele>1850.7080000</ele>
        <time>2009-10-04T13:18:22Z</time>
      </trkpt>
      <trkpt lat="45.6150650" lon="7.5797510">
        <ele>1849.3830000</ele>
        <time>2009-10-04T13:18:23Z</time>
      </trkpt>
      <trkpt lat="45.6149750" lon="7.5795870">
        <ele>1847.5330000</ele>
        <time>2009-10-04T13:18:25Z</time>
      </trkpt>
      <trkpt lat="45.6148210" lon="7.5793070">
        <ele>1846.1910000</ele>
        <time>2009-10-04T13:18:29Z</time>
      </trkpt>
      <trkpt lat="45.6146810" lon="7.5790570">
        <ele>1843.6990000</ele>
        <time>2009-10-04T13:18:34Z</time>
      </trkpt>
      <trkpt lat="45.6145700" lon="7.5788940">
        <ele>1841.7490000</ele>
        <time>2009-10-04T13:18:38Z</time>
      </trkpt>
      <trkpt lat="45.6144950" lon="7.5786040">
        <ele>1837.8190000</ele>
        <time>2009-10-04T13:18:43Z</time>
      </trkpt>
      <trkpt lat="45.6144240" lon="7.5787510">
        <ele>1834.7310000</ele>
        <time>2009-10-04T13:18:47Z</time>
      </trkpt>
      <trkpt lat="45.6144370" lon="7.5790500">
        <ele>1831.4530000</ele>
        <time>2009-10-04T13:18:52Z</time>
      </trkpt>
      <trkpt lat="45.6144370" lon="7.5791830">
        <ele>1830.3440000</ele>
        <time>2009-10-04T13:18:55Z</time>
      </trkpt>
      <trkpt lat="45.6142670" lon="7.5792660">
        <ele>1830.2480000</ele>
        <time>2009-10-04T13:19:01Z</time>
      </trkpt>
      <trkpt lat="45.6142460" lon="7.5792660">
        <ele>1830.5210000</ele>
        <time>2009-10-04T13:19:05Z</time>
      </trkpt>
      <trkpt lat="45.6142110" lon="7.5792900">
        <ele>1830.1760000</ele>
        <time>2009-10-04T13:19:57Z</time>
      </trkpt>
      <trkpt lat="45.6140990" lon="7.5793350">
        <ele>1830.3950000</ele>
        <time>2009-10-04T13:20:03Z</time>
      </trkpt>
      <trkpt lat="45.6140230" lon="7.5794970">
        <ele>1830.0640000</ele>
        <time>2009-10-04T13:20:09Z</time>
      </trkpt>
      <trkpt lat="45.6140040" lon="7.5797250">
        <ele>1830.3050000</ele>
        <time>2009-10-04T13:20:15Z</time>
      </trkpt>
      <trkpt lat="45.6140360" lon="7.5798840">
        <ele>1830.7480000</ele>
        <time>2009-10-04T13:20:20Z</time>
      </trkpt>
      <trkpt lat="45.6140850" lon="7.5800450">
        <ele>1831.7830000</ele>
        <time>2009-10-04T13:20:27Z</time>
      </trkpt>
      <trkpt lat="45.6141400" lon="7.5802720">
        <ele>1832.2490000</ele>
        <time>2009-10-04T13:20:35Z</time>
      </trkpt>
      <trkpt lat="45.6141960" lon="7.5804570">
        <ele>1833.5610000</ele>
        <time>2009-10-04T13:20:42Z</time>
      </trkpt>
      <trkpt lat="45.6141650" lon="7.5806910">
        <ele>1833.0880000</ele>
        <time>2009-10-04T13:20:48Z</time>
      </trkpt>
      <trkpt lat="45.6141840" lon="7.5808850">
        <ele>1833.3530000</ele>
        <time>2009-10-04T13:20:53Z</time>
      </trkpt>
      <trkpt lat="45.6142230" lon="7.5811370">
        <ele>1834.6280000</ele>
        <time>2009-10-04T13:21:01Z</time>
      </trkpt>
      <trkpt lat="45.6142610" lon="7.5812900">
        <ele>1835.6900000</ele>
        <time>2009-10-04T13:21:07Z</time>
      </trkpt>
      <trkpt lat="45.6143000" lon="7.5814630">
        <ele>1836.1120000</ele>
        <time>2009-10-04T13:21:14Z</time>
      </trkpt>
      <trkpt lat="45.6143430" lon="7.5816460">
        <ele>1837.6300000</ele>
        <time>2009-10-04T13:21:21Z</time>
      </trkpt>
      <trkpt lat="45.6143910" lon="7.5818390">
        <ele>1839.6090000</ele>
        <time>2009-10-04T13:21:29Z</time>
      </trkpt>
      <trkpt lat="45.6144490" lon="7.5820170">
        <ele>1840.5450000</ele>
        <time>2009-10-04T13:21:37Z</time>
      </trkpt>
      <trkpt lat="45.6145160" lon="7.5821550">
        <ele>1841.3330000</ele>
        <time>2009-10-04T13:21:44Z</time>
      </trkpt>
      <trkpt lat="45.6145680" lon="7.5822810">
        <ele>1841.8390000</ele>
        <time>2009-10-04T13:21:50Z</time>
      </trkpt>
      <trkpt lat="45.6146200" lon="7.5824100">
        <ele>1843.0440000</ele>
        <time>2009-10-04T13:21:57Z</time>
      </trkpt>
      <trkpt lat="45.6147120" lon="7.5825280">
        <ele>1844.1420000</ele>
        <time>2009-10-04T13:22:05Z</time>
      </trkpt>
      <trkpt lat="45.6148030" lon="7.5826080">
        <ele>1845.3000000</ele>
        <time>2009-10-04T13:22:12Z</time>
      </trkpt>
      <trkpt lat="45.6148340" lon="7.5826270">
        <ele>1845.6490000</ele>
        <time>2009-10-04T13:22:14Z</time>
      </trkpt>
      <trkpt lat="45.6148570" lon="7.5827130">
        <ele>1846.8270000</ele>
        <time>2009-10-04T13:22:18Z</time>
      </trkpt>
      <trkpt lat="45.6148790" lon="7.5829020">
        <ele>1848.1310000</ele>
        <time>2009-10-04T13:22:27Z</time>
      </trkpt>
      <trkpt lat="45.6148860" lon="7.5830660">
        <ele>1849.5800000</ele>
        <time>2009-10-04T13:22:35Z</time>
      </trkpt>
      <trkpt lat="45.6149320" lon="7.5832070">
        <ele>1850.6550000</ele>
        <time>2009-10-04T13:22:42Z</time>
      </trkpt>
      <trkpt lat="45.6149790" lon="7.5833400">
        <ele>1851.3210000</ele>
        <time>2009-10-04T13:22:49Z</time>
      </trkpt>
      <trkpt lat="45.6150330" lon="7.5835070">
        <ele>1851.8580000</ele>
        <time>2009-10-04T13:22:58Z</time>
      </trkpt>
      <trkpt lat="45.6150890" lon="7.5837090">
        <ele>1852.7630000</ele>
        <time>2009-10-04T13:23:07Z</time>
      </trkpt>
      <trkpt lat="45.6151160" lon="7.5838800">
        <ele>1852.6410000</ele>
        <time>2009-10-04T13:23:15Z</time>
      </trkpt>
      <trkpt lat="45.6151220" lon="7.5839560">
        <ele>1852.7480000</ele>
        <time>2009-10-04T13:23:18Z</time>
      </trkpt>
      <trkpt lat="45.6151660" lon="7.5842200">
        <ele>1853.6490000</ele>
        <time>2009-10-04T13:23:28Z</time>
      </trkpt>
      <trkpt lat="45.6152110" lon="7.5844130">
        <ele>1854.7590000</ele>
        <time>2009-10-04T13:23:36Z</time>
      </trkpt>
      <trkpt lat="45.6152670" lon="7.5846240">
        <ele>1853.3700000</ele>
        <time>2009-10-04T13:23:41Z</time>
      </trkpt>
      <trkpt lat="45.6153430" lon="7.5849990">
        <ele>1852.6480000</ele>
        <time>2009-10-04T13:23:48Z</time>
      </trkpt>
      <trkpt lat="45.6153520" lon="7.5853940">
        <ele>1852.0590000</ele>
        <time>2009-10-04T13:23:55Z</time>
      </trkpt>
      <trkpt lat="45.6154450" lon="7.5857370">
        <ele>1853.0300000</ele>
        <time>2009-10-04T13:24:03Z</time>
      </trkpt>
      <trkpt lat="45.6155240" lon="7.5858330">
        <ele>1853.8240000</ele>
        <time>2009-10-04T13:24:07Z</time>
      </trkpt>
      <trkpt lat="45.6156120" lon="7.5859020">
        <ele>1853.9710000</ele>
        <time>2009-10-04T13:24:13Z</time>
      </trkpt>
      <trkpt lat="45.6157000" lon="7.5860500">
        <ele>1853.7730000</ele>
        <time>2009-10-04T13:24:19Z</time>
      </trkpt>
      <trkpt lat="45.6157770" lon="7.5861730">
        <ele>1853.2860000</ele>
        <time>2009-10-04T13:24:25Z</time>
      </trkpt>
      <trkpt lat="45.6158630" lon="7.5863530">
        <ele>1853.0150000</ele>
        <time>2009-10-04T13:24:30Z</time>
      </trkpt>
      <trkpt lat="45.6159460" lon="7.5865510">
        <ele>1850.9970000</ele>
        <time>2009-10-04T13:24:35Z</time>
      </trkpt>
      <trkpt lat="45.6160220" lon="7.5868050">
        <ele>1850.0840000</ele>
        <time>2009-10-04T13:24:40Z</time>
      </trkpt>
      <trkpt lat="45.6160270" lon="7.5868170">
        <ele>1850.1110000</ele>
        <time>2009-10-04T13:24:45Z</time>
      </trkpt>
      <trkpt lat="45.6160160" lon="7.5869140">
        <ele>1849.4140000</ele>
        <time>2009-10-04T13:25:38Z</time>
      </trkpt>
      <trkpt lat="45.6160600" lon="7.5870040">
        <ele>1849.1360000</ele>
        <time>2009-10-04T13:25:42Z</time>
      </trkpt>
      <trkpt lat="45.6161360" lon="7.5871000">
        <ele>1849.3800000</ele>
        <time>2009-10-04T13:25:47Z</time>
      </trkpt>
      <trkpt lat="45.6162180" lon="7.5872280">
        <ele>1849.2480000</ele>
        <time>2009-10-04T13:25:52Z</time>
      </trkpt>
      <trkpt lat="45.6162350" lon="7.5872670">
        <ele>1848.3620000</ele>
        <time>2009-10-04T13:25:53Z</time>
      </trkpt>
      <trkpt lat="45.6162700" lon="7.5873750">
        <ele>1847.6680000</ele>
        <time>2009-10-04T13:25:55Z</time>
      </trkpt>
      <trkpt lat="45.6163240" lon="7.5874690">
        <ele>1847.4680000</ele>
        <time>2009-10-04T13:25:57Z</time>
      </trkpt>
      <trkpt lat="45.6164620" lon="7.5876780">
        <ele>1847.7730000</ele>
        <time>2009-10-04T13:26:03Z</time>
      </trkpt>
      <trkpt lat="45.6164840" lon="7.5878390">
        <ele>1847.7600000</ele>
        <time>2009-10-04T13:26:08Z</time>
      </trkpt>
      <trkpt lat="45.6165450" lon="7.5880870">
        <ele>1847.8410000</ele>
        <time>2009-10-04T13:26:14Z</time>
      </trkpt>
      <trkpt lat="45.6166080" lon="7.5883540">
        <ele>1847.9010000</ele>
        <time>2009-10-04T13:26:20Z</time>
      </trkpt>
      <trkpt lat="45.6166410" lon="7.5884820">
        <ele>1846.9200000</ele>
        <time>2009-10-04T13:26:23Z</time>
      </trkpt>
      <trkpt lat="45.6167020" lon="7.5885610">
        <ele>1846.0550000</ele>
        <time>2009-10-04T13:26:25Z</time>
      </trkpt>
      <trkpt lat="45.6167920" lon="7.5886260">
        <ele>1845.3980000</ele>
        <time>2009-10-04T13:26:27Z</time>
      </trkpt>
      <trkpt lat="45.6169110" lon="7.5887870">
        <ele>1844.0390000</ele>
        <time>2009-10-04T13:26:30Z</time>
      </trkpt>
      <trkpt lat="45.6169680" lon="7.5889290">
        <ele>1843.6820000</ele>
        <time>2009-10-04T13:26:32Z</time>
      </trkpt>
      <trkpt lat="45.6170410" lon="7.5892660">
        <ele>1843.6300000</ele>
        <time>2009-10-04T13:26:38Z</time>
      </trkpt>
      <trkpt lat="45.6170670" lon="7.5895160">
        <ele>1842.2520000</ele>
        <time>2009-10-04T13:26:42Z</time>
      </trkpt>
      <trkpt lat="45.6170710" lon="7.5895870">
        <ele>1841.9170000</ele>
        <time>2009-10-04T13:26:43Z</time>
      </trkpt>
      <trkpt lat="45.6170210" lon="7.5899920">
        <ele>1839.0750000</ele>
        <time>2009-10-04T13:26:48Z</time>
      </trkpt>
      <trkpt lat="45.6170220" lon="7.5904030">
        <ele>1836.8890000</ele>
        <time>2009-10-04T13:26:52Z</time>
      </trkpt>
      <trkpt lat="45.6170290" lon="7.5905690">
        <ele>1836.0710000</ele>
        <time>2009-10-04T13:26:54Z</time>
      </trkpt>
      <trkpt lat="45.6170190" lon="7.5909430">
        <ele>1831.2050000</ele>
        <time>2009-10-04T13:26:59Z</time>
      </trkpt>
      <trkpt lat="45.6169970" lon="7.5909910">
        <ele>1831.1400000</ele>
        <time>2009-10-04T13:27:00Z</time>
      </trkpt>
      <trkpt lat="45.6169070" lon="7.5911700">
        <ele>1828.8140000</ele>
        <time>2009-10-04T13:27:03Z</time>
      </trkpt>
      <trkpt lat="45.6167000" lon="7.5916020">
        <ele>1822.6170000</ele>
        <time>2009-10-04T13:27:09Z</time>
      </trkpt>
      <trkpt lat="45.6166600" lon="7.5916710">
        <ele>1821.3900000</ele>
        <time>2009-10-04T13:27:10Z</time>
      </trkpt>
      <trkpt lat="45.6166490" lon="7.5918410">
        <ele>1817.5250000</ele>
        <time>2009-10-04T13:27:15Z</time>
      </trkpt>
      <trkpt lat="45.6166860" lon="7.5918190">
        <ele>1817.3360000</ele>
        <time>2009-10-04T13:27:16Z</time>
      </trkpt>
      <trkpt lat="45.6168230" lon="7.5917650">
        <ele>1814.3600000</ele>
        <time>2009-10-04T13:27:19Z</time>
      </trkpt>
      <trkpt lat="45.6168620" lon="7.5917610">
        <ele>1814.3800000</ele>
        <time>2009-10-04T13:27:20Z</time>
      </trkpt>
      <trkpt lat="45.6169310" lon="7.5917520">
        <ele>1813.4880000</ele>
        <time>2009-10-04T13:27:22Z</time>
      </trkpt>
      <trkpt lat="45.6170170" lon="7.5917400">
        <ele>1811.8310000</ele>
        <time>2009-10-04T13:27:24Z</time>
      </trkpt>
      <trkpt lat="45.6170620" lon="7.5918510">
        <ele>1810.1510000</ele>
        <time>2009-10-04T13:27:27Z</time>
      </trkpt>
      <trkpt lat="45.6169210" lon="7.5920490">
        <ele>1808.0130000</ele>
        <time>2009-10-04T13:27:31Z</time>
      </trkpt>
      <trkpt lat="45.6167340" lon="7.5922750">
        <ele>1804.7780000</ele>
        <time>2009-10-04T13:27:35Z</time>
      </trkpt>
      <trkpt lat="45.6167140" lon="7.5925360">
        <ele>1802.3410000</ele>
        <time>2009-10-04T13:27:39Z</time>
      </trkpt>
      <trkpt lat="45.6167440" lon="7.5925890">
        <ele>1801.9640000</ele>
        <time>2009-10-04T13:27:40Z</time>
      </trkpt>
      <trkpt lat="45.6168780" lon="7.5925690">
        <ele>1799.9860000</ele>
        <time>2009-10-04T13:27:44Z</time>
      </trkpt>
      <trkpt lat="45.6169860" lon="7.5924900">
        <ele>1797.9120000</ele>
        <time>2009-10-04T13:27:48Z</time>
      </trkpt>
      <trkpt lat="45.6170090" lon="7.5925130">
        <ele>1797.4210000</ele>
        <time>2009-10-04T13:27:49Z</time>
      </trkpt>
      <trkpt lat="45.6171780" lon="7.5927680">
        <ele>1794.9610000</ele>
        <time>2009-10-04T13:27:54Z</time>
      </trkpt>
      <trkpt lat="45.6174300" lon="7.5930060">
        <ele>1790.3170000</ele>
        <time>2009-10-04T13:27:59Z</time>
      </trkpt>
      <trkpt lat="45.6175190" lon="7.5930750">
        <ele>1788.1740000</ele>
        <time>2009-10-04T13:28:01Z</time>
      </trkpt>
      <trkpt lat="45.6175810" lon="7.5932410">
        <ele>1783.8260000</ele>
        <time>2009-10-04T13:28:05Z</time>
      </trkpt>
      <trkpt lat="45.6174760" lon="7.5933610">
        <ele>1781.4030000</ele>
        <time>2009-10-04T13:28:08Z</time>
      </trkpt>
      <trkpt lat="45.6174420" lon="7.5934240">
        <ele>1780.7300000</ele>
        <time>2009-10-04T13:28:09Z</time>
      </trkpt>
      <trkpt lat="45.6172960" lon="7.5937600">
        <ele>1776.9450000</ele>
        <time>2009-10-04T13:28:13Z</time>
      </trkpt>
      <trkpt lat="45.6171960" lon="7.5940920">
        <ele>1775.5860000</ele>
        <time>2009-10-04T13:28:17Z</time>
      </trkpt>
      <trkpt lat="45.6171130" lon="7.5941770">
        <ele>1774.3590000</ele>
        <time>2009-10-04T13:28:20Z</time>
      </trkpt>
      <trkpt lat="45.6170390" lon="7.5941750">
        <ele>1773.4160000</ele>
        <time>2009-10-04T13:28:22Z</time>
      </trkpt>
      <trkpt lat="45.6169530" lon="7.5941430">
        <ele>1771.9350000</ele>
        <time>2009-10-04T13:28:24Z</time>
      </trkpt>
      <trkpt lat="45.6169040" lon="7.5941640">
        <ele>1770.9750000</ele>
        <time>2009-10-04T13:28:26Z</time>
      </trkpt>
      <trkpt lat="45.6169580" lon="7.5943210">
        <ele>1768.3320000</ele>
        <time>2009-10-04T13:28:29Z</time>
      </trkpt>
      <trkpt lat="45.6170390" lon="7.5944540">
        <ele>1766.1980000</ele>
        <time>2009-10-04T13:28:31Z</time>
      </trkpt>
      <trkpt lat="45.6170890" lon="7.5947780">
        <ele>1762.7450000</ele>
        <time>2009-10-04T13:28:35Z</time>
      </trkpt>
      <trkpt lat="45.6170690" lon="7.5949970">
        <ele>1760.5060000</ele>
        <time>2009-10-04T13:28:37Z</time>
      </trkpt>
      <trkpt lat="45.6170150" lon="7.5953600">
        <ele>1757.9840000</ele>
        <time>2009-10-04T13:28:40Z</time>
      </trkpt>
      <trkpt lat="45.6168930" lon="7.5957360">
        <ele>1756.2850000</ele>
        <time>2009-10-04T13:28:44Z</time>
      </trkpt>
      <trkpt lat="45.6168440" lon="7.5960190">
        <ele>1752.3700000</ele>
        <time>2009-10-04T13:28:48Z</time>
      </trkpt>
      <trkpt lat="45.6168590" lon="7.5961070">
        <ele>1751.3160000</ele>
        <time>2009-10-04T13:28:49Z</time>
      </trkpt>
      <trkpt lat="45.6169320" lon="7.5964980">
        <ele>1747.9120000</ele>
        <time>2009-10-04T13:28:53Z</time>
      </trkpt>
      <trkpt lat="45.6169940" lon="7.5966220">
        <ele>1747.0800000</ele>
        <time>2009-10-04T13:28:55Z</time>
      </trkpt>
      <trkpt lat="45.6171110" lon="7.5967090">
        <ele>1744.7730000</ele>
        <time>2009-10-04T13:28:59Z</time>
      </trkpt>
      <trkpt lat="45.6170780" lon="7.5967540">
        <ele>1744.0990000</ele>
        <time>2009-10-04T13:29:01Z</time>
      </trkpt>
      <trkpt lat="45.6169910" lon="7.5967850">
        <ele>1742.2080000</ele>
        <time>2009-10-04T13:29:03Z</time>
      </trkpt>
      <trkpt lat="45.6167610" lon="7.5968600">
        <ele>1740.1380000</ele>
        <time>2009-10-04T13:29:08Z</time>
      </trkpt>
      <trkpt lat="45.6166600" lon="7.5967400">
        <ele>1738.6150000</ele>
        <time>2009-10-04T13:29:11Z</time>
      </trkpt>
      <trkpt lat="45.6165800" lon="7.5967500">
        <ele>1737.6340000</ele>
        <time>2009-10-04T13:29:14Z</time>
      </trkpt>
      <trkpt lat="45.6166100" lon="7.5968890">
        <ele>1735.7560000</ele>
        <time>2009-10-04T13:29:17Z</time>
      </trkpt>
      <trkpt lat="45.6166450" lon="7.5969970">
        <ele>1734.2210000</ele>
        <time>2009-10-04T13:29:19Z</time>
      </trkpt>
      <trkpt lat="45.6167060" lon="7.5972500">
        <ele>1730.0580000</ele>
        <time>2009-10-04T13:29:23Z</time>
      </trkpt>
      <trkpt lat="45.6168220" lon="7.5973970">
        <ele>1727.1140000</ele>
        <time>2009-10-04T13:29:27Z</time>
      </trkpt>
      <trkpt lat="45.6168650" lon="7.5974150">
        <ele>1726.1230000</ele>
        <time>2009-10-04T13:29:28Z</time>
      </trkpt>
      <trkpt lat="45.6170600" lon="7.5974960">
        <ele>1721.0060000</ele>
        <time>2009-10-04T13:29:33Z</time>
      </trkpt>
      <trkpt lat="45.6170780" lon="7.5976520">
        <ele>1718.0670000</ele>
        <time>2009-10-04T13:29:37Z</time>
      </trkpt>
      <trkpt lat="45.6171250" lon="7.5976840">
        <ele>1717.2810000</ele>
        <time>2009-10-04T13:29:40Z</time>
      </trkpt>
      <trkpt lat="45.6171190" lon="7.5976870">
        <ele>1716.9690000</ele>
        <time>2009-10-04T13:30:28Z</time>
      </trkpt>
      <trkpt lat="45.6171910" lon="7.5976280">
        <ele>1716.0870000</ele>
        <time>2009-10-04T13:30:33Z</time>
      </trkpt>
      <trkpt lat="45.6172670" lon="7.5974710">
        <ele>1715.1010000</ele>
        <time>2009-10-04T13:30:37Z</time>
      </trkpt>
      <trkpt lat="45.6172990" lon="7.5971880">
        <ele>1713.3460000</ele>
        <time>2009-10-04T13:30:42Z</time>
      </trkpt>
      <trkpt lat="45.6174480" lon="7.5971600">
        <ele>1712.1640000</ele>
        <time>2009-10-04T13:30:46Z</time>
      </trkpt>
      <trkpt lat="45.6174790" lon="7.5972280">
        <ele>1710.0340000</ele>
        <time>2009-10-04T13:30:49Z</time>
      </trkpt>
      <trkpt lat="45.6173930" lon="7.5972720">
        <ele>1708.4600000</ele>
        <time>2009-10-04T13:30:52Z</time>
      </trkpt>
      <trkpt lat="45.6174070" lon="7.5973550">
        <ele>1706.8470000</ele>
        <time>2009-10-04T13:30:55Z</time>
      </trkpt>
      <trkpt lat="45.6174870" lon="7.5973430">
        <ele>1704.5520000</ele>
        <time>2009-10-04T13:30:58Z</time>
      </trkpt>
      <trkpt lat="45.6175260" lon="7.5973500">
        <ele>1704.2490000</ele>
        <time>2009-10-04T13:30:59Z</time>
      </trkpt>
      <trkpt lat="45.6175730" lon="7.5973670">
        <ele>1703.3590000</ele>
        <time>2009-10-04T13:31:00Z</time>
      </trkpt>
      <trkpt lat="45.6177370" lon="7.5974860">
        <ele>1700.5540000</ele>
        <time>2009-10-04T13:31:03Z</time>
      </trkpt>
      <trkpt lat="45.6179100" lon="7.5975800">
        <ele>1697.9430000</ele>
        <time>2009-10-04T13:31:08Z</time>
      </trkpt>
      <trkpt lat="45.6177810" lon="7.5976390">
        <ele>1696.2630000</ele>
        <time>2009-10-04T13:31:11Z</time>
      </trkpt>
      <trkpt lat="45.6176520" lon="7.5976350">
        <ele>1694.4720000</ele>
        <time>2009-10-04T13:31:14Z</time>
      </trkpt>
      <trkpt lat="45.6176270" lon="7.5977340">
        <ele>1692.7760000</ele>
        <time>2009-10-04T13:31:18Z</time>
      </trkpt>
      <trkpt lat="45.6177690" lon="7.5977870">
        <ele>1690.3050000</ele>
        <time>2009-10-04T13:31:22Z</time>
      </trkpt>
      <trkpt lat="45.6179060" lon="7.5978100">
        <ele>1687.9910000</ele>
        <time>2009-10-04T13:31:25Z</time>
      </trkpt>
      <trkpt lat="45.6181270" lon="7.5978730">
        <ele>1683.3290000</ele>
        <time>2009-10-04T13:31:30Z</time>
      </trkpt>
      <trkpt lat="45.6184260" lon="7.5979230">
        <ele>1678.2600000</ele>
        <time>2009-10-04T13:31:35Z</time>
      </trkpt>
      <trkpt lat="45.6187660" lon="7.5980190">
        <ele>1672.7350000</ele>
        <time>2009-10-04T13:31:40Z</time>
      </trkpt>
      <trkpt lat="45.6189850" lon="7.5981000">
        <ele>1669.5100000</ele>
        <time>2009-10-04T13:31:44Z</time>
      </trkpt>
      <trkpt lat="45.6192100" lon="7.5982000">
        <ele>1665.7580000</ele>
        <time>2009-10-04T13:31:48Z</time>
      </trkpt>
      <trkpt lat="45.6193370" lon="7.5983240">
        <ele>1664.3650000</ele>
        <time>2009-10-04T13:31:50Z</time>
      </trkpt>
      <trkpt lat="45.6194560" lon="7.5984040">
        <ele>1662.8540000</ele>
        <time>2009-10-04T13:31:53Z</time>
      </trkpt>
      <trkpt lat="45.6194100" lon="7.5984040">
        <ele>1660.5680000</ele>
        <time>2009-10-04T13:31:57Z</time>
      </trkpt>
      <trkpt lat="45.6190980" lon="7.5983220">
        <ele>1656.3750000</ele>
        <time>2009-10-04T13:32:02Z</time>
      </trkpt>
      <trkpt lat="45.6188600" lon="7.5983270">
        <ele>1654.4380000</ele>
        <time>2009-10-04T13:32:05Z</time>
      </trkpt>
      <trkpt lat="45.6187290" lon="7.5983610">
        <ele>1653.8180000</ele>
        <time>2009-10-04T13:32:07Z</time>
      </trkpt>
      <trkpt lat="45.6186250" lon="7.5984150">
        <ele>1651.9090000</ele>
        <time>2009-10-04T13:32:09Z</time>
      </trkpt>
      <trkpt lat="45.6186170" lon="7.5985430">
        <ele>1649.6530000</ele>
        <time>2009-10-04T13:32:13Z</time>
      </trkpt>
      <trkpt lat="45.6187050" lon="7.5985440">
        <ele>1648.6060000</ele>
        <time>2009-10-04T13:32:15Z</time>
      </trkpt>
      <trkpt lat="45.6187940" lon="7.5985440">
        <ele>1646.7650000</ele>
        <time>2009-10-04T13:32:17Z</time>
      </trkpt>
      <trkpt lat="45.6191370" lon="7.5986980">
        <ele>1642.0450000</ele>
        <time>2009-10-04T13:32:24Z</time>
      </trkpt>
      <trkpt lat="45.6190990" lon="7.5987720">
        <ele>1639.4290000</ele>
        <time>2009-10-04T13:32:28Z</time>
      </trkpt>
      <trkpt lat="45.6189290" lon="7.5987650">
        <ele>1637.1100000</ele>
        <time>2009-10-04T13:32:32Z</time>
      </trkpt>
      <trkpt lat="45.6189400" lon="7.5988510">
        <ele>1635.7290000</ele>
        <time>2009-10-04T13:32:34Z</time>
      </trkpt>
      <trkpt lat="45.6190260" lon="7.5989320">
        <ele>1634.4430000</ele>
        <time>2009-10-04T13:32:36Z</time>
      </trkpt>
      <trkpt lat="45.6191010" lon="7.5990730">
        <ele>1632.9150000</ele>
        <time>2009-10-04T13:32:39Z</time>
      </trkpt>
      <trkpt lat="45.6190340" lon="7.5991130">
        <ele>1631.6690000</ele>
        <time>2009-10-04T13:32:41Z</time>
      </trkpt>
      <trkpt lat="45.6189220" lon="7.5990820">
        <ele>1629.5880000</ele>
        <time>2009-10-04T13:32:44Z</time>
      </trkpt>
      <trkpt lat="45.6188570" lon="7.5992390">
        <ele>1626.7170000</ele>
        <time>2009-10-04T13:32:47Z</time>
      </trkpt>
      <trkpt lat="45.6188480" lon="7.5994070">
        <ele>1624.9740000</ele>
        <time>2009-10-04T13:32:49Z</time>
      </trkpt>
      <trkpt lat="45.6188230" lon="7.5997840">
        <ele>1622.2380000</ele>
        <time>2009-10-04T13:32:53Z</time>
      </trkpt>
      <trkpt lat="45.6188070" lon="7.6001580">
        <ele>1619.1860000</ele>
        <time>2009-10-04T13:32:57Z</time>
      </trkpt>
      <trkpt lat="45.6188320" lon="7.6004410">
        <ele>1617.2810000</ele>
        <time>2009-10-04T13:33:00Z</time>
      </trkpt>
      <trkpt lat="45.6188260" lon="7.6008420">
        <ele>1614.2240000</ele>
        <time>2009-10-04T13:33:04Z</time>
      </trkpt>
      <trkpt lat="45.6188610" lon="7.6012270">
        <ele>1610.3990000</ele>
        <time>2009-10-04T13:33:08Z</time>
      </trkpt>
      <trkpt lat="45.6189650" lon="7.6016070">
        <ele>1605.9140000</ele>
        <time>2009-10-04T13:33:12Z</time>
      </trkpt>
      <trkpt lat="45.6189920" lon="7.6017170">
        <ele>1604.6050000</ele>
        <time>2009-10-04T13:33:13Z</time>
      </trkpt>
      <trkpt lat="45.6190390" lon="7.6020320">
        <ele>1602.6460000</ele>
        <time>2009-10-04T13:33:16Z</time>
      </trkpt>
      <trkpt lat="45.6191810" lon="7.6023660">
        <ele>1598.6300000</ele>
        <time>2009-10-04T13:33:21Z</time>
      </trkpt>
      <trkpt lat="45.6192070" lon="7.6024160">
        <ele>1597.5040000</ele>
        <time>2009-10-04T13:33:22Z</time>
      </trkpt>
      <trkpt lat="45.6193680" lon="7.6025970">
        <ele>1594.5150000</ele>
        <time>2009-10-04T13:33:26Z</time>
      </trkpt>
      <trkpt lat="45.6195820" lon="7.6027270">
        <ele>1589.5150000</ele>
        <time>2009-10-04T13:33:30Z</time>
      </trkpt>
      <trkpt lat="45.6196610" lon="7.6028280">
        <ele>1587.2670000</ele>
        <time>2009-10-04T13:33:32Z</time>
      </trkpt>
      <trkpt lat="45.6197990" lon="7.6030570">
        <ele>1583.8020000</ele>
        <time>2009-10-04T13:33:36Z</time>
      </trkpt>
      <trkpt lat="45.6198550" lon="7.6032190">
        <ele>1580.7440000</ele>
        <time>2009-10-04T13:33:40Z</time>
      </trkpt>
      <trkpt lat="45.6197250" lon="7.6032090">
        <ele>1576.9100000</ele>
        <time>2009-10-04T13:33:44Z</time>
      </trkpt>
      <trkpt lat="45.6196920" lon="7.6031700">
        <ele>1576.1940000</ele>
        <time>2009-10-04T13:33:45Z</time>
      </trkpt>
      <trkpt lat="45.6195450" lon="7.6030500">
        <ele>1570.6340000</ele>
        <time>2009-10-04T13:33:50Z</time>
      </trkpt>
      <trkpt lat="45.6195140" lon="7.6030570">
        <ele>1569.6450000</ele>
        <time>2009-10-04T13:33:52Z</time>
      </trkpt>
      <trkpt lat="45.6195060" lon="7.6030780">
        <ele>1568.4900000</ele>
        <time>2009-10-04T13:33:58Z</time>
      </trkpt>
      <trkpt lat="45.6195390" lon="7.6031730">
        <ele>1566.6410000</ele>
        <time>2009-10-04T13:34:02Z</time>
      </trkpt>
      <trkpt lat="45.6196690" lon="7.6034850">
        <ele>1560.8400000</ele>
        <time>2009-10-04T13:34:09Z</time>
      </trkpt>
      <trkpt lat="45.6197390" lon="7.6037190">
        <ele>1555.3070000</ele>
        <time>2009-10-04T13:34:14Z</time>
      </trkpt>
      <trkpt lat="45.6197800" lon="7.6038590">
        <ele>1551.4710000</ele>
        <time>2009-10-04T13:34:17Z</time>
      </trkpt>
      <trkpt lat="45.6199640" lon="7.6038740">
        <ele>1546.4550000</ele>
        <time>2009-10-04T13:34:22Z</time>
      </trkpt>
      <trkpt lat="45.6201100" lon="7.6039000">
        <ele>1542.9380000</ele>
        <time>2009-10-04T13:34:26Z</time>
      </trkpt>
      <trkpt lat="45.6201200" lon="7.6039590">
        <ele>1542.2040000</ele>
        <time>2009-10-04T13:34:28Z</time>
      </trkpt>
      <trkpt lat="45.6200710" lon="7.6039970">
        <ele>1540.6430000</ele>
        <time>2009-10-04T13:34:30Z</time>
      </trkpt>
      <trkpt lat="45.6199670" lon="7.6040290">
        <ele>1537.8740000</ele>
        <time>2009-10-04T13:34:33Z</time>
      </trkpt>
      <trkpt lat="45.6199490" lon="7.6041270">
        <ele>1535.5780000</ele>
        <time>2009-10-04T13:34:37Z</time>
      </trkpt>
      <trkpt lat="45.6199780" lon="7.6041290">
        <ele>1534.9460000</ele>
        <time>2009-10-04T13:34:38Z</time>
      </trkpt>
      <trkpt lat="45.6200580" lon="7.6041290">
        <ele>1534.0660000</ele>
        <time>2009-10-04T13:34:40Z</time>
      </trkpt>
      <trkpt lat="45.6201580" lon="7.6041440">
        <ele>1533.7120000</ele>
        <time>2009-10-04T13:34:42Z</time>
      </trkpt>
      <trkpt lat="45.6203210" lon="7.6040780">
        <ele>1531.2800000</ele>
        <time>2009-10-04T13:34:45Z</time>
      </trkpt>
      <trkpt lat="45.6205560" lon="7.6039030">
        <ele>1526.4490000</ele>
        <time>2009-10-04T13:34:50Z</time>
      </trkpt>
      <trkpt lat="45.6206100" lon="7.6039140">
        <ele>1526.1900000</ele>
        <time>2009-10-04T13:34:51Z</time>
      </trkpt>
      <trkpt lat="45.6207680" lon="7.6040340">
        <ele>1522.3710000</ele>
        <time>2009-10-04T13:34:55Z</time>
      </trkpt>
      <trkpt lat="45.6209270" lon="7.6041750">
        <ele>1520.1440000</ele>
        <time>2009-10-04T13:34:59Z</time>
      </trkpt>
      <trkpt lat="45.6210790" lon="7.6040850">
        <ele>1516.9900000</ele>
        <time>2009-10-04T13:35:02Z</time>
      </trkpt>
      <trkpt lat="45.6211910" lon="7.6039810">
        <ele>1514.1010000</ele>
        <time>2009-10-04T13:35:04Z</time>
      </trkpt>
      <trkpt lat="45.6214410" lon="7.6036220">
        <ele>1506.4890000</ele>
        <time>2009-10-04T13:35:09Z</time>
      </trkpt>
      <trkpt lat="45.6216190" lon="7.6035380">
        <ele>1502.0660000</ele>
        <time>2009-10-04T13:35:12Z</time>
      </trkpt>
      <trkpt lat="45.6217350" lon="7.6035280">
        <ele>1497.8470000</ele>
        <time>2009-10-04T13:35:14Z</time>
      </trkpt>
      <trkpt lat="45.6219930" lon="7.6036380">
        <ele>1490.1590000</ele>
        <time>2009-10-04T13:35:19Z</time>
      </trkpt>
      <trkpt lat="45.6220600" lon="7.6037810">
        <ele>1486.9070000</ele>
        <time>2009-10-04T13:35:22Z</time>
      </trkpt>
      <trkpt lat="45.6221570" lon="7.6042060">
        <ele>1480.6530000</ele>
        <time>2009-10-04T13:35:27Z</time>
      </trkpt>
      <trkpt lat="45.6222620" lon="7.6047230">
        <ele>1475.1580000</ele>
        <time>2009-10-04T13:35:32Z</time>
      </trkpt>
      <trkpt lat="45.6223410" lon="7.6053800">
        <ele>1470.7620000</ele>
        <time>2009-10-04T13:35:38Z</time>
      </trkpt>
      <trkpt lat="45.6224010" lon="7.6057840">
        <ele>1468.1000000</ele>
        <time>2009-10-04T13:35:42Z</time>
      </trkpt>
      <trkpt lat="45.6224150" lon="7.6058440">
        <ele>1467.9310000</ele>
        <time>2009-10-04T13:35:43Z</time>
      </trkpt>
      <trkpt lat="45.6224270" lon="7.6058800">
        <ele>1467.6290000</ele>
        <time>2009-10-04T13:35:46Z</time>
      </trkpt>
      <trkpt lat="45.6224070" lon="7.6058360">
        <ele>1467.6840000</ele>
        <time>2009-10-04T13:37:20Z</time>
      </trkpt>
      <trkpt lat="45.6223550" lon="7.6059200">
        <ele>1466.5780000</ele>
        <time>2009-10-04T13:37:26Z</time>
      </trkpt>
      <trkpt lat="45.6221450" lon="7.6059890">
        <ele>1465.3140000</ele>
        <time>2009-10-04T13:37:32Z</time>
      </trkpt>
      <trkpt lat="45.6220440" lon="7.6060110">
        <ele>1464.4500000</ele>
        <time>2009-10-04T13:37:34Z</time>
      </trkpt>
      <trkpt lat="45.6217800" lon="7.6062100">
        <ele>1461.7980000</ele>
        <time>2009-10-04T13:37:39Z</time>
      </trkpt>
      <trkpt lat="45.6216710" lon="7.6063610">
        <ele>1460.7440000</ele>
        <time>2009-10-04T13:37:41Z</time>
      </trkpt>
      <trkpt lat="45.6214030" lon="7.6068490">
        <ele>1460.7570000</ele>
        <time>2009-10-04T13:37:47Z</time>
      </trkpt>
      <trkpt lat="45.6213390" lon="7.6069840">
        <ele>1460.0880000</ele>
        <time>2009-10-04T13:37:49Z</time>
      </trkpt>
      <trkpt lat="45.6211720" lon="7.6073030">
        <ele>1457.9070000</ele>
        <time>2009-10-04T13:37:54Z</time>
      </trkpt>
      <trkpt lat="45.6210320" lon="7.6075930">
        <ele>1455.8220000</ele>
        <time>2009-10-04T13:37:58Z</time>
      </trkpt>
      <trkpt lat="45.6209490" lon="7.6080430">
        <ele>1453.2340000</ele>
        <time>2009-10-04T13:38:03Z</time>
      </trkpt>
      <trkpt lat="45.6210190" lon="7.6085420">
        <ele>1451.0480000</ele>
        <time>2009-10-04T13:38:09Z</time>
      </trkpt>
      <trkpt lat="45.6211420" lon="7.6092380">
        <ele>1447.8970000</ele>
        <time>2009-10-04T13:38:16Z</time>
      </trkpt>
      <trkpt lat="45.6212040" lon="7.6095740">
        <ele>1446.1810000</ele>
        <time>2009-10-04T13:38:19Z</time>
      </trkpt>
      <trkpt lat="45.6213100" lon="7.6101720">
        <ele>1443.5640000</ele>
        <time>2009-10-04T13:38:24Z</time>
      </trkpt>
      <trkpt lat="45.6214810" lon="7.6110350">
        <ele>1441.0230000</ele>
        <time>2009-10-04T13:38:31Z</time>
      </trkpt>
      <trkpt lat="45.6215340" lon="7.6114140">
        <ele>1439.2750000</ele>
        <time>2009-10-04T13:38:34Z</time>
      </trkpt>
      <trkpt lat="45.6216140" lon="7.6123900">
        <ele>1436.5040000</ele>
        <time>2009-10-04T13:38:42Z</time>
      </trkpt>
      <trkpt lat="45.6216320" lon="7.6126260">
        <ele>1435.8830000</ele>
        <time>2009-10-04T13:38:44Z</time>
      </trkpt>
      <trkpt lat="45.6216510" lon="7.6132370">
        <ele>1433.7490000</ele>
        <time>2009-10-04T13:38:49Z</time>
      </trkpt>
      <trkpt lat="45.6216860" lon="7.6141080">
        <ele>1431.3190000</ele>
        <time>2009-10-04T13:38:56Z</time>
      </trkpt>
      <trkpt lat="45.6217610" lon="7.6146830">
        <ele>1429.3850000</ele>
        <time>2009-10-04T13:39:01Z</time>
      </trkpt>
      <trkpt lat="45.6219110" lon="7.6154430">
        <ele>1428.1170000</ele>
        <time>2009-10-04T13:39:08Z</time>
      </trkpt>
      <trkpt lat="45.6221910" lon="7.6161000">
        <ele>1427.2120000</ele>
        <time>2009-10-04T13:39:15Z</time>
      </trkpt>
      <trkpt lat="45.6224060" lon="7.6165720">
        <ele>1425.1440000</ele>
        <time>2009-10-04T13:39:20Z</time>
      </trkpt>
      <trkpt lat="45.6226480" lon="7.6170830">
        <ele>1426.0750000</ele>
        <time>2009-10-04T13:39:26Z</time>
      </trkpt>
      <trkpt lat="45.6227920" lon="7.6173700">
        <ele>1427.0140000</ele>
        <time>2009-10-04T13:39:31Z</time>
      </trkpt>
      <trkpt lat="45.6228780" lon="7.6175260">
        <ele>1427.5060000</ele>
        <time>2009-10-04T13:39:36Z</time>
      </trkpt>
      <trkpt lat="45.6229220" lon="7.6176770">
        <ele>1427.7880000</ele>
        <time>2009-10-04T13:39:42Z</time>
      </trkpt>
      <trkpt lat="45.6230190" lon="7.6179120">
        <ele>1428.4160000</ele>
        <time>2009-10-04T13:39:49Z</time>
      </trkpt>
      <trkpt lat="45.6231270" lon="7.6181970">
        <ele>1428.8720000</ele>
        <time>2009-10-04T13:39:56Z</time>
      </trkpt>
      <trkpt lat="45.6232300" lon="7.6186270">
        <ele>1429.1270000</ele>
        <time>2009-10-04T13:40:05Z</time>
      </trkpt>
      <trkpt lat="45.6233680" lon="7.6191600">
        <ele>1429.4440000</ele>
        <time>2009-10-04T13:40:15Z</time>
      </trkpt>
      <trkpt lat="45.6234790" lon="7.6195420">
        <ele>1429.7420000</ele>
        <time>2009-10-04T13:40:22Z</time>
      </trkpt>
      <trkpt lat="45.6235160" lon="7.6200350">
        <ele>1429.9820000</ele>
        <time>2009-10-04T13:40:30Z</time>
      </trkpt>
      <trkpt lat="45.6235700" lon="7.6204080">
        <ele>1430.6460000</ele>
        <time>2009-10-04T13:40:36Z</time>
      </trkpt>
      <trkpt lat="45.6235490" lon="7.6206710">
        <ele>1430.7340000</ele>
        <time>2009-10-04T13:40:41Z</time>
      </trkpt>
      <trkpt lat="45.6235310" lon="7.6208830">
        <ele>1430.5210000</ele>
        <time>2009-10-04T13:40:46Z</time>
      </trkpt>
      <trkpt lat="45.6235230" lon="7.6209640">
        <ele>1430.5510000</ele>
        <time>2009-10-04T13:40:48Z</time>
      </trkpt>
      <trkpt lat="45.6234150" lon="7.6210630">
        <ele>1430.6180000</ele>
        <time>2009-10-04T13:40:53Z</time>
      </trkpt>
      <trkpt lat="45.6233610" lon="7.6210780">
        <ele>1430.4580000</ele>
        <time>2009-10-04T13:40:55Z</time>
      </trkpt>
      <trkpt lat="45.6233390" lon="7.6210830">
        <ele>1430.2800000</ele>
        <time>2009-10-04T13:40:57Z</time>
      </trkpt>
      <trkpt lat="45.6233390" lon="7.6210810">
        <ele>1430.2180000</ele>
        <time>2009-10-04T13:41:02Z</time>
      </trkpt>
      <trkpt lat="45.6233450" lon="7.6210800">
        <ele>1430.3710000</ele>
        <time>2009-10-04T13:41:13Z</time>
      </trkpt>
    </trkseg>
  </trk>

</gpx>
